ECMWFNIL_sfc_thetae_000.txt.gz
Theta_e
313 313 312 312 312 311 311 311 312 311 310 310 309 310 310 311 311 312 312 313 314 314 315 317 317 319 320 322 324 323 324 326 327 329 330 330 331 331 328 327 329 329
313 312 310 311 310 310 311 312 311 311 311 311 311 311 311 311 311 310 310 311 311 312 314 315 316 317 319 320 321 322 323 323 324 327 328 331 329 327 328 330 330 331
312 312 311 310 310 311 311 311 311 311 311 311 312 311 311 311 310 310 310 310 310 311 313 314 314 316 317 318 320 321 321 323 323 325 326 327 332 332 332 333 331 331
312 312 311 311 310 310 311 310 311 310 310 310 311 312 311 310 309 309 309 309 309 309 310 311 312 312 314 316 319 319 320 321 322 324 324 326 329 332 332 331 330 330
312 312 312 311 310 310 310 309 309 309 310 310 310 310 309 309 308 308 308 308 309 308 308 308 310 311 312 313 315 317 318 319 322 323 322 323 326 327 329 330 333 331
311 310 310 310 310 310 309 308 308 308 308 308 308 308 309 308 307 307 307 307 307 307 307 308 308 310 311 312 314 315 317 318 320 321 321 321 322 325 326 328 329 329
311 311 310 310 310 309 309 308 308 307 307 307 307 307 307 306 306 305 305 306 306 306 306 306 306 307 309 310 311 313 316 317 318 319 319 320 320 322 324 326 327 328
311 310 310 310 310 309 308 307 307 307 307 306 305 305 306 305 305 305 305 305 304 304 305 305 306 306 307 308 309 310 311 315 317 318 318 319 321 320 321 321 325 325
310 309 309 309 309 309 308 307 307 307 307 306 305 305 305 305 304 304 304 304 304 303 303 304 304 305 306 306 307 307 308 311 314 316 317 318 319 320 320 321 322 323
309 309 309 308 308 308 308 307 306 306 307 306 305 305 304 305 305 304 303 303 302 302 303 303 303 304 304 305 306 306 306 307 309 312 315 316 317 319 320 320 320 320
309 309 308 308 307 307 307 307 307 306 306 305 305 304 304 304 304 304 303 302 302 302 302 302 302 303 303 303 304 305 306 307 308 309 312 314 316 317 318 320 321 321
308 308 307 307 306 306 306 306 306 306 305 305 305 304 304 305 303 302 302 301 301 300 300 301 301 301 302 302 303 304 304 305 307 308 310 312 314 316 318 320 321 322
307 306 306 306 305 305 306 306 305 305 305 305 305 304 303 303 303 302 302 301 301 301 301 300 301 301 301 301 302 303 303 304 305 307 309 311 313 316 317 319 321 322
307 306 306 305 304 305 305 305 305 304 304 304 304 303 303 302 301 301 301 301 300 300 300 300 300 300 301 301 301 302 303 303 305 306 307 310 313 315 317 318 320 321
306 305 305 305 304 304 304 303 303 303 303 303 303 302 302 302 301 301 300 300 300 300 300 300 300 300 300 301 301 301 302 303 304 305 306 308 311 314 316 318 320 321
305 305 304 304 303 302 302 303 302 302 302 302 302 302 302 301 301 301 300 299 298 299 299 299 299 300 299 298 298 301 302 303 304 305 305 307 309 312 315 317 319 321
304 304 304 303 302 302 302 302 302 302 302 302 302 301 301 301 301 300 299 299 298 298 298 298 299 299 297 295 295 295 299 301 303 305 306 306 308 311 314 316 318 320
304 303 303 302 302 301 301 301 302 301 301 301 301 300 300 301 300 299 299 299 298 298 298 298 298 297 294 294 294 294 296 300 301 302 305 307 308 310 313 316 317 319
303 303 302 301 301 301 301 301 301 301 300 299 299 300 300 299 298 298 298 298 298 297 297 298 298 296 294 294 294 293 293 296 299 300 302 304 307 310 313 315 317 318
303 302 301 300 301 300 300 300 300 299 299 299 299 298 298 297 297 297 297 297 297 297 297 297 298 296 294 294 294 293 293 294 299 299 300 303 306 308 311 315 317 318
302 301 300 300 300 300 299 299 298 298 298 297 297 297 296 295 295 295 295 296 296 296 296 296 297 295 293 293 293 293 293 293 298 299 299 301 304 307 308 311 316 318
301 300 300 299 299 299 298 298 298 297 297 297 297 296 296 295 295 295 294 295 296 296 296 295 297 294 293 293 293 293 292 296 298 298 299 300 303 306 309 310 313 317
301 300 299 299 299 298 298 298 297 296 297 297 296 295 295 294 294 294 294 294 295 295 295 295 296 295 293 293 293 292 293 297 298 298 299 300 301 304 307 309 311 315
301 300 299 298 298 298 297 297 297 297 297 297 296 294 294 294 294 294 294 294 294 294 294 294 295 295 293 293 293 292 294 297 298 298 299 300 301 304 306 308 310 307
300 300 299 299 298 297 297 296 297 297 297 297 296 295 294 294 294 293 293 293 294 294 295 294 294 295 294 293 292 293 294 297 298 298 298 300 302 303 306 308 310 309
301 300 299 299 298 297 297 297 297 297 296 296 295 294 293 293 293 292 292 292 293 294 294 294 294 296 297 293 293 293 293 297 298 299 299 300 302 304 306 308 309 313

ECMWFNIL_sfc_thetae_003.txt.gz
Theta_e
318 317 317 316 316 316 317 318 316 316 316 315 315 315 315 316 317 317 316 317 317 316 317 317 317 318 318 320 321 321 322 322 324 326 326 327 330 332 331 331 330 328
317 317 316 317 315 315 316 317 317 316 316 317 316 316 316 316 316 316 315 315 315 315 315 315 316 316 317 318 320 320 320 322 323 324 325 327 327 330 331 332 331 330
317 316 316 315 314 315 316 317 317 316 315 316 317 317 316 316 316 316 315 315 314 314 314 314 315 315 316 317 318 318 318 320 321 323 323 324 325 326 329 331 332 330
316 316 316 316 315 316 317 316 315 316 315 314 315 316 316 316 316 315 314 313 312 312 312 312 312 313 314 314 316 315 317 318 320 322 322 323 324 325 326 327 329 330
316 316 315 316 315 315 315 315 314 314 314 314 314 314 313 313 313 313 312 312 311 310 310 310 311 311 312 312 313 314 315 315 318 320 320 322 323 323 325 326 326 327
316 315 315 315 315 315 314 313 313 313 313 313 312 312 312 311 310 310 311 310 310 309 308 309 309 310 311 311 311 312 313 315 316 318 318 319 321 323 322 324 325 325
315 315 314 314 314 314 313 313 313 313 312 312 311 310 310 309 309 308 309 309 308 308 308 308 308 308 309 309 309 309 311 313 314 315 316 318 320 321 322 322 322 323
315 315 315 314 314 314 313 312 313 312 312 311 310 310 309 308 307 308 308 307 307 307 307 306 307 307 308 308 308 308 309 311 312 313 314 315 317 318 320 321 322 321
315 315 314 314 313 313 312 312 312 312 312 310 309 309 309 308 308 308 307 306 306 306 306 306 306 306 307 307 307 307 307 308 310 311 311 312 314 316 318 320 320 321
314 313 313 313 313 312 312 313 312 312 311 310 309 308 307 308 308 307 306 306 306 305 305 305 305 305 305 306 306 307 307 307 308 309 311 311 312 313 315 318 320 319
313 313 312 312 312 312 312 312 312 311 310 309 309 308 307 307 306 307 306 306 305 305 305 305 305 305 305 305 306 306 306 306 307 308 309 311 312 313 313 315 317 319
313 313 312 312 312 312 311 311 310 310 309 309 308 306 306 307 306 306 306 305 305 305 305 305 305 305 304 304 304 305 305 306 306 307 308 309 310 312 313 313 315 317
311 311 312 312 311 311 310 310 309 309 308 307 307 306 306 306 306 305 306 306 306 306 305 305 304 304 304 304 304 304 304 304 305 306 306 307 309 310 311 312 313 315
311 311 311 311 310 310 309 309 308 307 307 307 306 305 305 305 305 305 305 305 305 304 304 304 304 304 304 304 304 304 303 303 304 304 304 305 307 308 310 312 313 315
311 311 310 310 309 308 308 307 307 306 306 305 305 305 305 305 305 305 304 304 304 304 304 304 303 303 303 304 304 303 304 303 303 303 303 304 305 306 308 310 313 315
310 310 309 309 308 307 307 306 305 305 305 305 304 304 304 304 304 304 304 304 303 303 303 304 303 303 302 299 299 302 303 303 303 303 303 303 304 305 306 308 310 313
309 308 308 307 307 307 306 305 304 304 304 303 303 303 303 303 303 303 303 303 303 303 302 303 303 303 298 296 295 296 300 301 301 302 303 304 304 304 304 306 309 311
308 307 307 306 306 305 304 304 304 303 303 303 302 302 302 303 302 302 302 302 302 302 301 302 302 300 296 295 295 294 296 300 300 300 300 301 302 303 305 306 307 309
307 306 306 306 305 304 304 303 303 302 302 301 301 301 301 300 300 301 300 301 300 300 300 301 301 298 296 295 295 294 294 296 299 299 299 299 300 301 303 305 307 308
306 305 304 304 304 304 303 302 302 301 301 301 301 301 300 299 300 299 299 299 299 299 299 299 300 298 295 295 294 293 293 294 298 298 298 299 299 300 301 302 305 307
305 305 304 303 303 303 302 302 301 301 301 300 300 299 299 298 298 298 298 298 298 298 298 298 299 296 294 293 293 293 292 293 298 298 298 298 298 299 300 301 303 305
305 304 304 303 302 302 301 301 301 300 300 300 299 299 299 299 299 298 298 297 298 297 297 296 298 294 293 293 293 293 292 296 297 297 297 297 298 298 299 300 301 303
304 304 303 303 302 301 301 300 300 299 299 299 298 298 298 298 298 298 298 297 297 297 296 296 297 295 293 293 292 292 293 296 296 296 296 297 297 298 299 299 300 302
304 303 302 302 301 300 300 300 300 299 299 299 298 298 297 297 297 297 297 297 296 296 296 295 296 296 293 293 292 292 293 295 296 295 295 296 296 298 298 299 300 300
304 303 303 302 301 300 300 300 299 299 299 299 298 297 297 297 297 296 296 296 296 296 296 295 295 295 293 292 292 292 294 296 295 295 294 295 296 296 298 298 299 300
304 303 303 302 301 300 300 299 299 298 298 297 297 297 296 296 296 295 295 295 296 295 295 295 294 295 295 292 292 292 292 295 295 294 294 294 295 296 297 298 299 300

ECMWFNIL_sfc_thetae_006.txt.gz
Theta_e
320 319 319 319 319 319 319 319 321 320 319 320 318 318 318 320 320 320 319 319 318 317 316 316 315 316 317 316 317 317 316 317 318 319 320 320 321 323 326 328 328 327
319 319 318 318 317 319 320 321 321 320 319 320 319 319 319 319 319 319 318 317 316 315 315 315 314 314 314 314 315 315 315 316 316 319 318 320 320 321 321 324 328 328
318 318 318 317 317 317 318 319 320 319 319 319 320 319 319 318 318 318 318 317 315 314 314 314 313 313 313 313 313 313 313 314 315 316 317 317 319 320 321 322 325 327
317 317 317 317 318 318 318 318 317 317 317 316 316 317 317 319 318 317 315 314 313 312 312 312 311 310 310 310 311 311 311 312 313 314 314 316 317 318 319 321 322 325
317 316 316 316 317 318 317 316 315 315 316 316 318 317 316 315 314 313 313 313 312 311 311 310 310 310 310 309 310 309 310 310 311 312 312 313 315 316 318 319 320 320
316 315 315 315 316 315 315 314 314 315 315 315 315 315 314 313 311 310 310 310 310 309 309 309 308 308 308 308 308 308 308 308 309 310 310 312 313 315 316 318 318 319
315 315 315 315 315 315 314 314 315 315 314 315 315 312 312 311 310 309 308 308 307 307 307 307 307 307 308 308 307 307 307 308 308 308 308 309 311 313 315 316 317 318
316 316 315 314 315 314 314 313 314 314 314 313 311 311 311 310 308 308 308 308 306 306 306 306 306 305 306 306 305 305 306 308 308 307 307 307 309 310 312 314 315 316
316 314 314 314 314 314 313 313 313 313 313 312 311 310 310 310 309 308 308 307 306 306 305 305 305 305 306 306 305 305 305 305 306 306 306 306 307 308 310 311 312 314
314 314 314 314 313 313 313 313 313 313 313 312 311 311 309 310 309 308 307 306 306 305 305 305 305 305 305 305 305 305 304 304 305 305 305 306 306 307 308 309 310 311
314 314 313 313 313 313 313 313 313 313 313 311 311 310 309 309 308 308 307 306 305 304 304 304 305 305 305 305 305 305 305 305 305 304 305 305 306 306 308 308 309 310
314 313 313 312 312 312 313 313 313 312 311 312 310 308 308 308 307 306 306 305 305 305 305 305 305 305 305 305 305 305 305 305 305 305 305 305 305 305 306 307 308 309
313 312 312 312 312 312 313 312 311 312 310 308 309 308 306 305 305 305 305 305 305 305 305 305 305 306 305 305 305 305 304 304 303 304 304 304 304 305 306 306 307 308
313 313 312 312 313 312 312 312 311 310 309 310 309 306 305 304 304 304 304 304 304 304 305 305 305 304 304 304 304 304 304 304 303 303 303 303 303 304 305 305 306 307
312 312 312 312 311 310 310 309 309 310 310 308 306 305 306 305 304 304 303 303 304 304 304 305 305 304 304 304 304 303 303 303 303 303 303 303 303 303 304 304 304 305
310 311 311 310 310 309 308 309 309 309 308 306 305 304 304 304 304 304 303 303 302 303 303 304 304 305 303 300 300 303 303 302 303 303 302 302 302 302 303 303 304 304
309 309 309 308 308 308 309 308 306 306 305 304 304 304 304 304 303 302 301 302 301 301 301 302 303 303 299 296 295 296 299 301 301 301 301 301 300 300 301 302 303 304
309 309 308 307 307 306 306 305 307 307 304 303 303 303 303 304 302 301 301 300 301 301 300 301 301 299 296 295 295 295 296 299 300 300 300 300 300 299 299 300 300 302
308 307 306 306 306 306 306 307 306 304 302 302 302 302 304 303 301 301 300 300 300 299 299 299 300 297 295 295 294 293 293 295 298 299 299 299 299 299 299 299 299 300
307 306 306 306 307 306 305 304 303 302 303 302 302 302 302 302 301 299 299 299 299 299 299 299 299 297 295 294 294 293 293 293 296 297 298 298 298 299 299 299 299 298
306 305 305 305 305 305 306 304 302 302 302 301 302 302 300 299 298 298 299 299 299 299 298 298 299 296 294 294 294 293 293 293 296 296 297 297 297 298 298 299 299 299
306 306 306 305 304 304 303 302 302 302 301 302 302 301 301 299 299 299 298 298 298 298 298 297 298 295 293 293 292 292 292 295 296 296 296 296 296 297 297 298 298 298
305 305 305 304 304 303 301 302 301 302 302 302 300 299 298 298 297 298 298 297 297 297 297 296 297 296 293 293 292 292 292 294 295 295 295 295 295 296 297 297 298 298
305 303 303 303 303 302 302 303 303 302 301 302 299 298 297 297 297 297 297 297 297 296 296 296 296 296 293 293 292 292 293 294 294 294 294 294 294 295 296 296 297 298
305 304 304 305 303 303 304 302 301 301 301 301 300 298 297 297 297 296 296 296 296 296 297 295 295 295 294 292 292 292 293 294 294 293 292 292 293 293 294 295 296 297
308 306 304 304 304 304 303 302 302 301 300 299 299 298 296 296 296 295 294 294 295 295 295 295 294 294 295 292 292 292 292 293 293 292 291 292 292 293 293 294 295 295

ECMWFNIL_sfc_thetae_009.txt.gz
Theta_e
313 314 312 312 311 313 312 311 311 311 310 309 308 308 308 309 312 309 310 310 311 311 310 310 310 309 311 309 310 311 312 312 313 313 314 314 314 315 316 316 317 321
313 314 314 313 312 312 312 311 310 310 309 309 309 309 309 309 311 310 309 309 311 310 310 309 309 309 309 309 309 309 309 310 309 313 312 312 313 313 314 314 315 317
312 312 312 311 310 309 311 311 310 309 309 309 309 308 310 310 309 309 309 309 308 308 308 308 307 308 308 307 307 307 307 307 307 309 310 310 311 311 312 313 314 315
312 311 311 311 310 309 310 310 309 309 308 308 307 308 309 311 309 309 308 313 308 307 307 307 307 306 306 306 306 306 305 306 307 307 307 308 309 310 310 311 312 313
311 311 310 310 310 310 310 309 309 308 307 308 307 308 308 307 307 307 306 307 306 305 305 305 305 305 305 305 305 304 304 306 305 305 305 306 307 309 310 311 311 312
311 311 310 310 309 310 309 309 309 309 308 307 307 308 306 307 306 306 306 304 305 304 304 304 304 304 304 303 303 303 303 305 304 304 304 304 305 306 307 308 309 310
310 310 309 309 309 309 309 308 308 309 308 307 307 306 305 305 305 305 305 304 303 304 303 302 302 302 302 302 302 302 302 302 302 303 303 304 305 305 306 306 307 308
310 309 309 309 308 308 308 308 307 307 306 306 305 305 305 305 305 304 304 304 302 302 301 301 302 301 301 301 301 301 300 303 303 302 302 303 303 303 304 306 306 306
310 309 309 308 308 307 307 308 307 306 307 305 304 304 305 305 304 304 304 303 302 302 301 300 301 300 300 301 301 300 300 300 302 301 302 302 302 303 304 305 304 304
309 309 308 308 307 307 307 307 307 306 307 306 306 305 305 305 304 303 303 302 302 301 300 300 300 300 300 300 301 300 300 301 301 302 302 302 302 302 303 304 304 304
309 309 308 307 307 307 307 307 306 306 306 305 305 304 304 303 303 304 302 302 301 301 300 299 300 300 300 300 300 301 302 302 303 303 303 303 303 303 304 304 304 304
308 308 307 307 307 306 306 306 306 306 305 305 305 303 302 302 302 301 302 301 300 300 300 300 300 300 300 300 301 302 303 304 304 303 304 303 303 303 303 304 304 304
308 308 307 307 307 306 307 306 306 305 304 303 303 302 301 301 300 300 300 300 300 300 300 300 300 301 301 301 302 302 302 302 302 303 303 303 303 303 303 303 303 304
308 308 307 307 307 306 306 306 305 304 303 302 303 300 300 300 299 299 298 300 299 300 300 300 300 299 299 300 301 301 301 301 301 301 301 302 303 303 303 303 303 303
308 307 307 307 307 306 305 304 303 302 302 301 300 300 301 300 299 299 298 298 298 299 298 299 300 301 302 302 302 302 303 302 302 302 302 302 302 302 303 303 303 303
308 307 307 306 305 304 303 302 302 301 300 299 299 299 298 299 298 298 298 298 297 297 297 298 299 299 301 299 298 300 300 300 301 301 301 301 301 301 301 301 302 302
307 306 305 305 303 302 301 301 301 301 299 299 299 298 298 297 298 297 296 296 296 296 295 297 298 299 297 294 294 295 297 298 298 298 298 298 299 299 299 300 300 301
305 304 303 303 302 301 301 301 300 299 298 297 297 297 297 297 297 296 295 295 296 295 294 295 296 298 295 295 294 294 295 297 296 296 296 296 296 297 297 298 298 299
304 303 302 302 301 301 301 300 299 297 296 296 296 296 296 296 295 295 295 294 295 294 293 295 295 296 294 294 294 294 294 295 295 295 295 295 295 295 296 296 297 297
303 302 301 300 300 300 299 298 296 295 294 295 296 296 295 294 294 294 293 293 293 293 294 294 295 296 294 294 294 293 293 293 296 296 296 296 295 295 295 295 295 296
302 301 299 299 299 298 297 295 295 293 294 294 295 293 292 293 293 292 292 294 292 292 292 294 296 295 293 293 293 292 292 292 294 295 295 295 295 295 295 295 295 296
301 299 299 298 297 296 295 294 294 294 294 294 293 291 292 291 291 292 292 291 292 291 292 292 293 293 292 292 292 291 292 293 294 293 293 293 293 293 294 295 295 296
300 299 298 297 296 295 294 294 293 294 293 292 290 290 290 290 290 291 291 290 290 291 291 292 292 293 292 292 292 292 292 293 292 292 291 291 291 292 293 293 294 294
300 299 297 297 295 295 294 293 293 292 292 292 291 289 289 290 291 290 290 290 290 291 292 292 292 293 293 292 292 291 292 291 291 290 290 290 291 292 292 292 293 296
299 298 296 295 294 293 293 292 292 292 291 291 290 289 289 289 291 289 289 289 290 291 296 294 292 293 293 291 291 291 292 291 291 290 289 289 290 290 291 291 292 294
298 297 295 295 294 293 292 293 292 291 290 290 289 289 288 288 289 288 288 289 290 291 292 292 292 292 293 292 292 291 292 292 291 289 289 289 290 290 290 291 292 292

ECMWFNIL_sfc_thetae_012.txt.gz
Theta_e
310 310 309 309 309 308 310 308 308 309 308 307 306 307 307 307 308 307 307 306 306 306 307 307 307 306 308 306 306 307 307 307 307 306 306 307 306 307 309 309 310 310
310 311 311 310 309 310 310 310 309 308 308 307 306 306 305 306 307 306 306 306 308 306 306 306 307 308 306 306 306 306 305 305 304 309 306 305 305 305 305 306 307 309
310 311 310 310 309 309 309 309 309 308 308 307 306 307 308 307 306 305 305 304 306 306 306 306 306 306 306 305 304 304 304 303 304 304 305 304 305 305 305 305 306 307
310 311 311 310 310 309 309 309 307 308 307 307 307 308 309 308 305 305 306 313 304 305 304 305 305 304 304 304 303 303 303 303 303 303 304 303 304 305 305 305 306 306
310 310 311 310 310 309 309 309 308 307 307 307 306 306 309 306 303 304 303 304 303 303 303 304 303 302 303 302 302 302 302 302 302 302 302 302 303 304 304 305 304 304
310 311 310 310 309 308 308 308 308 307 307 305 306 308 304 304 304 303 303 302 302 302 302 301 301 301 301 301 300 301 301 302 301 301 301 301 302 302 304 304 303 303
310 309 309 309 308 308 308 307 307 308 307 306 305 305 304 304 303 303 302 303 302 303 302 301 300 300 300 300 300 300 299 300 300 300 300 300 301 302 302 302 302 302
310 309 309 308 307 307 307 307 307 306 306 305 305 304 304 304 303 302 302 302 301 301 301 300 300 299 299 299 299 298 298 301 301 299 299 300 300 300 300 302 301 301
310 309 308 307 307 306 306 306 306 305 306 305 304 303 303 303 303 301 302 301 300 300 299 298 299 298 298 298 298 298 298 298 300 299 299 299 299 299 300 301 301 301
309 308 307 307 306 306 306 306 306 305 306 304 304 302 303 302 301 301 301 300 300 299 299 298 298 298 298 298 298 298 298 298 298 298 299 299 300 300 301 301 302 301
309 308 307 306 306 305 305 305 305 305 305 304 303 302 302 301 302 301 299 299 299 298 298 297 297 297 297 297 298 298 298 299 299 299 300 300 301 302 304 303 303 303
308 307 307 306 306 305 305 305 305 304 304 303 303 303 300 300 299 298 300 297 297 297 297 297 297 297 297 297 298 298 298 299 299 300 301 301 301 301 302 302 302 302
308 308 307 306 306 305 305 305 305 304 304 303 303 302 300 298 297 297 299 298 297 297 297 297 297 297 297 297 297 297 297 297 298 298 299 300 301 301 302 302 302 302
309 308 307 306 306 305 305 305 304 303 303 302 301 299 298 297 296 297 296 297 296 296 297 297 297 297 296 296 297 297 297 297 297 298 299 300 301 302 302 303 303 303
308 307 306 306 306 305 304 304 303 303 302 301 300 298 299 296 296 297 296 296 296 296 296 297 297 297 297 297 296 296 296 296 296 296 296 297 298 299 299 300 301 301
307 306 306 305 305 304 304 303 302 301 300 299 298 297 297 297 296 296 296 295 295 295 294 296 295 296 299 299 298 297 295 296 296 295 295 295 296 295 296 297 298 299
305 305 305 305 304 304 302 302 301 300 299 297 296 296 296 296 297 295 295 293 294 294 293 294 295 296 297 294 294 295 296 295 294 294 294 294 294 294 294 295 295 296
307 306 305 304 304 303 302 301 300 299 297 295 295 295 295 295 295 294 292 293 293 293 292 293 294 297 294 294 294 293 295 296 295 294 294 294 294 293 294 294 294 294
306 306 304 303 303 302 301 300 299 297 295 294 294 294 294 294 291 291 292 292 293 292 291 292 292 295 293 294 293 293 293 294 294 294 294 294 294 294 293 294 294 294
306 305 303 303 302 301 300 299 297 297 295 294 294 293 291 291 290 290 290 291 291 292 291 291 292 294 293 293 293 292 292 292 293 293 293 294 294 294 294 294 294 293
304 304 303 302 301 301 299 298 297 293 293 292 293 291 291 291 290 289 290 292 290 290 289 290 292 293 292 292 292 292 292 292 292 293 292 292 293 293 293 293 292 293
303 302 301 300 300 299 298 296 294 293 293 293 291 290 290 290 288 289 289 288 288 287 288 288 290 292 292 292 292 291 292 292 291 291 291 291 291 291 291 291 292 292
302 301 300 298 297 296 295 294 293 292 292 292 291 290 289 288 288 288 288 288 288 289 288 289 289 291 291 292 291 291 291 291 290 290 290 289 290 290 290 290 291 291
302 301 300 298 296 295 293 293 292 292 292 292 291 289 288 288 287 287 287 288 288 289 289 289 289 291 292 292 292 291 292 291 290 289 289 289 289 289 289 290 291 294
301 300 298 296 295 294 294 293 292 293 292 290 289 289 288 287 290 286 287 286 287 288 294 292 290 292 292 291 291 291 292 291 290 289 289 288 288 288 289 289 289 292
300 299 298 297 295 293 293 293 292 291 290 290 288 288 288 285 288 287 286 287 287 287 289 289 289 290 291 291 291 291 291 291 290 289 288 288 288 289 288 289 289 290

ECMWFNIL_sfc_thetae_015.txt.gz
Theta_e
309 309 309 309 308 307 307 306 306 307 307 305 305 305 306 306 307 306 305 304 305 305 304 303 305 304 306 304 305 304 306 305 305 303 303 304 303 302 304 303 303 304
308 309 310 309 308 308 308 307 307 308 307 306 306 304 303 305 305 305 304 305 306 302 303 304 305 304 303 303 303 303 303 302 301 308 303 302 302 302 302 302 303 303
308 308 308 308 308 307 307 307 307 307 307 306 304 304 305 305 305 302 303 303 303 303 302 302 302 303 303 302 302 302 301 301 301 301 304 302 302 301 302 302 302 302
308 309 309 309 308 308 307 307 306 306 304 305 305 306 307 308 305 303 304 309 302 303 301 302 303 302 302 302 302 301 301 300 301 301 301 301 302 302 301 301 303 302
308 308 308 308 308 308 308 307 307 306 306 306 304 305 308 306 303 303 303 301 300 301 302 302 301 300 302 301 301 300 301 301 300 300 300 299 299 301 301 302 301 300
309 309 309 309 308 308 308 307 307 307 306 304 305 307 305 304 303 302 302 300 300 301 301 300 300 300 299 299 298 298 298 300 299 299 299 299 298 299 301 301 300 299
309 308 308 309 308 308 308 307 307 307 306 307 305 305 304 303 303 302 300 301 300 302 301 300 299 299 298 298 297 298 297 297 297 298 298 298 299 299 299 299 299 299
309 309 309 308 308 307 308 307 307 306 306 305 306 305 304 304 303 301 300 300 300 299 299 299 299 298 297 297 297 297 296 298 298 297 297 297 297 298 298 300 298 298
309 309 308 308 308 307 307 307 306 306 306 305 305 304 303 304 303 302 302 299 299 299 298 298 297 297 296 297 296 296 296 296 297 296 297 298 298 298 298 298 298 299
308 308 307 307 307 307 306 306 306 305 306 305 305 303 303 303 302 302 300 299 299 298 297 297 297 296 296 296 296 296 296 296 296 296 296 297 297 298 298 298 299 298
308 308 307 307 307 306 306 305 305 305 305 305 303 303 303 302 300 299 299 298 299 297 296 295 295 295 296 296 295 296 296 296 295 296 296 297 298 298 301 300 300 300
309 307 307 307 307 306 305 305 305 305 304 304 304 303 301 301 301 299 300 297 296 296 296 295 294 294 294 295 295 296 296 295 295 296 297 297 297 298 298 299 299 299
309 308 308 307 307 305 305 305 305 304 304 303 303 302 301 299 298 298 298 297 296 296 296 296 295 295 294 294 294 294 294 295 294 294 295 295 296 297 297 298 299 299
310 310 308 307 306 305 305 304 304 304 304 303 302 300 300 299 298 297 297 296 296 296 295 295 294 294 293 293 293 293 294 294 294 295 296 295 296 296 297 297 297 298
308 305 305 305 305 304 304 304 303 303 302 302 302 300 300 298 297 296 296 294 293 294 295 295 294 295 294 294 294 293 293 293 294 294 295 295 294 294 295 295 296 296
304 303 303 304 305 304 304 304 303 302 301 300 300 299 298 297 296 295 294 294 294 292 292 294 293 293 299 298 297 295 293 294 294 294 294 293 294 294 294 294 295 295
305 304 304 303 303 303 302 303 303 302 301 299 298 297 297 297 295 293 292 293 293 292 291 292 293 294 296 293 293 294 294 292 293 293 293 293 293 292 292 293 293 294
306 306 305 305 304 304 304 303 303 301 299 297 296 295 295 294 293 292 292 292 292 291 290 292 292 296 293 293 293 292 294 294 292 292 292 292 292 292 292 292 292 293
305 305 306 306 305 304 303 303 302 301 298 296 296 296 293 293 292 293 292 291 291 290 290 291 291 294 293 293 292 292 292 293 291 291 291 291 291 291 291 291 292 292
305 305 305 304 304 303 302 301 300 299 297 297 296 294 292 292 292 292 291 291 290 290 289 289 289 293 292 292 292 292 291 291 291 291 291 291 291 291 291 291 291 291
305 304 303 302 302 302 301 301 300 297 296 295 295 293 292 291 291 291 290 291 290 288 287 288 290 293 292 291 291 291 291 291 290 291 290 290 290 290 291 291 291 291
305 302 301 302 302 301 301 299 297 296 294 293 291 290 290 291 289 290 290 289 288 287 288 287 288 291 290 291 291 291 291 291 290 289 289 289 289 290 290 290 290 290
304 302 302 302 302 301 298 296 294 293 293 293 291 290 290 290 290 289 290 288 287 287 286 286 286 289 290 290 291 291 291 290 289 289 289 288 288 289 289 289 290 290
303 302 301 301 300 298 296 294 293 293 292 293 292 290 290 291 290 290 288 288 287 286 287 286 286 289 291 291 291 291 291 289 289 288 288 288 288 288 289 289 290 293
302 302 301 299 298 296 294 293 293 293 293 292 291 291 292 290 291 290 288 287 287 287 293 290 287 289 291 290 290 290 291 289 288 287 287 287 287 287 288 288 289 291
301 301 299 297 295 294 294 293 293 292 290 290 289 290 290 289 291 289 288 288 287 287 287 287 286 286 289 290 290 290 290 290 288 287 286 286 287 287 288 288 289 289

ECMWFNIL_sfc_thetae_018.txt.gz
Theta_e
307 308 308 307 307 307 307 307 306 307 306 305 306 306 307 307 307 307 307 307 307 307 307 308 308 308 307 306 306 307 307 307 307 305 306 306 305 305 305 305 305 306
307 308 310 309 307 307 306 307 307 307 307 306 306 306 305 307 306 307 307 306 308 305 305 306 306 305 305 305 305 305 304 303 304 308 304 304 304 303 304 304 305 305
307 307 308 308 308 307 306 306 306 307 307 307 306 305 305 306 306 305 307 307 306 305 305 304 304 305 304 304 304 304 303 302 303 305 306 304 304 304 304 304 304 304
307 308 308 309 308 308 307 306 305 306 305 306 305 306 306 307 306 305 306 310 305 305 304 303 304 304 304 303 303 303 302 303 303 303 305 304 303 304 303 304 306 304
308 307 308 308 308 308 307 306 306 306 306 307 305 305 308 307 304 305 306 304 304 304 303 303 302 303 303 302 302 301 303 303 302 301 301 302 301 304 304 305 303 303
308 308 308 308 308 307 306 306 307 306 306 305 305 307 306 306 305 305 306 304 303 303 302 301 302 301 301 300 300 300 300 300 301 300 300 301 301 301 302 303 302 302
308 308 308 308 308 307 307 307 307 307 307 307 306 306 305 305 305 305 304 304 302 304 302 301 300 300 300 299 300 298 299 299 299 300 300 299 303 301 301 301 302 301
309 309 309 308 308 307 307 307 307 307 307 306 306 306 305 305 305 304 304 302 302 302 300 300 299 299 298 299 299 298 298 300 299 299 299 299 299 299 300 300 301 300
309 309 309 308 308 307 307 307 307 306 306 306 306 305 305 305 304 304 303 302 302 300 299 298 299 298 298 298 298 298 298 297 299 298 299 299 298 299 299 300 299 300
309 310 308 308 308 308 307 307 307 306 306 306 306 304 304 304 303 303 302 301 301 300 298 298 298 298 298 298 298 298 298 298 297 298 298 298 298 299 299 299 300 299
309 309 308 308 308 308 307 307 306 306 306 306 304 304 304 303 303 302 301 301 301 299 298 298 298 297 297 297 297 297 298 298 297 297 298 298 299 299 301 301 300 300
310 309 308 308 308 307 307 306 306 306 306 305 305 304 303 303 302 301 302 300 299 298 298 298 297 297 297 297 297 298 297 297 298 298 299 298 298 299 298 299 300 299
309 309 308 307 307 308 308 307 306 306 306 305 305 304 303 302 301 301 301 300 298 298 298 298 297 297 296 296 296 296 296 297 296 296 297 297 298 298 298 298 299 299
309 309 308 308 308 307 306 306 306 305 305 305 304 303 303 302 301 301 299 299 298 298 297 298 296 296 295 295 296 296 297 296 296 297 297 296 297 297 297 297 297 298
309 309 309 308 308 306 305 303 303 303 303 304 303 303 303 302 301 299 298 297 296 296 297 297 297 296 296 296 296 295 295 295 295 295 295 295 295 295 296 296 296 297
309 308 308 308 306 304 303 302 303 304 304 304 303 303 302 300 299 298 298 297 296 295 296 296 296 296 300 297 298 298 295 294 295 295 294 294 294 294 294 295 295 296
307 308 307 306 304 304 303 303 304 305 304 303 301 301 300 299 298 297 296 296 296 296 295 295 295 296 296 293 293 294 295 294 294 294 293 293 293 293 293 294 294 295
306 305 304 304 303 304 304 304 304 304 303 302 301 299 299 299 298 297 295 295 295 294 294 295 294 297 293 292 292 292 294 296 293 293 293 292 292 292 292 293 293 293
305 304 303 303 303 304 305 305 304 304 302 301 300 300 298 297 296 296 295 295 294 293 293 295 294 295 292 292 292 292 292 293 292 292 292 292 292 292 292 292 292 292
305 304 303 302 303 304 304 305 304 303 302 302 300 298 297 296 295 295 294 294 294 294 294 294 293 294 292 292 292 291 290 291 292 291 291 291 291 291 291 292 292 292
304 303 303 302 302 303 303 303 303 302 301 300 299 297 296 295 294 294 294 294 294 293 292 292 292 293 291 291 291 291 290 291 291 291 291 291 291 291 291 291 291 291
303 303 302 301 301 302 302 302 302 301 299 298 297 296 296 295 293 294 293 292 292 291 291 291 290 290 290 290 290 290 290 292 290 290 289 290 290 290 290 291 291 291
303 303 301 301 301 301 301 301 300 298 296 297 295 294 293 293 292 293 293 292 291 290 290 290 288 290 290 290 290 290 290 290 289 289 289 288 288 289 290 290 290 291
302 302 301 300 300 300 300 300 298 296 296 296 295 293 293 293 293 292 291 291 291 290 290 289 289 289 291 290 290 290 290 289 289 288 287 288 288 289 289 289 290 292
302 302 301 301 300 299 298 296 295 295 295 295 295 294 293 292 293 292 290 290 290 289 294 290 288 290 291 289 290 289 291 290 289 288 287 287 287 287 288 288 289 290
301 301 301 300 299 296 296 295 294 293 293 293 293 293 292 291 292 291 291 290 291 292 293 290 288 287 290 289 290 290 290 290 289 287 287 287 287 287 287 288 289 289

ECMWFNIL_sfc_thetae_021.txt.gz
Theta_e
320 321 322 321 321 322 322 321 321 321 321 321 320 321 320 322 322 322 322 322 320 319 318 318 317 317 316 316 315 313 313 314 313 313 312 311 311 310 309 309 310 309
319 321 321 322 322 321 321 322 322 321 321 321 321 322 323 323 322 322 321 320 320 319 318 318 317 316 315 313 314 313 312 313 312 313 312 311 311 311 310 310 310 310
319 319 320 321 321 321 321 321 322 322 322 321 322 322 321 323 322 322 321 320 319 318 318 317 316 315 314 313 313 312 312 311 311 312 311 310 310 310 310 310 310 309
319 319 320 321 322 322 322 320 320 321 322 320 319 320 321 321 322 321 321 320 319 318 318 317 316 315 314 313 313 312 312 311 311 312 311 311 310 310 310 310 309 309
319 319 319 320 321 322 322 320 319 320 320 320 321 320 319 320 320 320 320 319 319 318 317 316 316 315 315 313 312 311 312 310 312 312 310 309 310 310 310 309 309 308
319 318 318 318 320 321 320 319 320 319 319 320 320 319 320 320 320 319 319 318 318 317 316 315 315 314 314 313 313 312 311 310 311 311 309 308 309 309 308 309 308 307
319 319 318 318 319 320 320 321 321 320 319 320 319 319 320 319 319 319 318 317 317 315 314 314 314 313 314 313 312 311 311 310 310 309 307 308 308 308 308 307 306 305
318 319 319 319 319 319 319 319 320 320 320 318 318 319 319 319 318 319 318 317 315 314 313 313 313 312 312 312 310 310 310 311 310 308 307 307 307 305 306 307 307 305
319 319 319 319 319 319 319 319 319 320 319 318 318 318 318 319 318 318 317 316 315 314 313 312 312 311 312 311 310 309 308 309 309 307 307 306 306 305 304 305 305 305
320 320 319 319 318 319 319 319 319 319 318 318 318 318 316 318 318 317 316 316 314 313 312 312 311 311 310 310 309 308 308 307 307 307 307 306 305 304 304 304 304 303
321 321 320 318 318 318 319 319 319 319 318 317 318 317 317 317 317 317 316 315 314 312 312 311 311 310 309 309 309 309 308 307 307 306 306 305 305 304 303 304 303 303
321 320 320 319 319 319 319 319 319 318 318 317 317 316 316 316 316 315 315 314 313 312 312 311 310 310 309 308 308 308 308 307 306 305 305 304 304 304 303 303 303 302
320 321 321 320 320 319 319 319 318 318 317 316 316 315 315 314 315 314 315 314 313 313 311 310 309 309 309 308 308 307 306 305 305 305 304 305 303 302 302 302 302 302
320 321 322 322 320 319 318 319 318 317 316 315 314 313 312 312 313 313 314 314 313 312 311 310 309 309 308 308 307 306 306 305 304 304 303 302 302 301 301 300 300 300
320 320 321 321 320 319 317 316 315 314 314 313 313 313 314 313 313 312 311 311 311 311 310 310 309 308 308 307 306 305 305 304 303 301 300 300 299 299 299 299 299 300
315 318 319 320 319 318 316 316 314 313 313 313 313 313 311 311 308 310 310 308 308 307 306 307 308 308 304 299 301 304 303 301 300 300 299 299 298 298 298 299 299 299
313 314 316 317 318 318 316 315 314 313 313 313 312 311 309 308 309 307 307 306 306 306 306 306 307 305 295 294 295 297 300 300 299 299 298 298 298 297 297 297 298 298
311 312 313 315 317 316 315 314 314 313 313 313 312 309 309 309 308 307 307 307 306 306 305 305 305 298 293 293 293 294 296 299 299 298 298 297 297 297 297 297 297 298
310 311 312 313 314 315 315 314 313 313 313 313 311 311 310 308 307 307 305 305 305 305 304 304 303 294 293 293 292 292 293 297 298 298 297 297 297 297 297 297 297 297
309 310 310 312 313 314 314 314 313 312 313 314 312 311 308 308 309 307 305 304 304 304 304 303 303 295 292 292 292 291 290 293 297 297 297 296 296 296 297 297 296 296
309 309 310 311 312 312 312 312 313 313 313 312 311 309 306 307 307 306 305 305 304 304 303 303 303 292 291 291 291 291 289 292 298 297 297 297 297 297 296 296 296 296
308 309 310 310 311 311 310 311 312 313 312 312 310 309 307 305 305 304 303 304 304 303 302 301 299 291 291 291 290 290 290 297 297 297 296 296 296 296 296 296 296 296
308 308 308 309 310 310 310 310 311 312 312 311 309 307 306 304 303 303 302 301 301 302 301 299 298 293 290 290 290 289 292 297 296 295 295 295 295 295 295 295 296 296
307 308 307 308 309 309 309 310 311 312 312 309 308 305 303 302 301 301 301 300 300 300 300 298 298 294 290 290 290 289 292 295 295 294 294 294 294 295 295 295 295 294
307 307 307 308 308 309 309 310 310 310 309 306 305 304 302 300 298 297 297 299 299 298 298 298 296 294 290 290 290 289 293 296 295 294 293 293 294 293 295 295 295 295
307 307 307 308 308 308 309 309 309 305 304 303 301 299 297 297 298 297 296 295 297 298 298 297 296 295 295 289 290 290 290 294 295 293 292 292 293 293 293 294 294 294

ECMWFNIL_sfc_thetae_024.txt.gz
Theta_e
327 327 326 322 321 321 324 322 322 323 321 319 320 320 320 323 324 324 324 324 324 323 321 321 320 319 319 319 319 317 318 319 318 318 318 317 316 316 315 315 315 314
328 328 325 325 323 322 324 324 324 323 322 321 321 321 322 323 325 324 325 324 324 323 322 321 320 319 319 318 318 318 317 318 317 317 317 317 316 316 316 315 315 315
328 328 327 325 324 325 326 327 326 325 322 323 323 322 323 325 324 324 325 325 323 323 322 321 319 318 318 318 318 318 317 317 317 318 317 316 316 316 316 316 315 314
329 329 328 327 326 327 329 327 326 326 325 325 323 323 325 325 324 324 325 324 324 323 323 321 319 318 318 317 317 317 317 317 316 317 317 316 316 316 315 315 315 315
329 328 328 328 327 327 329 327 326 325 325 325 326 325 324 323 323 323 324 323 324 323 322 320 319 319 318 317 317 317 316 315 316 317 316 315 316 316 315 315 314 314
328 327 327 326 327 328 327 327 326 326 325 326 327 326 323 323 322 322 323 323 323 322 321 320 318 318 318 318 317 317 316 316 315 315 314 314 314 315 313 314 313 312
326 327 327 327 327 327 328 327 327 326 326 327 327 326 324 323 321 322 322 322 322 321 320 320 318 318 318 318 316 316 315 316 315 314 313 313 314 313 312 312 311 310
325 326 326 326 327 327 327 326 327 326 327 327 326 327 325 324 321 322 322 322 321 321 320 319 318 317 317 317 316 315 315 315 315 314 313 313 312 311 312 311 311 310
325 324 325 326 326 325 326 326 326 327 327 327 326 326 326 325 323 323 322 322 321 321 320 319 318 317 317 316 316 315 314 315 315 313 313 312 311 311 309 310 310 310
325 325 325 326 325 325 325 326 326 326 327 327 325 325 325 325 324 323 322 322 321 320 320 318 317 317 316 316 315 315 314 313 313 313 312 312 311 310 309 309 310 309
326 326 326 325 326 325 326 326 327 326 326 325 325 324 325 325 323 323 323 322 321 320 319 318 317 317 316 315 316 315 314 314 313 312 312 311 311 310 310 309 309 308
326 325 325 325 326 325 325 326 327 327 326 326 325 324 324 323 322 321 321 320 320 320 319 318 318 317 316 315 315 315 314 314 313 312 311 310 310 309 309 309 308 307
325 325 326 326 326 326 326 326 326 326 326 326 326 325 324 322 321 319 320 319 319 320 319 318 317 317 316 316 315 314 313 313 312 311 311 310 310 308 308 307 306 305
319 324 325 325 325 326 325 325 325 325 325 326 325 324 323 322 321 319 320 319 320 318 318 318 317 316 316 315 315 314 313 312 311 311 310 310 309 307 307 306 305 304
316 318 320 321 322 324 324 324 325 325 325 324 323 324 324 323 322 320 320 319 319 319 317 316 316 316 314 315 312 312 313 312 311 310 309 308 307 306 305 305 304 304
312 314 315 316 317 319 321 323 323 324 324 323 323 322 322 322 322 322 320 319 319 318 317 316 315 315 310 304 305 312 312 310 310 309 307 306 305 304 304 304 304 304
311 312 313 313 315 317 319 319 321 323 322 322 321 321 321 321 321 321 320 320 318 318 317 316 314 312 299 297 298 300 309 309 307 306 305 305 304 303 303 303 304 303
309 310 311 312 313 313 316 318 319 321 322 322 322 321 321 321 320 319 319 319 318 318 317 315 314 299 295 294 295 295 299 306 306 305 304 303 303 303 303 303 302 302
310 310 310 311 312 314 315 318 318 319 319 320 321 322 321 320 320 319 319 319 318 316 315 314 311 294 293 293 293 293 294 300 304 304 303 302 302 302 302 302 301 301
310 310 310 311 312 314 315 315 316 317 319 320 321 321 320 319 320 319 319 318 317 315 313 311 304 294 292 292 292 291 291 296 304 302 302 301 301 301 301 301 301 301
310 310 311 311 312 313 315 314 315 316 317 318 319 319 318 317 317 318 318 317 316 314 312 308 301 292 292 291 291 291 289 294 303 302 301 302 302 301 301 301 301 301
311 310 310 311 311 313 313 314 315 315 316 318 318 318 318 317 317 318 317 315 314 311 309 303 297 291 291 291 291 290 289 300 302 302 301 301 301 301 300 300 301 301
310 310 310 310 311 311 311 313 314 315 316 317 316 316 315 315 316 317 316 313 310 308 303 298 296 292 291 290 290 289 293 302 302 301 301 300 300 300 300 301 301 301
310 310 310 310 310 310 311 312 314 315 316 316 315 314 313 314 316 315 313 309 306 303 299 296 295 292 290 290 290 289 294 300 300 300 299 299 299 300 301 300 301 299
310 310 310 310 310 310 311 312 313 314 314 315 314 314 313 315 315 313 309 306 302 299 298 297 295 293 290 290 290 289 294 299 298 297 297 297 298 298 300 300 300 299
310 310 310 310 310 310 311 311 313 313 313 313 313 313 313 313 311 308 303 301 300 298 298 296 294 294 293 289 290 289 290 297 296 295 295 296 297 297 297 298 299 300

ECMWFNIL_sfc_thetae_030.txt.gz
Theta_e
327 327 327 326 327 326 326 326 326 325 325 327 324 323 322 325 323 324 326 325 327 323 323 323 323 323 324 323 323 318 318 321 320 321 319 318 317 317 317 316 315 316
327 328 325 326 326 326 327 329 328 326 326 329 327 325 324 325 323 323 326 325 325 323 323 323 323 323 322 321 321 321 319 321 318 319 319 318 317 317 317 316 315 316
328 328 326 326 324 327 327 328 331 330 327 329 330 327 326 326 323 324 325 324 323 323 323 322 322 322 323 321 320 322 319 319 319 320 320 319 320 318 317 319 316 316
329 329 328 328 327 328 329 326 330 331 331 327 328 330 327 326 325 324 325 325 324 323 322 322 321 320 320 320 320 321 319 319 319 320 319 318 320 318 317 317 316 314
329 329 331 331 331 332 329 327 327 329 329 329 327 328 327 325 325 323 324 324 324 323 322 321 321 320 321 319 318 320 317 319 319 318 318 317 318 317 318 318 315 316
329 328 328 330 332 332 330 328 329 330 330 330 327 325 325 326 324 323 323 323 322 322 323 321 320 319 319 320 318 319 315 317 316 316 317 316 315 317 315 317 313 313
330 331 331 332 328 329 331 330 327 328 329 329 329 327 325 325 324 323 321 322 322 321 321 321 320 319 319 319 316 318 316 317 316 314 315 315 315 314 316 315 313 314
330 329 332 330 330 330 327 326 327 327 327 328 327 328 327 324 323 324 323 322 321 320 320 321 320 319 318 318 317 316 317 318 318 314 313 313 314 312 312 315 315 311
328 327 328 329 327 326 326 326 327 326 326 327 328 326 325 324 323 324 323 321 321 321 320 320 320 319 319 318 317 316 316 316 318 314 313 314 314 313 312 311 312 311
325 327 327 326 325 327 328 325 324 324 324 325 325 325 322 324 324 323 322 321 320 320 320 320 320 321 320 318 317 316 316 316 316 315 315 314 314 312 311 312 311 311
324 326 326 327 326 325 327 329 327 327 327 325 325 324 324 324 324 323 321 320 321 320 320 320 320 320 319 318 318 318 317 316 316 314 314 314 314 313 315 312 312 311
327 326 324 322 322 322 320 320 322 324 324 329 329 324 322 324 323 323 321 320 320 320 320 319 320 320 319 318 318 318 317 317 316 315 315 314 314 314 312 313 311 311
325 326 325 323 322 321 321 323 323 323 321 322 324 324 324 323 322 321 323 321 321 321 321 320 320 321 321 319 318 318 317 316 317 316 315 315 314 313 313 312 311 311
323 326 324 324 323 323 323 322 322 320 319 320 323 322 323 322 319 320 320 321 321 321 322 321 322 321 321 319 319 318 317 316 316 316 314 314 314 313 313 311 311 311
320 322 323 324 323 323 323 322 320 320 321 321 321 321 321 321 322 321 320 319 320 320 320 322 321 319 319 319 320 319 319 317 316 315 315 313 313 313 312 311 310 310
317 318 319 320 320 320 322 325 323 322 322 321 320 321 320 321 321 320 320 320 319 319 319 321 318 319 316 310 309 317 318 317 317 316 315 313 311 311 311 310 310 309
317 317 319 317 317 318 319 317 317 322 323 322 322 322 321 321 320 320 320 319 318 319 319 320 320 318 308 304 301 300 311 318 316 315 314 313 312 310 309 308 308 307
315 315 315 315 316 315 316 317 318 316 317 320 323 322 322 323 322 321 321 320 321 321 320 320 320 312 306 303 301 302 306 317 315 314 313 312 311 310 308 307 306 307
314 312 314 315 316 316 317 316 314 316 317 315 315 322 320 319 319 319 320 321 320 319 319 320 321 306 303 301 298 299 301 309 314 314 312 310 309 308 307 307 306 307
311 311 311 313 315 315 316 314 314 314 316 317 317 315 316 318 318 318 319 318 318 318 318 319 320 303 299 298 297 297 298 306 312 311 309 309 307 307 307 307 307 305
310 311 314 314 312 311 312 310 312 313 313 313 314 315 315 314 314 316 317 317 318 318 317 318 320 298 297 296 296 296 298 304 311 309 307 308 307 307 307 307 307 308
309 312 315 314 314 314 312 311 313 314 314 315 314 314 313 313 313 315 315 316 317 316 317 312 302 294 294 294 295 295 298 305 305 305 304 304 305 305 307 307 307 306
308 308 312 312 312 310 310 311 311 312 313 315 313 313 313 313 312 312 314 314 314 316 312 302 300 294 292 293 294 296 300 304 304 302 303 304 304 305 305 305 306 304
308 307 308 311 311 309 310 312 313 313 312 314 312 311 311 312 313 312 313 313 313 313 305 302 297 293 291 292 293 295 300 303 303 303 304 302 303 305 305 304 304 308
307 308 308 308 308 308 311 310 311 311 311 313 312 312 311 312 311 310 310 305 305 303 301 298 294 292 291 290 291 292 299 304 303 302 301 301 299 299 301 302 302 303
308 308 308 308 307 309 311 311 312 312 312 311 312 311 310 311 311 307 305 303 301 301 299 296 294 293 292 290 291 292 294 298 298 297 295 296 297 297 297 297 297 297

ECMWFNIL_sfc_thetae_033.txt.gz
Theta_e
318 316 318 316 317 317 317 315 315 316 315 314 313 313 315 315 317 316 314 315 313 312 313 313 312 312 315 313 314 314 315 313 313 312 311 311 309 309 311 309 307 309
318 318 319 317 317 318 317 317 316 317 316 315 315 314 316 316 315 317 316 316 315 313 313 312 312 313 313 312 313 313 313 311 311 316 310 310 309 309 307 307 307 308
318 317 318 317 317 317 316 318 317 316 317 317 316 315 317 316 315 316 317 316 315 314 314 313 313 313 313 313 312 312 311 309 309 311 312 311 310 309 310 309 309 308
318 317 317 316 318 318 317 318 318 316 317 318 317 317 318 317 315 316 317 322 315 314 314 313 313 313 313 312 311 312 311 311 312 311 309 310 310 310 309 309 308 308
320 319 319 317 318 320 317 317 318 317 317 315 319 318 318 316 314 316 317 317 316 315 314 314 313 311 312 311 311 311 310 311 312 310 309 308 310 309 309 308 308 309
322 322 321 320 319 320 317 317 317 319 318 315 316 318 318 317 315 316 317 316 316 316 315 314 313 312 311 311 309 310 310 312 310 310 310 309 310 309 313 310 307 306
322 321 321 320 319 320 319 318 317 317 318 318 317 316 318 318 316 316 316 317 316 316 316 314 313 312 312 311 309 310 309 310 309 309 310 310 309 308 310 308 307 307
322 322 321 320 318 319 318 318 317 317 317 317 317 318 317 318 318 317 316 317 316 315 315 315 314 313 312 311 310 309 309 311 310 308 308 309 308 307 307 311 307 306
321 320 322 321 320 320 318 317 318 317 317 316 317 318 318 318 317 317 316 316 317 316 314 315 315 314 313 312 311 310 310 310 311 307 307 307 307 307 307 307 307 305
319 319 318 318 317 317 320 320 319 317 318 317 319 320 318 318 318 318 316 317 318 317 316 316 316 315 314 313 313 311 311 311 311 309 308 307 308 308 307 307 305 304
315 317 319 319 319 318 316 316 316 317 318 317 316 318 320 319 318 317 316 318 318 318 318 317 317 318 317 317 314 313 312 312 312 311 310 309 309 309 311 307 306 305
316 316 317 317 317 315 313 314 314 315 316 318 318 317 317 318 318 316 317 317 318 318 318 318 318 318 318 318 317 315 313 312 312 312 311 310 309 309 309 308 307 306
317 317 316 315 315 314 314 315 315 315 316 317 318 318 316 316 314 316 316 317 318 318 319 319 319 318 318 317 318 317 314 313 312 311 311 310 309 310 309 308 308 307
317 319 318 317 315 313 314 315 315 315 315 315 316 317 316 315 315 316 316 316 316 317 317 317 317 317 317 317 318 318 317 314 313 312 312 311 310 309 308 307 308 307
314 315 314 315 315 314 313 314 313 312 312 313 313 313 315 315 315 315 315 315 315 315 315 315 316 316 317 317 317 317 316 314 314 313 312 311 310 310 308 307 307 306
305 309 312 313 312 313 314 314 313 312 311 311 313 313 314 313 313 314 315 315 315 314 314 314 315 316 315 309 310 316 315 316 314 312 312 311 310 309 308 308 306 305
302 304 306 305 304 306 311 314 314 314 312 313 311 312 313 312 313 312 313 314 315 314 313 314 316 316 307 303 301 302 312 313 312 312 312 311 309 308 307 306 306 306
303 302 302 304 305 304 306 306 308 311 313 313 312 311 313 311 312 314 314 313 314 314 314 315 315 310 303 302 301 300 303 312 312 313 311 309 309 308 306 305 304 305
302 302 303 303 305 306 306 305 304 304 304 306 309 313 311 311 313 313 313 313 313 312 313 314 314 307 302 301 301 299 298 305 312 312 310 309 309 308 306 304 303 304
301 301 301 302 303 304 305 304 304 304 306 307 307 307 306 306 307 310 311 310 312 313 313 313 313 308 302 301 300 298 297 302 308 309 308 308 307 307 306 304 304 304
302 302 302 303 303 302 301 301 301 301 301 302 303 305 304 304 305 304 304 306 307 308 309 308 310 304 300 300 299 297 297 302 306 306 305 304 304 304 304 303 303 303
301 300 302 303 303 303 303 303 302 302 302 303 303 303 304 304 304 303 302 302 304 305 307 299 297 296 298 298 296 294 299 304 304 303 303 302 300 300 301 302 302 301
300 300 300 301 301 302 302 302 302 301 302 303 303 301 302 302 302 303 302 302 302 303 299 295 292 292 293 293 294 295 298 301 300 300 300 299 300 301 302 303 303 302
300 300 300 301 300 301 301 300 301 301 301 302 303 301 301 301 302 300 299 299 298 298 296 293 290 292 293 294 295 296 298 299 298 299 299 299 301 301 302 303 304 309
300 300 300 300 299 299 300 300 300 301 300 302 302 302 301 300 299 298 296 296 295 295 297 292 290 292 292 293 294 295 298 299 299 298 295 294 295 294 294 294 295 295
299 299 299 299 299 299 299 300 300 301 302 302 301 301 300 298 298 297 295 294 293 292 292 290 290 290 292 292 293 293 294 296 295 293 293 292 291 291 291 289 291 292

ECMWFNIL_sfc_thetae_036.txt.gz
Theta_e
317 316 314 313 313 314 312 311 312 311 310 310 310 311 311 311 312 311 311 311 310 309 309 308 308 309 312 311 311 312 311 309 307 306 307 308 305 306 307 305 304 304
316 317 316 315 314 315 313 313 313 311 310 310 311 311 311 312 312 311 312 311 311 309 308 308 309 308 308 310 309 310 308 307 307 311 307 306 305 304 304 303 303 302
316 317 316 315 315 315 314 313 314 313 311 311 311 312 313 313 313 310 312 311 310 310 309 308 309 309 309 308 308 309 307 305 305 307 308 306 306 306 305 304 303 302
316 317 317 316 316 316 316 314 314 314 313 312 311 313 314 314 313 313 313 317 310 310 309 309 309 309 309 308 308 307 306 306 306 307 307 307 308 306 306 305 305 304
316 317 317 317 317 317 316 315 315 314 314 313 313 313 315 312 312 314 314 312 311 311 310 310 309 308 308 308 308 307 307 307 307 305 305 305 307 306 307 306 304 305
317 317 317 318 318 316 315 316 316 314 315 313 313 315 314 313 312 314 314 313 312 312 311 311 311 309 309 307 306 307 308 308 307 306 306 306 307 306 309 305 303 303
319 318 318 318 317 318 315 315 316 315 315 315 315 315 315 313 313 315 314 314 313 313 312 311 311 310 310 308 307 307 306 307 306 307 307 306 307 306 307 305 304 303
319 319 318 318 317 317 316 315 315 316 315 313 315 315 315 314 313 315 315 315 314 313 312 312 311 310 310 310 308 308 307 309 308 307 307 306 305 304 305 307 303 303
316 317 318 317 316 316 317 317 317 316 315 314 314 314 315 314 313 314 316 315 314 314 312 312 312 311 311 310 309 308 308 307 309 307 306 306 306 305 306 306 304 304
314 314 315 314 314 314 315 318 318 317 317 316 316 315 315 313 314 314 315 315 315 313 312 312 312 311 310 310 310 309 308 308 308 307 306 306 307 307 306 305 305 302
312 313 313 313 314 314 315 317 317 318 317 317 317 316 316 315 315 314 314 314 315 315 314 313 313 313 312 312 311 310 309 309 309 309 307 307 307 308 309 306 306 304
312 311 313 313 313 314 315 315 316 316 317 316 316 316 316 316 315 314 315 314 314 314 315 315 315 315 315 314 313 311 310 310 310 310 309 308 307 308 309 306 306 305
313 313 312 311 312 311 311 312 313 312 313 315 315 315 314 314 311 313 312 313 314 315 315 316 316 316 315 315 315 315 314 312 310 310 310 309 307 308 308 307 306 306
312 312 314 314 313 312 312 313 312 311 313 313 312 312 313 313 313 313 313 313 314 314 314 315 315 315 314 314 314 313 314 314 313 311 310 310 309 309 308 307 307 306
310 311 311 312 312 312 312 311 312 312 311 311 310 310 311 312 312 312 312 312 312 312 314 314 314 314 315 314 314 314 314 313 313 312 311 310 309 309 309 309 308 307
309 309 310 310 309 311 312 310 309 309 308 308 309 308 308 308 309 310 311 311 311 310 311 312 313 315 313 308 309 314 314 314 314 312 311 310 309 309 309 308 308 307
303 304 304 308 309 306 306 308 309 307 308 308 307 307 307 307 308 307 307 309 310 309 310 311 313 315 307 302 302 304 313 313 313 312 311 310 309 308 307 307 307 307
300 299 299 301 302 301 302 304 305 306 307 307 307 307 307 306 307 308 308 306 307 307 308 310 311 309 303 301 300 300 304 313 312 311 310 309 309 308 308 307 306 306
298 298 298 298 300 301 301 300 300 302 303 304 305 306 307 307 306 306 308 307 306 306 308 310 310 305 301 300 300 299 298 304 310 311 311 309 308 308 307 306 305 305
298 298 298 300 300 299 299 298 298 298 299 300 302 303 305 304 303 304 305 306 306 308 309 310 309 306 301 300 299 297 296 298 308 308 309 309 309 308 306 305 304 303
298 298 298 299 299 298 298 298 298 297 298 298 299 298 298 299 299 299 298 300 301 302 306 307 310 303 299 298 297 297 296 296 306 307 306 306 306 305 304 303 303 303
297 296 297 298 299 299 300 301 299 298 299 297 299 297 296 297 298 296 297 297 297 297 299 300 296 291 292 296 299 296 294 301 301 300 299 299 299 300 301 301 301 300
297 296 297 297 298 298 297 297 297 297 296 297 299 296 296 296 296 295 294 294 294 294 294 292 289 291 291 295 294 293 298 300 299 299 298 297 297 299 299 300 299 299
297 296 297 297 296 297 297 296 295 295 295 296 300 299 298 296 294 292 293 293 291 292 292 289 288 291 293 292 293 295 298 299 297 297 297 298 298 298 299 298 300 305
297 297 296 296 296 295 295 295 295 296 296 296 297 296 295 293 293 292 291 291 290 290 296 289 288 291 292 293 293 295 297 297 298 297 296 293 292 291 292 293 293 295
296 297 296 296 296 295 295 296 296 295 295 296 296 294 293 292 292 291 290 288 288 288 289 288 288 289 291 291 293 294 295 295 295 294 292 290 290 290 290 290 291 291

ECMWFNIL_sfc_thetae_039.txt.gz
Theta_e
315 314 314 313 313 313 312 310 308 307 306 307 307 308 307 308 307 306 307 307 307 307 307 308 308 308 309 307 308 309 308 306 305 304 305 305 303 304 305 302 302 302
315 315 315 314 314 314 312 311 310 309 307 307 308 308 307 307 307 307 308 307 308 306 306 306 306 307 307 308 306 307 305 304 305 309 306 305 302 303 302 301 301 300
315 315 314 313 314 314 313 312 311 309 308 308 307 307 309 309 307 307 307 307 306 306 306 307 307 308 308 306 306 307 306 304 304 304 307 304 303 305 301 300 300 300
315 315 314 314 314 314 314 313 312 311 308 308 308 310 310 311 308 308 308 314 306 306 305 306 306 307 308 307 306 306 304 304 305 304 305 303 305 304 302 303 303 301
315 315 315 314 315 315 314 313 313 312 310 310 309 308 310 309 308 308 308 309 307 307 306 307 306 306 305 306 306 305 304 305 304 304 304 304 305 304 303 304 301 302
316 316 315 315 315 314 314 313 314 313 312 310 310 311 310 310 309 309 309 308 307 307 307 306 306 306 305 305 304 305 307 307 305 304 304 304 304 303 305 302 300 301
315 316 315 315 315 315 315 315 314 314 313 313 310 311 312 312 311 311 311 311 309 310 309 307 307 306 305 304 305 304 304 305 303 303 305 303 305 304 304 301 301 301
314 315 316 316 315 315 315 314 314 313 313 312 311 311 312 312 311 312 312 312 311 310 310 309 309 308 306 305 305 304 304 306 306 304 303 303 303 304 303 304 302 301
314 315 316 315 315 314 314 314 314 314 313 313 313 311 311 311 311 311 314 314 313 312 310 309 309 309 307 306 305 305 305 304 306 305 305 304 304 304 304 303 301 302
312 312 313 312 312 312 313 314 316 314 315 313 313 313 313 313 314 312 311 311 313 313 312 311 310 309 307 307 307 305 305 306 306 305 305 305 306 305 303 304 304 301
310 312 311 311 310 311 312 313 314 314 314 314 314 314 315 315 315 314 312 312 313 313 312 312 311 310 309 308 307 306 306 306 306 306 306 305 305 306 308 305 305 305
309 310 309 310 311 312 312 312 312 313 313 313 315 314 314 314 314 313 314 314 314 314 313 312 311 312 312 311 310 308 307 306 306 306 306 306 305 306 307 306 306 305
309 308 309 308 308 310 311 312 311 311 312 312 312 313 313 312 311 313 313 313 314 314 314 314 313 314 313 313 313 311 310 308 307 307 306 306 305 306 306 306 306 306
309 309 309 310 309 310 310 310 311 311 310 311 312 312 312 311 310 311 312 312 313 313 314 314 313 313 313 313 312 312 311 311 310 309 307 306 306 306 307 307 306 305
308 308 310 310 311 310 309 309 310 312 312 311 310 309 309 310 310 311 311 311 311 311 312 312 312 312 313 313 312 312 311 311 311 310 309 309 308 308 307 306 306 306
307 307 308 309 309 309 310 309 310 309 309 309 309 308 308 308 309 310 311 311 311 311 310 309 310 312 312 307 308 312 311 312 311 310 310 309 309 309 308 307 307 306
302 302 302 304 305 305 305 306 306 306 307 307 307 307 307 308 308 308 308 309 310 309 308 308 309 311 306 302 300 301 309 309 310 311 310 310 308 308 308 308 307 307
296 296 297 298 299 299 299 300 302 304 305 306 305 306 306 305 305 307 306 305 306 306 306 307 308 307 301 300 299 298 301 309 310 309 309 308 309 308 308 307 306 306
295 296 297 297 298 298 298 298 299 299 298 299 298 301 303 304 302 302 303 303 304 304 304 305 306 303 297 296 297 296 296 300 306 308 306 306 306 307 307 306 305 305
295 295 296 296 296 297 296 296 297 298 298 298 298 298 298 298 298 299 298 299 300 301 302 302 304 303 297 297 296 295 295 296 305 305 306 306 306 306 305 304 304 303
295 294 295 295 295 295 295 295 295 295 296 296 295 297 297 299 297 297 296 296 294 295 297 301 301 294 291 292 294 294 294 294 303 303 304 303 304 302 301 301 300 301
295 295 294 294 295 294 295 295 294 294 295 294 294 292 293 293 293 293 292 292 292 292 295 295 294 292 291 292 294 295 293 298 299 300 300 299 295 296 298 297 298 299
296 296 296 295 294 295 295 295 295 296 294 294 295 293 292 293 291 291 291 290 290 290 290 290 290 292 291 292 292 294 294 296 296 295 294 293 294 295 295 296 296 296
295 295 296 295 294 295 295 294 293 293 293 293 295 295 294 292 290 289 288 289 288 289 291 289 287 291 292 292 292 294 297 295 295 295 294 294 292 292 292 294 299 304
295 294 293 293 294 295 294 296 295 296 294 292 291 291 291 290 291 288 287 287 287 288 296 287 286 290 292 292 293 294 295 294 295 295 292 290 290 289 289 290 291 295
296 296 294 293 294 293 292 294 294 293 292 291 289 289 290 289 289 287 286 286 285 285 287 286 287 287 289 291 293 293 295 296 294 293 290 288 289 290 290 289 290 291

ECMWFNIL_sfc_thetae_042.txt.gz
Theta_e
314 314 314 314 313 313 311 309 307 307 306 305 307 306 306 307 309 307 308 307 309 308 308 309 309 310 310 309 310 309 308 307 307 306 306 306 305 306 305 305 305 306
314 315 315 314 313 314 312 311 309 308 306 305 306 307 306 308 308 308 307 307 308 306 307 307 309 309 308 308 308 308 307 308 308 309 306 305 304 304 303 303 303 304
313 314 314 313 313 313 313 311 310 309 307 306 306 306 308 309 307 307 307 307 307 307 306 307 308 309 308 307 307 308 307 307 307 307 308 306 305 305 303 303 304 304
314 315 314 314 314 314 313 312 311 311 309 308 308 309 310 311 308 308 308 315 307 308 306 307 308 308 308 307 307 306 306 307 307 308 308 306 305 305 305 306 306 304
314 314 315 315 315 315 314 313 312 311 311 310 309 309 311 310 308 309 309 309 307 308 307 308 307 307 308 307 306 306 308 307 306 307 307 306 304 306 306 307 306 304
314 315 315 315 315 315 314 313 313 313 312 311 310 311 310 309 309 309 309 309 308 308 308 307 307 307 307 307 306 306 307 307 307 306 307 307 307 306 306 305 305 304
313 313 313 314 315 315 315 314 314 314 313 313 311 310 310 310 310 310 310 310 309 310 310 309 309 308 307 307 307 307 307 307 306 306 307 306 307 307 306 305 305 304
313 312 313 314 314 314 314 312 313 313 313 312 311 311 311 311 311 311 312 312 311 311 310 309 309 308 307 307 308 307 307 307 306 305 306 305 306 306 306 305 304 304
312 312 313 314 314 314 313 313 313 313 314 313 312 311 312 312 312 312 313 313 313 312 311 310 311 311 310 310 308 307 307 307 308 306 306 306 306 306 306 304 303 305
312 311 312 312 312 312 313 313 314 313 314 314 314 313 313 313 314 315 314 313 313 312 312 311 310 312 312 311 310 308 307 308 307 307 307 307 307 307 306 306 305 304
310 310 311 310 311 312 312 313 314 313 314 314 315 315 315 314 315 315 314 313 313 313 313 312 312 313 313 313 312 310 309 308 307 308 308 308 308 308 308 307 307 306
309 310 310 310 310 311 311 313 313 314 314 314 315 314 314 314 314 314 314 314 314 314 313 313 313 313 314 314 314 313 311 309 308 308 308 308 308 308 309 308 308 308
309 309 310 310 310 310 311 311 311 310 312 312 312 313 313 312 313 313 312 313 314 314 314 314 314 314 314 314 314 313 313 311 309 308 308 308 308 307 308 308 308 308
309 308 308 309 309 311 311 310 310 310 311 311 311 311 313 312 312 313 312 312 313 313 313 313 313 313 313 313 314 313 313 312 311 310 309 308 308 308 308 308 308 308
308 308 308 309 308 308 308 309 310 310 310 310 310 310 311 311 312 311 310 311 311 311 311 311 312 312 313 313 313 313 312 312 311 311 310 310 309 308 308 308 308 308
306 307 308 307 307 308 309 309 309 308 308 308 308 309 309 309 310 309 310 309 310 309 309 309 310 312 312 307 307 313 312 312 312 312 311 311 310 310 310 309 309 309
305 305 305 306 307 307 307 307 308 308 308 307 308 309 309 309 309 308 308 308 309 308 308 308 310 311 305 301 298 299 308 310 311 312 311 311 311 310 311 311 310 309
302 302 302 302 304 305 306 307 306 307 307 307 307 307 308 307 307 308 308 307 307 307 307 308 308 305 296 295 295 295 298 307 309 310 310 310 310 310 310 310 310 310
297 298 298 298 299 300 302 305 306 305 305 304 305 304 305 305 305 303 305 304 305 305 305 305 305 298 293 294 294 293 293 298 306 308 308 309 309 309 309 309 309 308
296 297 297 296 296 297 299 300 301 300 299 299 300 300 301 301 301 303 301 301 302 303 303 302 303 294 290 291 292 292 292 294 305 306 307 308 308 307 307 307 306 306
296 296 296 296 296 296 296 296 296 295 297 296 296 297 297 298 298 297 297 296 295 296 296 298 299 292 291 291 290 291 291 293 302 304 306 305 304 303 304 305 305 304
296 296 297 297 297 296 296 296 295 295 296 296 295 294 294 295 294 293 293 294 293 292 296 298 295 292 291 292 292 292 292 299 301 304 304 299 296 297 298 299 300 302
295 296 295 295 294 295 295 295 295 295 294 294 295 294 295 294 292 292 291 291 293 292 293 294 292 292 291 291 292 292 296 301 299 296 295 295 295 295 296 299 300 299
295 296 296 295 296 297 296 295 295 295 296 297 297 296 295 293 292 291 290 291 291 291 293 294 293 291 292 291 293 293 296 296 296 295 293 293 292 293 294 296 300 301
295 295 296 296 297 296 297 296 297 297 296 293 294 293 292 291 293 290 289 288 289 291 296 290 289 291 292 292 293 294 295 296 296 294 292 291 292 292 292 293 294 295
296 297 297 297 297 296 296 297 297 295 294 293 290 289 290 290 291 288 288 288 287 287 288 288 289 290 292 291 293 293 294 296 295 294 292 291 292 292 292 293 293 293

ECMWFNIL_sfc_thetae_045.txt.gz
Theta_e
322 324 324 323 323 324 323 322 322 322 322 322 320 321 321 322 322 323 324 324 325 325 323 323 323 323 322 322 323 320 320 321 321 321 321 320 319 320 319 319 320 318
322 323 323 324 322 321 321 321 320 320 320 322 322 321 322 322 323 323 324 324 324 324 323 323 324 323 322 320 321 321 319 320 318 318 320 319 318 319 319 319 318 318
322 322 322 322 322 322 320 319 317 317 320 322 323 323 322 323 323 323 324 324 323 323 323 324 324 323 322 320 320 320 319 319 318 319 319 318 318 316 317 318 317 318
323 324 324 324 324 322 321 318 317 318 320 321 322 323 323 323 324 323 323 322 323 322 323 323 324 323 321 321 321 319 319 319 319 320 318 318 318 317 317 318 317 317
323 324 325 324 323 322 322 321 319 318 320 323 323 321 322 323 323 323 323 321 322 321 321 322 322 323 322 321 321 320 320 318 320 320 318 317 317 318 318 318 316 315
323 323 323 322 323 322 321 321 320 318 319 321 321 320 321 322 322 322 322 322 321 320 320 320 321 321 322 321 321 321 321 320 321 320 317 316 316 317 315 317 315 315
323 323 324 323 323 322 323 322 321 320 320 320 320 320 319 320 320 321 321 321 321 320 320 320 320 320 321 322 321 320 320 320 320 320 318 318 318 317 317 316 314 313
324 324 323 323 324 324 323 323 323 322 322 321 321 320 322 321 319 322 322 322 321 321 320 320 320 320 321 321 320 320 320 320 320 319 319 318 319 317 317 317 317 313
324 323 323 324 324 324 323 322 323 323 322 323 322 322 322 322 321 323 322 322 321 321 321 321 321 321 323 322 322 320 319 319 320 319 318 318 318 318 316 317 316 315
324 324 324 324 324 325 324 324 324 324 324 324 323 323 322 324 324 323 322 322 321 321 321 321 321 321 322 322 320 320 320 319 319 319 319 318 318 317 317 317 317 316
324 323 324 324 325 325 325 325 326 326 326 323 323 323 323 324 325 324 323 322 322 320 320 320 321 321 321 321 323 323 321 320 320 319 320 319 320 319 318 317 317 317
324 324 322 321 322 324 325 326 326 325 324 324 324 323 323 324 324 323 324 323 322 321 322 322 320 319 319 319 320 322 323 322 321 320 319 318 319 318 318 318 318 318
322 321 321 321 322 325 326 325 325 326 325 324 324 324 324 324 323 323 323 323 321 322 322 322 321 320 320 321 322 322 323 322 322 321 320 320 319 319 319 318 319 318
320 320 320 322 323 324 324 325 325 326 326 326 325 325 325 323 323 323 324 323 322 321 322 322 322 321 321 322 322 323 322 322 321 320 320 321 321 320 320 319 319 319
320 320 322 322 323 323 324 324 324 324 324 323 323 324 324 324 323 323 323 323 322 322 322 322 322 321 321 322 322 322 322 322 322 321 321 320 320 320 320 319 319 319
319 320 321 322 321 321 322 321 321 322 322 322 322 322 322 321 321 322 321 321 321 321 322 322 321 322 316 307 306 318 322 322 322 322 322 321 320 320 319 319 318 319
319 319 320 320 321 321 322 320 320 321 321 321 321 320 320 320 321 320 321 321 321 321 321 321 321 318 297 296 296 297 313 320 321 321 322 321 321 321 320 320 319 318
319 318 318 318 319 319 319 318 318 318 318 318 318 316 316 317 318 318 318 318 319 319 320 320 319 296 293 293 294 294 298 314 318 320 321 321 321 321 321 321 320 321
316 318 318 317 317 316 316 316 316 316 315 315 315 315 316 317 315 315 316 316 316 316 318 316 317 293 291 291 292 293 293 300 314 316 317 319 320 320 321 321 321 320
312 312 312 313 314 315 316 316 317 317 316 316 314 314 316 315 314 315 313 315 315 317 315 314 314 295 290 290 291 290 290 295 313 313 315 315 316 317 319 320 320 320
310 310 310 311 312 312 313 313 313 313 314 315 316 317 318 317 316 315 314 314 313 314 316 316 313 292 292 291 291 291 290 297 311 311 311 312 313 313 315 316 318 318
310 310 310 310 310 310 310 310 312 313 313 312 312 312 312 312 311 314 314 314 312 314 316 315 311 291 291 291 291 292 295 311 312 313 313 313 311 311 311 312 313 314
307 307 307 307 309 309 309 310 310 310 310 311 312 312 312 312 312 311 310 312 313 314 315 314 314 298 291 291 292 292 303 315 314 312 311 309 308 309 310 310 310 311
309 309 307 306 307 308 309 310 311 312 312 313 312 312 311 311 310 309 308 308 310 311 309 312 312 300 291 292 293 292 304 315 313 312 309 308 306 306 307 306 303 300
307 307 306 307 306 307 309 309 311 311 311 312 314 314 312 310 309 310 308 307 306 306 298 306 310 303 292 291 292 293 306 315 312 311 309 307 306 304 304 304 302 297
308 308 309 309 309 310 310 311 310 309 310 311 310 310 310 309 308 309 309 307 304 305 305 306 308 309 300 289 292 293 294 312 312 311 308 306 306 305 304 303 302 300

ECMWFNIL_sfc_thetae_048.txt.gz
Theta_e
333 331 331 329 327 327 327 325 323 322 321 322 322 323 323 325 325 325 326 326 325 325 325 324 323 323 322 323 323 319 320 322 322 322 321 321 321 323 321 321 322 320
333 332 331 331 329 330 329 327 326 322 321 322 323 323 325 325 326 325 325 325 325 325 325 325 324 322 321 321 323 320 319 321 320 319 320 319 319 320 320 321 321 320
331 331 331 329 328 329 329 329 328 326 323 322 324 324 324 326 326 326 326 325 324 325 326 326 325 323 322 322 322 321 320 320 320 320 319 317 318 318 320 320 319 320
331 331 330 331 330 328 328 327 325 325 326 323 323 324 325 325 326 325 325 325 325 325 326 326 326 324 323 324 323 320 321 319 320 321 320 320 319 318 319 319 320 320
330 330 330 330 330 329 328 326 324 323 324 324 325 324 324 325 324 324 325 325 325 325 325 325 326 325 325 325 324 323 322 321 322 322 319 319 321 321 320 320 319 318
330 329 330 331 331 330 326 324 324 324 324 326 325 324 324 324 324 324 324 325 325 325 325 325 325 325 325 324 325 324 324 322 323 322 320 319 319 320 317 319 319 318
331 330 331 330 330 329 327 326 326 326 326 326 325 326 326 325 324 324 324 325 325 324 324 325 325 325 326 326 325 324 323 323 323 323 321 321 320 319 318 319 317 316
332 332 331 330 330 329 328 327 327 326 328 326 325 326 326 325 324 325 324 325 324 325 325 325 325 325 325 326 324 324 325 324 324 322 322 322 322 320 320 318 319 317
332 331 331 331 330 329 329 327 327 329 328 327 326 325 326 324 324 325 325 325 325 325 325 325 325 326 327 326 325 325 325 325 325 324 323 322 322 322 321 320 320 319
331 330 330 331 330 329 329 329 329 329 328 327 326 326 326 326 326 325 325 325 325 325 325 325 325 326 326 326 325 325 324 324 325 325 325 324 323 322 321 322 322 320
330 330 329 330 330 330 330 330 330 329 327 327 327 326 326 327 327 327 327 326 326 324 325 325 326 326 326 326 328 327 326 326 325 324 325 325 326 325 323 323 322 322
329 329 329 329 329 330 331 330 329 329 329 328 328 326 328 328 327 327 327 327 327 326 325 325 325 325 325 325 326 327 327 327 327 326 325 325 325 324 325 326 325 324
327 327 329 330 329 328 330 330 330 330 329 328 327 327 328 328 328 327 328 327 326 326 326 326 326 326 326 327 326 326 327 326 327 327 326 326 325 325 325 326 326 325
327 327 326 324 325 327 328 329 329 329 328 328 328 328 328 327 327 326 327 327 327 326 327 327 327 326 326 327 328 328 328 326 327 327 326 327 327 326 327 327 326 326
326 325 325 326 326 327 327 327 328 329 328 328 328 328 329 327 327 326 327 326 327 327 327 327 327 328 328 327 327 326 327 326 327 327 327 327 327 326 325 323 323 325
326 326 325 325 325 325 324 326 327 328 329 327 326 326 325 326 326 327 327 328 326 326 328 328 328 328 311 302 304 323 327 325 327 327 326 327 326 325 325 324 324 325
324 324 324 324 324 324 326 326 326 327 325 324 325 324 324 324 325 326 325 326 325 326 326 327 327 317 295 296 297 299 320 326 324 323 324 324 324 325 324 324 327 325
324 322 321 323 324 324 325 325 325 325 325 325 325 326 326 326 325 325 325 326 327 326 326 326 321 296 293 294 295 295 300 320 324 323 323 322 322 321 320 321 321 322
324 323 323 323 323 322 323 323 324 325 325 324 324 325 324 324 324 324 324 325 325 323 321 319 318 291 291 292 293 294 296 305 323 324 322 321 322 321 320 320 319 319
321 321 321 321 322 322 322 322 324 323 323 323 324 323 323 323 325 324 322 321 320 319 318 318 317 294 290 290 292 292 293 299 323 323 323 322 322 323 323 321 320 319
315 315 316 318 319 319 321 321 323 323 323 322 322 321 321 320 319 318 318 318 317 317 316 316 314 290 292 291 291 292 292 297 322 323 321 322 323 323 322 322 321 321
313 313 314 315 315 316 316 316 317 317 317 317 317 317 318 317 317 316 316 315 315 315 314 313 310 290 292 292 292 294 292 319 320 320 319 319 320 321 320 321 321 321
312 312 312 313 313 313 313 314 315 315 316 316 315 315 314 314 315 315 315 314 314 315 315 314 314 296 291 291 292 292 298 315 314 315 315 317 318 319 318 317 316 316
311 311 311 311 312 311 312 313 314 314 314 314 313 312 312 314 314 313 315 315 315 315 315 315 315 300 291 292 293 292 297 317 314 313 313 314 315 316 316 312 305 298
310 310 310 310 311 312 313 313 313 313 314 315 314 313 314 313 313 313 314 315 315 316 306 314 315 304 291 292 291 292 304 317 312 313 312 313 313 313 313 311 306 299
311 311 310 310 309 310 311 311 313 316 315 314 314 313 312 311 311 312 312 313 315 315 315 316 315 314 304 290 294 294 292 314 313 311 311 310 311 311 311 310 307 303

ECMWFNIL_sfc_thetae_051.txt.gz
Theta_e
331 331 328 326 325 326 327 325 324 323 323 323 322 322 322 324 324 324 324 324 323 323 322 322 322 322 322 323 322 319 320 322 320 321 321 320 319 322 321 321 322 319
331 331 329 328 326 326 327 326 325 324 324 325 323 323 323 324 324 325 323 323 324 324 322 322 322 322 322 322 322 320 319 321 320 318 320 320 319 321 321 321 321 320
331 332 331 329 327 328 328 328 326 325 325 324 326 324 324 325 325 325 325 324 324 324 325 323 322 322 322 322 322 321 320 319 319 320 319 318 320 320 320 321 321 320
332 332 331 330 330 330 329 327 325 326 327 325 324 324 325 325 326 325 325 324 324 325 326 326 324 323 321 321 322 320 321 320 320 322 320 320 320 319 320 320 320 319
331 331 330 329 327 327 327 327 326 326 326 325 325 324 324 325 325 324 324 324 325 325 326 325 325 325 325 323 322 321 321 322 323 321 320 319 320 320 320 320 320 319
331 330 330 330 327 325 323 323 323 323 324 325 324 324 324 324 323 323 324 324 324 324 325 325 325 325 325 325 325 325 323 321 322 322 320 320 320 321 318 320 319 317
330 329 330 330 329 326 325 324 322 322 323 325 324 323 324 324 323 324 324 324 325 324 325 325 325 325 326 326 325 325 324 323 323 322 320 319 319 318 319 319 318 316
329 329 331 331 331 328 324 323 323 322 324 326 323 323 324 323 323 324 324 325 324 324 325 325 326 326 327 327 325 325 325 325 324 322 323 321 322 320 317 319 319 318
329 330 332 331 331 328 324 322 324 324 324 325 325 325 324 324 323 324 324 324 324 325 325 325 326 326 328 327 326 326 324 325 325 324 323 323 322 321 321 320 319 318
331 331 332 331 331 328 327 324 325 325 325 325 324 326 325 325 325 324 324 324 324 324 324 325 326 327 327 327 326 326 326 325 325 325 325 324 324 323 321 322 323 322
331 331 331 329 330 329 328 326 325 325 326 324 323 322 323 324 325 325 324 324 325 323 323 324 325 325 326 326 328 327 327 327 325 325 327 326 326 325 326 325 324 324
330 331 332 331 329 329 328 326 325 325 326 324 323 323 324 324 324 323 324 323 325 325 325 324 325 324 325 324 326 327 327 327 326 327 326 326 326 327 325 325 326 323
329 331 331 331 332 330 329 329 326 326 324 323 324 324 323 323 323 324 326 326 326 326 326 326 326 326 327 327 327 326 326 326 327 326 327 326 326 325 325 326 325 325
326 329 330 330 330 326 323 324 324 327 326 323 324 324 325 326 324 325 327 326 327 326 326 325 326 326 327 327 326 326 326 327 327 327 326 327 327 326 325 325 325 326
325 325 324 325 325 326 325 326 327 327 327 327 325 325 328 326 327 326 326 326 326 326 325 327 327 327 327 326 328 326 327 326 327 325 324 323 322 319 324 325 326 326
326 325 325 325 324 324 323 326 327 327 324 322 322 324 322 321 321 322 322 323 322 323 326 328 326 321 308 300 303 322 321 324 324 327 325 324 318 321 323 325 326 325
325 324 324 324 322 320 323 324 324 326 322 319 319 321 322 322 323 323 325 323 319 319 322 322 324 315 295 294 298 298 320 325 324 324 325 324 322 322 322 323 325 325
324 324 324 324 324 322 322 324 324 322 321 321 322 323 323 324 323 322 323 324 323 322 321 320 317 294 294 294 295 296 300 319 324 323 323 321 321 320 321 322 323 322
325 323 323 324 325 323 323 323 322 322 321 321 321 322 322 321 321 322 322 323 322 321 320 319 315 291 293 292 295 296 297 305 321 320 318 320 319 319 319 318 317 318
325 324 324 325 325 325 324 323 321 320 322 323 322 322 321 323 324 325 324 321 322 321 317 315 314 292 291 291 294 293 295 299 320 318 319 318 318 318 318 318 317 317
320 319 320 321 323 323 323 323 322 322 322 321 323 322 322 323 322 321 323 321 318 318 316 314 313 289 292 292 292 293 295 295 319 317 317 318 318 320 319 319 318 319
315 315 316 317 318 319 319 320 321 320 321 322 321 322 320 319 319 318 318 317 317 317 314 312 312 290 293 295 293 294 292 314 318 316 317 317 318 318 318 319 320 319
314 314 314 315 314 315 315 317 317 317 318 319 318 317 317 316 317 316 316 316 315 315 314 312 314 298 292 293 293 292 296 321 314 315 316 316 316 317 318 316 313 313
313 312 312 313 313 313 314 315 315 316 316 316 315 315 314 315 315 314 315 314 314 315 314 312 313 301 291 293 291 292 295 316 315 314 312 313 314 315 316 312 306 299
313 313 313 312 312 313 315 313 313 314 314 315 314 314 314 314 314 313 313 313 314 315 312 314 314 305 290 292 291 291 301 317 314 312 312 312 313 312 314 312 307 300
312 312 312 312 312 312 314 313 313 313 315 314 315 313 313 312 312 313 312 313 314 315 313 315 314 313 306 290 293 293 292 308 314 311 310 310 310 310 311 310 309 305

ECMWFNIL_sfc_thetae_054.txt.gz
Theta_e
330 330 329 329 328 328 328 326 325 325 325 325 322 322 325 326 324 324 325 326 325 325 325 325 325 325 324 323 322 318 319 320 320 321 320 319 319 320 320 320 320 319
330 331 326 328 328 328 329 328 326 326 326 325 324 325 325 324 326 326 325 325 324 324 325 326 326 325 323 321 323 322 321 321 318 320 320 320 319 320 321 321 320 319
330 330 328 327 326 329 328 328 329 327 326 325 326 325 325 327 325 325 327 326 325 325 324 323 324 324 324 324 322 320 320 320 319 320 320 319 320 319 319 319 319 318
330 332 332 329 329 328 328 327 327 327 327 325 324 325 325 326 327 326 326 326 326 326 326 327 326 325 321 324 324 322 322 322 322 322 321 321 320 320 320 321 320 318
331 331 333 330 329 328 327 325 325 327 326 325 325 325 325 327 326 326 325 326 326 326 327 327 326 326 325 322 322 322 324 323 322 319 318 317 319 319 319 321 318 318
332 331 330 329 329 328 326 324 326 327 326 326 325 325 327 327 326 325 325 325 325 325 327 326 326 327 325 326 325 324 324 324 323 323 320 319 320 321 318 322 317 314
330 331 330 327 326 327 326 326 326 326 326 326 325 326 327 326 325 324 324 324 323 323 323 326 327 327 327 327 326 326 324 324 324 323 317 315 316 319 319 318 319 315
330 331 331 328 325 327 325 324 324 324 326 325 325 326 325 325 323 326 325 324 322 322 324 323 326 326 327 327 325 325 325 327 326 325 321 321 323 317 317 321 320 316
331 331 331 332 325 325 324 322 323 324 325 325 324 327 326 326 326 327 327 326 324 326 323 324 325 325 328 328 326 326 325 326 327 325 323 322 322 321 318 320 320 319
328 330 330 328 332 324 324 323 323 324 325 327 323 325 324 328 328 326 328 327 326 324 324 324 325 326 328 329 328 327 326 326 325 325 325 325 324 322 321 321 322 322
326 324 324 325 324 325 325 323 323 323 323 323 326 325 324 326 325 325 325 326 327 324 324 324 325 325 327 328 328 328 328 327 325 325 326 325 326 324 325 322 322 323
325 323 322 323 324 321 321 325 324 324 324 324 323 323 325 327 325 323 324 323 324 325 325 324 325 326 325 325 325 327 328 327 327 325 324 322 321 321 321 321 324 323
322 322 322 322 320 321 324 327 328 325 324 324 323 323 323 323 324 323 326 326 323 323 322 322 323 323 325 325 325 325 325 323 322 321 321 322 321 323 322 322 321 322
323 323 324 322 322 323 323 325 326 326 326 325 326 326 326 323 323 324 324 322 321 323 323 322 323 322 324 324 325 323 323 322 322 320 321 321 320 321 323 322 323 324
321 321 323 323 322 322 321 322 325 325 323 324 324 323 324 323 322 324 324 322 322 321 321 322 322 322 316 314 320 323 323 322 321 321 321 320 320 321 322 322 324 324
323 321 322 323 322 321 323 324 323 323 324 323 322 322 321 321 322 322 322 322 320 320 319 320 321 319 305 300 301 315 321 322 319 321 321 320 318 318 320 322 323 323
323 323 324 324 324 323 321 324 324 323 322 321 321 322 322 323 324 323 323 321 320 320 319 320 322 309 295 294 295 298 318 323 322 321 321 320 318 318 320 321 323 323
323 322 323 323 323 322 322 322 323 323 322 322 322 322 323 323 323 322 322 322 322 321 321 320 317 296 292 293 294 294 299 314 323 322 321 320 318 320 321 321 322 322
320 321 321 322 322 322 322 321 321 322 321 321 321 323 323 322 321 322 321 321 321 320 320 319 315 292 292 293 294 293 294 300 318 321 319 319 321 321 320 320 320 319
319 319 320 321 321 321 322 321 321 321 322 322 321 322 321 321 321 320 319 320 321 320 319 315 312 294 291 293 293 292 293 294 318 318 319 318 318 319 319 318 318 318
320 321 320 319 319 319 321 320 320 320 321 321 321 321 320 319 319 319 319 319 320 319 313 312 311 291 291 292 292 292 292 293 316 319 318 316 318 318 318 318 317 319
317 317 318 319 319 319 320 319 320 320 320 322 322 321 322 321 320 321 320 319 319 314 312 311 307 291 292 293 293 292 291 309 318 316 316 315 316 315 311 309 310 311
315 315 317 316 316 317 318 319 320 320 320 320 320 320 320 320 319 319 319 318 316 313 311 310 309 295 291 293 293 291 299 316 318 316 313 314 314 311 307 304 303 308
313 313 317 315 318 314 314 317 318 319 318 318 318 317 316 317 316 316 317 316 313 312 311 309 310 300 291 292 292 291 294 308 313 315 312 311 311 310 307 302 301 303
312 312 312 313 312 314 317 317 316 316 315 316 315 314 314 314 314 313 313 314 314 312 310 311 310 302 290 293 291 291 296 310 311 311 309 310 310 309 307 303 299 297
313 314 314 312 312 315 317 317 319 318 318 317 317 314 312 312 311 311 311 311 313 312 311 311 310 309 299 290 291 291 291 303 312 311 310 309 308 308 307 304 301 297

ECMWFNIL_sfc_thetae_057.txt.gz
Theta_e
322 321 321 321 320 320 320 319 318 317 316 316 315 316 317 316 316 314 314 313 314 314 314 314 314 315 315 313 313 313 314 314 313 313 313 314 313 314 315 312 311 310
322 322 322 322 321 321 320 319 318 317 316 315 316 317 316 315 316 316 315 316 316 315 316 316 315 314 315 315 314 313 311 311 312 318 313 312 312 312 312 311 310 311
322 321 321 320 320 320 319 318 319 318 316 317 317 316 317 318 316 315 315 315 316 314 313 313 313 314 313 312 312 313 312 311 312 312 313 311 312 312 311 311 310 310
321 320 321 320 321 320 319 319 319 318 318 317 316 318 319 318 316 318 319 320 313 313 313 314 315 315 315 315 314 313 313 312 313 313 313 312 313 313 313 313 312 313
323 323 322 321 322 320 320 319 319 318 317 317 318 318 318 317 317 317 317 316 315 316 317 316 314 315 314 314 315 315 315 313 312 311 311 311 312 312 311 311 310 310
324 324 323 322 320 319 319 320 320 318 317 317 317 318 318 318 317 317 317 316 316 317 316 316 317 315 314 315 315 315 313 312 311 313 313 312 314 313 314 310 309 309
323 323 324 323 321 320 321 322 321 320 319 319 320 319 318 318 317 317 317 318 317 316 315 315 316 317 317 317 317 314 314 314 314 309 308 309 312 310 312 311 310 308
325 324 323 322 322 322 322 321 321 321 320 319 319 319 318 318 317 318 317 318 317 317 317 318 318 316 318 318 317 316 315 320 318 314 312 314 311 310 311 314 309 308
324 325 323 320 320 320 320 320 321 321 321 319 319 318 318 318 318 319 318 318 318 318 318 318 318 317 319 318 317 317 317 317 318 315 314 315 315 313 313 313 311 311
319 319 318 319 319 319 319 320 320 321 320 319 318 317 318 318 319 319 319 317 317 318 317 317 318 318 319 318 319 319 319 318 318 317 317 316 316 316 317 317 315 313
319 318 318 319 319 320 319 319 319 319 319 316 317 316 317 318 318 318 318 318 318 317 317 317 319 319 320 320 321 319 318 317 317 317 318 316 316 317 319 316 316 315
319 317 318 318 319 319 319 318 317 317 318 318 318 316 317 318 316 317 317 317 316 316 317 318 318 319 320 320 319 318 317 317 317 317 318 317 317 317 316 316 314 316
318 317 317 317 317 317 317 318 317 316 317 318 319 318 318 317 316 317 317 316 317 317 318 318 318 319 321 321 320 318 317 317 316 315 317 315 316 317 317 318 317 317
316 317 317 317 317 319 318 319 318 318 317 318 319 318 318 318 317 318 318 318 318 317 318 318 317 318 319 319 319 318 316 316 315 315 316 315 313 315 316 317 317 318
317 317 318 316 317 317 318 319 320 318 317 318 318 318 318 319 319 318 317 317 316 317 316 317 318 316 313 314 318 317 317 317 316 315 315 313 312 313 314 315 317 317
317 318 319 318 317 317 317 317 317 318 316 316 317 317 316 317 318 318 317 316 316 314 315 316 314 310 306 303 309 317 316 316 313 313 315 314 313 313 314 315 315 314
316 317 318 318 317 317 318 318 318 318 316 315 315 316 318 318 319 317 316 315 315 315 314 316 312 306 296 294 296 303 316 314 314 314 314 314 313 313 314 315 314 317
316 316 317 317 317 317 317 318 316 316 315 316 315 316 317 318 318 317 316 315 314 314 314 314 308 299 293 294 296 298 307 316 316 316 316 315 313 313 314 315 316 317
316 317 316 317 317 317 316 316 316 315 315 315 314 315 317 317 317 317 316 315 315 315 314 312 305 293 293 294 294 294 295 305 316 317 317 316 315 314 315 314 315 317
317 317 317 316 316 317 317 316 316 315 314 312 313 314 314 314 314 314 313 313 314 313 313 309 304 294 292 293 293 292 291 296 311 315 315 314 314 314 313 312 314 315
316 316 316 316 316 316 314 313 313 313 314 314 314 314 313 313 313 312 312 312 312 311 309 307 303 291 292 292 292 292 291 292 307 312 311 311 309 308 308 308 311 313
316 315 315 315 314 314 314 313 312 312 312 312 312 311 310 310 310 311 312 312 311 307 306 305 297 289 292 292 291 292 292 302 308 309 309 307 305 304 304 306 309 307
312 313 314 314 313 314 313 313 313 313 313 313 313 312 312 312 312 313 313 312 308 306 305 303 300 292 291 291 291 290 296 307 307 309 307 305 303 302 304 306 306 303
306 306 309 310 310 311 310 312 313 313 314 313 313 312 312 312 312 311 311 310 306 305 305 303 300 293 291 291 291 290 296 304 306 307 305 303 301 300 301 303 305 305
304 305 304 304 305 307 309 309 310 312 311 311 311 311 311 309 310 311 310 308 306 305 307 304 301 295 290 290 290 289 294 304 303 305 304 303 301 298 297 297 298 300
302 303 303 304 305 305 305 307 307 307 307 309 307 310 311 309 308 309 309 308 306 305 305 304 302 298 292 290 290 289 291 297 302 303 303 302 300 299 297 294 293 293

ECMWFNIL_sfc_thetae_060.txt.gz
Theta_e
319 319 319 318 317 318 318 316 313 313 312 311 311 312 312 311 313 312 312 311 311 312 313 313 312 311 313 310 310 311 311 311 310 310 311 311 309 309 310 309 308 308
318 319 320 318 318 318 318 316 314 314 313 312 313 313 311 311 311 311 311 311 312 312 311 311 311 310 310 311 309 310 309 310 311 313 310 309 308 308 308 307 307 307
318 318 318 317 317 317 317 316 316 315 314 314 315 313 313 312 312 311 310 311 312 311 311 311 310 310 310 309 308 309 309 308 309 309 311 308 308 309 306 307 309 309
318 319 319 318 318 317 316 316 315 315 316 315 314 314 315 315 312 311 312 316 310 309 309 310 309 309 309 308 309 308 308 308 309 310 310 310 309 308 308 309 309 309
318 318 319 318 318 318 318 317 315 316 316 315 315 316 316 315 315 315 313 310 309 309 311 310 309 310 310 310 309 309 310 310 309 309 308 308 307 309 308 308 307 307
319 320 320 320 318 318 318 317 317 316 316 316 316 316 315 317 316 314 312 310 312 312 311 310 311 311 311 310 310 309 309 310 308 308 308 308 308 308 309 307 306 306
320 320 320 319 319 319 318 317 317 317 317 317 317 316 317 317 316 315 314 313 313 312 311 311 310 310 311 310 310 308 308 308 309 308 308 307 308 308 309 307 307 307
321 321 320 320 320 320 319 317 317 317 318 318 317 317 318 317 316 316 316 315 313 313 312 312 311 311 312 312 311 311 310 312 308 307 308 307 307 308 307 309 306 308
320 320 320 321 320 319 318 318 318 318 319 318 318 318 318 317 317 317 317 315 315 314 314 314 314 314 313 313 313 314 313 311 311 310 311 310 310 309 310 309 308 308
319 320 319 319 318 317 318 318 319 319 319 319 318 318 318 317 317 317 317 316 316 315 314 313 314 314 313 313 315 316 315 315 313 313 312 312 313 313 313 311 309 310
318 319 319 319 318 319 318 319 319 318 318 318 318 317 317 317 317 317 316 316 316 315 315 315 318 318 317 316 315 315 316 316 315 314 313 313 313 314 318 313 312 311
316 317 318 318 318 318 318 319 319 318 317 318 318 317 317 318 317 317 317 316 316 315 316 317 317 317 317 316 316 315 315 315 314 314 314 313 312 313 314 314 314 314
316 316 317 317 318 318 317 318 319 318 317 318 317 317 317 317 316 316 316 316 316 316 317 317 317 317 317 316 315 314 315 315 314 313 313 313 313 313 314 313 314 315
314 315 315 316 315 315 317 317 316 315 315 315 316 314 315 316 316 316 315 316 316 317 317 317 317 317 316 316 315 314 314 313 313 313 312 312 311 311 313 313 313 313
315 314 315 316 317 316 315 316 317 315 315 314 313 312 315 315 316 316 316 315 315 316 316 316 317 316 316 315 315 314 312 313 312 312 313 311 309 311 311 312 313 313
314 314 315 315 315 316 314 315 316 315 315 314 314 314 315 316 316 316 315 315 314 313 314 314 313 312 312 310 311 315 314 314 312 312 313 312 311 309 310 312 313 312
314 314 313 313 313 312 313 314 315 314 313 314 314 315 315 315 315 315 314 314 314 314 313 313 312 311 302 300 303 307 314 314 313 313 313 312 312 312 312 313 312 313
315 315 314 313 313 313 312 314 312 313 313 313 314 314 315 314 314 314 314 314 314 313 313 312 310 305 295 296 297 298 305 313 312 312 313 312 312 312 312 313 313 314
315 315 314 312 312 311 311 311 311 313 313 313 313 313 314 314 314 313 312 312 312 313 312 311 308 297 294 295 296 296 297 306 312 312 313 312 312 312 313 313 313 313
313 313 313 313 311 311 311 311 310 309 309 309 311 311 313 312 310 311 311 311 311 312 311 310 308 296 293 294 295 295 295 298 311 310 310 311 311 311 312 312 313 311
312 311 312 313 312 312 311 311 310 307 309 308 311 311 311 311 311 310 310 310 310 310 309 307 307 294 292 293 294 294 292 292 304 310 308 307 307 310 312 312 311 308
311 310 309 309 309 310 310 309 307 309 309 306 307 307 307 307 308 307 308 309 308 307 305 305 298 290 291 292 292 292 291 297 305 308 306 303 303 303 306 310 307 304
309 310 309 310 310 309 307 307 308 308 307 309 310 309 309 309 309 308 309 309 306 305 305 303 299 291 291 291 291 290 292 303 306 305 303 302 302 303 305 305 303 302
303 305 306 306 306 308 307 306 305 306 308 307 308 308 307 309 309 307 307 308 305 304 304 302 300 293 291 291 290 289 297 305 305 303 301 301 300 300 301 301 302 304
300 301 302 302 302 303 304 305 306 306 306 307 307 306 307 306 307 308 305 305 304 303 306 302 298 293 290 289 289 288 295 304 304 302 300 299 300 298 296 300 300 301
298 298 299 299 299 299 301 302 303 303 304 306 305 305 306 305 304 304 305 305 301 300 303 301 299 296 291 288 289 288 293 301 303 302 299 298 298 299 296 293 293 293

ECMWFNIL_sfc_thetae_066.txt.gz
Theta_e
319 318 317 315 314 315 313 312 312 312 311 310 311 310 311 311 313 312 312 312 313 312 311 311 312 312 311 310 311 311 311 310 310 308 309 310 308 309 309 309 311 313
318 318 318 315 314 314 313 313 312 312 310 310 311 310 311 311 311 312 312 313 312 310 309 310 310 310 310 310 310 310 309 309 310 312 308 308 307 308 308 308 310 311
317 317 316 314 314 313 312 312 312 311 311 310 310 310 311 311 310 310 311 311 310 309 309 309 309 309 309 309 309 309 308 308 308 308 310 307 308 308 307 308 308 310
317 317 315 314 313 312 312 312 311 311 312 312 311 312 312 312 311 312 314 315 309 309 308 308 309 308 308 307 308 308 307 308 307 308 309 308 309 308 308 309 309 309
317 316 315 314 313 313 312 311 311 311 312 311 311 312 313 311 311 310 309 309 309 308 308 308 307 308 308 308 308 309 309 307 307 307 307 307 307 309 308 308 308 308
316 317 316 314 313 313 312 312 312 312 311 310 311 313 311 311 310 309 309 308 308 308 308 307 308 308 308 308 308 307 307 308 307 307 307 306 307 307 307 307 308 308
316 316 315 314 313 313 312 312 312 312 311 311 311 311 311 310 309 309 309 309 309 310 308 308 308 309 309 308 309 307 307 307 307 307 307 307 308 308 308 308 308 308
315 316 315 314 313 313 312 312 312 311 311 312 311 311 311 311 309 310 310 309 309 308 308 308 308 308 308 308 308 308 308 308 307 307 307 306 307 308 308 309 308 308
316 316 315 314 313 313 312 312 312 312 313 311 311 312 312 312 311 311 311 310 310 309 309 308 308 309 308 308 308 309 309 309 308 307 308 308 308 308 308 308 309 309
315 315 315 314 314 313 313 313 313 313 313 312 312 313 313 314 314 313 312 311 310 310 309 309 310 310 310 309 310 310 310 310 309 309 308 308 310 310 309 310 310 310
315 316 315 314 314 314 313 313 313 313 313 312 313 314 314 313 314 313 312 311 311 311 311 310 311 311 311 311 311 310 310 311 311 311 311 311 311 311 313 311 310 310
316 315 315 315 315 314 314 314 314 313 313 313 314 314 314 314 313 313 314 313 312 312 312 312 312 312 312 312 312 311 311 311 311 311 312 312 313 313 312 312 312 311
315 315 315 315 315 315 315 315 314 314 313 314 315 315 314 314 314 314 314 313 313 313 313 313 312 312 312 312 312 312 312 312 312 311 312 313 313 313 313 313 313 312
314 315 316 316 316 316 315 315 314 314 315 315 315 314 314 314 314 314 314 314 313 314 313 313 313 313 312 312 312 313 313 312 313 313 312 310 309 309 312 313 313 313
316 316 316 315 315 315 314 314 314 314 314 315 315 314 315 315 315 315 314 313 313 313 313 313 314 314 313 313 313 313 312 313 313 313 312 311 309 309 309 310 311 311
314 315 316 314 314 314 315 315 315 314 314 313 314 314 314 313 313 313 313 313 313 311 312 313 313 313 313 308 310 315 313 313 312 312 312 311 311 310 310 310 311 311
311 312 313 314 313 314 314 314 314 314 313 313 312 311 312 312 312 312 311 311 312 312 312 312 313 314 308 301 300 306 313 313 313 312 311 311 312 311 313 312 311 312
310 310 311 311 311 310 311 312 312 312 312 311 311 311 310 311 311 311 310 311 311 312 312 312 313 310 303 299 298 297 305 313 312 312 312 312 312 312 312 311 311 312
310 311 311 311 310 309 309 309 309 309 308 309 310 310 310 310 309 309 310 309 310 311 311 311 312 305 299 298 297 297 298 306 312 312 312 312 312 312 311 311 312 313
312 311 310 310 310 310 309 309 307 306 305 306 308 309 309 308 308 308 308 308 309 309 310 309 310 301 297 297 297 296 295 299 312 311 311 311 312 312 312 311 313 313
309 310 309 308 309 309 309 308 307 306 306 305 305 308 308 307 307 307 307 306 306 307 308 308 307 298 297 296 295 295 294 296 308 310 310 310 310 311 311 311 312 313
301 301 302 304 307 307 307 306 305 305 305 304 304 304 306 307 305 305 305 305 305 306 306 308 307 297 295 294 294 294 294 302 306 308 309 310 310 310 310 311 312 313
298 299 299 298 299 299 301 302 303 304 304 304 305 304 304 305 307 306 306 306 307 309 310 307 306 299 293 293 293 292 295 303 305 306 307 308 309 308 309 310 311 312
297 297 297 297 297 297 297 298 299 301 303 306 307 306 306 305 305 304 305 306 306 307 307 306 306 298 293 293 293 292 296 303 304 305 306 306 306 304 305 308 310 308
297 297 296 296 295 295 296 296 296 297 298 300 303 306 306 305 305 305 304 304 303 303 307 306 304 299 292 292 292 292 294 300 303 305 305 304 304 303 302 305 306 307
296 297 296 296 295 295 295 295 295 296 296 297 297 298 300 301 303 303 304 305 303 303 304 304 304 303 296 291 292 291 291 297 302 304 305 304 301 303 303 302 302 303

ECMWFNIL_sfc_thetae_069.txt.gz
Theta_e
331 332 330 330 331 331 330 328 328 328 327 327 326 325 327 327 326 328 327 327 329 328 327 327 326 326 325 325 326 323 323 325 324 325 326 328 329 330 330 329 332 332
331 330 329 330 329 329 329 330 328 328 327 326 326 325 326 326 326 327 326 327 326 326 326 326 326 325 325 324 325 324 323 324 322 321 324 324 324 325 327 328 330 331
330 329 328 328 328 328 328 328 328 328 326 325 326 326 325 326 326 327 328 327 326 325 326 326 326 326 325 324 324 324 323 323 322 323 324 322 324 325 325 326 327 330
330 329 328 328 328 327 327 325 324 325 325 324 324 325 324 324 326 326 326 325 326 325 325 326 326 325 323 323 324 322 323 322 322 324 322 322 322 323 325 327 327 328
329 328 328 327 326 326 325 324 323 324 324 325 324 324 324 324 326 325 326 325 325 324 324 324 324 324 324 323 324 323 323 321 323 324 323 322 322 322 323 327 328 328
328 327 326 325 325 323 323 323 322 323 324 324 325 324 325 326 325 324 325 324 323 322 323 323 322 323 323 323 324 324 323 321 322 323 320 321 321 321 319 325 327 327
326 326 325 325 325 325 325 324 323 324 325 325 324 323 324 325 325 325 323 324 322 322 321 322 322 323 324 323 322 322 323 322 321 320 319 320 322 322 321 323 325 325
326 326 325 324 325 325 325 323 324 324 325 324 324 323 325 324 324 324 324 323 322 321 322 321 322 322 323 322 321 322 322 322 322 320 320 321 323 320 321 321 325 324
326 325 324 324 324 324 324 323 324 324 324 324 323 323 324 325 324 324 323 322 322 321 320 321 321 321 323 322 322 321 320 321 323 322 321 322 322 320 318 321 322 323
325 325 324 324 324 324 324 324 324 323 323 324 323 323 322 324 324 322 321 322 321 320 320 320 321 322 322 321 320 320 320 320 320 321 322 322 320 319 319 321 321 321
326 325 324 324 325 324 324 323 323 323 323 323 324 323 323 323 321 321 321 320 321 319 319 320 321 321 321 322 323 323 322 323 322 320 322 322 323 323 323 322 323 322
325 325 324 324 325 324 324 322 323 323 323 324 323 322 322 322 321 320 320 320 321 320 320 320 322 323 321 322 322 323 324 324 324 324 322 321 323 324 323 325 323 322
324 325 325 323 323 322 322 321 321 323 322 322 323 323 320 319 320 320 322 321 321 322 322 322 323 323 325 325 324 324 324 324 324 325 325 326 325 325 325 326 325 324
321 320 319 320 319 320 320 320 320 321 322 323 323 323 322 321 320 320 321 322 323 323 324 325 325 325 325 326 326 326 326 326 325 325 326 327 327 327 328 327 326 325
321 321 322 321 320 320 322 321 322 321 320 320 321 322 323 323 321 321 320 320 321 325 325 327 327 328 327 327 326 326 327 327 326 325 326 326 326 326 327 327 326 327
319 317 318 320 320 321 322 321 319 320 321 320 320 320 321 320 320 320 320 321 321 321 324 325 326 327 319 312 316 326 328 328 327 326 326 326 326 326 326 326 328 328
318 317 317 316 316 317 316 316 317 319 320 319 320 319 320 320 320 319 320 321 321 321 321 323 324 323 299 296 298 308 324 328 326 327 327 326 326 326 326 327 327 326
317 317 318 318 318 318 318 318 319 319 319 319 319 319 318 319 319 318 319 320 321 321 322 323 325 305 298 296 297 299 308 327 328 327 327 326 326 326 326 326 326 326
316 317 317 318 318 318 318 317 318 318 318 317 317 317 317 318 318 319 320 321 321 320 321 321 324 298 297 295 296 297 298 310 325 326 326 326 326 326 326 326 326 326
318 318 317 316 317 318 318 318 318 318 317 316 317 317 317 317 318 320 319 320 320 321 320 321 324 299 295 295 296 295 294 303 322 324 325 326 326 326 326 326 326 325
310 314 315 315 315 316 316 316 317 317 318 317 319 320 320 320 321 320 320 320 321 321 322 323 323 295 295 294 294 294 293 301 319 320 322 323 324 325 325 325 325 325
303 304 305 307 308 309 311 313 314 314 316 317 319 320 320 321 321 322 321 320 320 321 321 322 318 292 294 293 293 293 293 312 317 318 320 321 322 323 323 324 324 325
299 300 301 303 304 304 304 306 310 312 313 316 319 318 318 318 319 319 320 320 320 320 321 320 321 300 293 293 293 292 299 316 316 317 316 317 319 320 321 323 324 324
299 299 299 300 300 301 302 303 304 305 307 311 315 315 314 314 317 318 319 319 318 318 316 318 319 301 292 292 293 291 299 314 315 316 316 316 318 319 320 321 321 314
299 299 299 298 298 299 300 301 302 303 303 304 307 310 310 311 312 314 313 312 312 313 308 313 315 303 293 293 292 292 300 310 312 315 315 316 317 318 319 319 321 316
298 298 298 298 298 298 299 299 300 300 300 301 302 305 306 306 307 309 309 308 309 311 309 309 311 311 300 291 292 292 292 304 310 314 317 318 318 317 318 320 319 320

ECMWFNIL_sfc_thetae_072.txt.gz
Theta_e
339 339 338 335 334 335 335 333 331 330 330 330 329 330 329 333 333 334 335 335 335 334 332 331 331 332 332 332 332 329 330 333 333 334 336 337 335 336 336 336 336 335
337 337 336 335 334 336 336 333 331 330 331 330 330 330 332 333 335 334 333 333 331 330 330 330 331 330 330 329 330 329 329 331 330 330 333 332 330 333 334 335 336 336
336 335 334 334 334 336 335 334 332 331 331 331 333 332 332 333 334 334 333 331 328 329 330 329 329 329 328 328 329 328 328 329 328 329 329 327 328 328 331 333 335 335
336 335 333 333 334 333 333 332 333 333 333 331 330 331 332 333 333 333 331 328 327 329 329 329 329 328 325 325 327 326 327 326 327 328 327 327 327 327 330 333 334 335
335 334 333 333 334 334 334 332 333 332 331 330 332 331 330 332 332 331 329 328 328 327 327 328 328 329 327 326 325 325 324 324 326 326 324 324 327 329 330 332 334 334
335 334 333 332 333 334 334 333 332 331 331 331 331 329 331 331 330 328 328 328 326 326 325 325 325 327 328 326 326 325 325 323 324 324 321 323 324 327 325 329 332 332
335 334 334 332 333 334 333 332 332 332 330 330 329 329 331 330 329 327 326 326 326 324 323 323 323 326 328 327 325 325 324 323 322 321 320 322 323 325 326 326 326 329
336 335 334 332 333 333 332 331 331 331 331 329 327 329 330 328 327 327 326 326 324 323 322 322 323 325 327 326 324 324 323 322 321 321 321 322 323 322 325 325 328 325
336 334 333 333 333 332 331 330 331 331 330 328 327 327 329 328 327 328 326 325 324 323 321 321 323 324 326 325 323 322 320 322 323 322 322 322 321 321 321 324 324 326
335 334 333 332 332 331 331 331 331 330 328 327 327 327 325 327 328 326 326 325 324 322 321 321 322 324 324 323 322 321 321 322 322 323 323 322 321 320 320 322 323 324
334 334 333 332 331 330 331 331 331 329 328 327 327 326 326 327 326 326 325 324 324 321 320 321 321 322 323 323 324 324 323 322 322 322 323 322 322 321 324 322 322 322
332 331 329 330 331 331 331 330 329 329 328 328 327 325 326 324 324 324 325 324 322 321 321 320 321 322 322 322 323 324 325 324 323 323 322 321 322 322 322 322 322 322
325 326 328 326 327 331 332 329 328 329 327 326 325 325 325 324 323 322 324 322 322 322 321 321 321 322 322 323 323 323 323 323 324 324 323 324 324 323 324 324 323 322
324 324 326 325 323 324 325 328 329 328 327 326 324 325 324 323 322 322 324 323 323 321 321 323 324 324 324 323 323 324 324 325 324 325 324 325 326 326 326 326 326 326
322 323 324 323 323 322 322 322 325 327 327 326 325 325 325 323 322 322 322 323 322 322 321 323 325 325 325 325 325 323 326 326 326 325 326 325 325 326 327 327 326 327
323 325 323 323 323 323 324 324 324 325 324 325 325 325 325 324 323 323 322 322 322 324 326 326 326 328 323 306 309 326 326 326 327 327 326 326 326 326 327 327 327 328
323 322 322 322 323 323 323 321 321 323 323 322 323 324 325 325 325 323 323 323 322 323 323 325 327 327 298 298 300 302 324 328 327 327 328 327 327 326 327 328 329 328
322 322 320 321 321 322 322 321 320 319 319 320 321 322 323 325 324 324 324 325 325 324 325 326 328 304 297 298 299 299 302 325 330 330 329 329 329 328 329 330 330 331
320 320 320 320 321 321 320 319 318 315 316 319 321 322 324 323 322 322 321 323 324 323 324 326 328 296 297 295 297 298 299 308 329 330 329 329 329 329 329 329 330 330
321 320 320 320 321 321 320 319 319 319 322 322 322 322 322 322 322 323 323 322 322 324 324 326 326 298 294 294 296 295 296 302 328 331 331 330 330 330 330 330 330 330
320 320 320 320 321 320 320 319 319 320 320 321 322 321 321 320 322 322 322 322 323 324 325 324 311 293 294 294 294 295 295 298 328 330 330 330 331 332 332 331 331 331
312 314 316 318 320 319 319 319 319 319 320 320 321 322 322 322 322 323 321 323 323 323 324 320 307 292 293 293 293 295 293 319 327 328 327 327 328 330 330 330 330 330
306 307 309 311 315 317 317 317 317 319 321 322 322 322 321 321 322 322 322 323 322 323 323 319 310 296 292 293 294 292 298 324 326 326 326 326 326 327 328 328 328 327
305 306 307 308 311 315 315 316 317 318 319 321 321 320 320 320 321 320 321 322 322 321 320 321 313 298 292 292 292 292 298 321 325 325 326 326 325 326 326 326 326 322
305 305 306 306 307 308 311 311 311 310 311 315 317 319 319 320 320 319 320 320 320 319 312 320 317 303 292 292 291 292 303 322 322 324 323 324 324 325 327 326 327 320
304 304 304 304 305 307 308 309 310 311 311 311 311 312 312 313 315 316 314 314 316 317 317 319 316 310 299 290 292 293 292 308 322 322 322 323 324 323 324 325 325 326

ECMWFNIL_sfc_thetae_075.txt.gz
Theta_e
333 331 331 333 333 333 333 332 332 332 332 331 331 332 331 332 333 333 333 332 333 332 332 332 332 332 332 333 332 330 331 333 334 337 338 337 336 336 333 333 333 332
333 333 333 334 334 332 333 334 334 332 333 333 333 333 334 333 332 333 332 331 331 331 331 331 331 331 331 331 331 331 330 332 331 331 333 332 333 334 334 335 335 335
333 332 333 334 333 333 334 334 334 333 331 331 332 333 332 333 332 332 332 332 330 330 331 331 331 331 330 330 330 331 331 330 330 330 330 328 329 330 332 333 335 335
333 334 334 333 334 334 334 332 332 332 332 330 330 332 333 332 332 331 331 329 329 329 331 330 331 330 328 329 329 328 329 329 329 330 329 329 329 329 330 332 333 333
336 335 333 333 333 333 332 331 331 330 331 331 332 333 332 331 331 330 330 327 329 329 330 329 330 328 328 328 328 327 328 327 328 328 326 326 328 329 330 330 332 333
335 333 332 332 331 330 329 330 330 330 330 331 331 331 330 330 329 329 327 327 326 327 327 329 329 327 327 327 328 327 326 325 326 325 322 323 325 327 326 329 332 333
333 333 333 332 331 330 331 331 331 330 330 331 329 329 330 329 330 328 326 326 325 325 325 326 328 327 328 327 326 325 325 325 322 322 321 322 325 326 326 326 327 328
334 334 332 332 332 331 331 331 332 331 330 328 327 329 329 329 329 327 326 325 323 322 322 323 326 327 327 326 325 325 325 322 322 321 322 321 324 324 326 326 328 328
334 334 332 331 331 330 330 328 330 330 328 328 327 329 329 328 328 326 325 325 323 323 321 321 323 326 327 326 325 324 321 321 322 323 323 323 322 323 323 325 326 327
333 335 332 331 328 329 329 329 329 330 328 327 326 327 327 328 327 325 326 325 323 321 320 321 323 325 325 325 322 320 320 321 322 323 323 323 322 322 323 324 325 325
329 329 331 329 328 329 330 330 330 329 328 326 327 325 327 327 327 327 327 324 324 321 320 321 323 323 323 322 322 323 322 323 322 322 324 323 323 323 328 324 324 324
327 325 326 330 328 329 329 329 330 329 328 328 326 324 326 327 328 326 326 324 323 321 320 321 322 322 322 322 322 323 324 324 324 324 323 322 321 322 323 323 324 324
324 324 328 330 333 329 329 328 328 329 327 327 326 325 326 325 325 326 325 325 322 322 320 320 321 322 323 323 323 323 323 323 323 324 323 323 323 323 323 323 322 322
326 328 329 330 330 330 328 328 328 328 327 327 326 325 325 322 323 324 324 324 323 322 321 321 321 322 323 323 323 323 324 324 324 324 324 325 326 325 326 325 325 323
327 329 329 329 329 329 329 327 327 328 327 325 325 326 325 324 322 322 321 321 322 322 321 323 323 324 324 323 323 321 324 323 324 323 324 325 326 326 326 326 326 327
326 326 327 327 327 327 327 328 327 327 325 324 323 323 323 323 321 322 321 324 323 323 324 325 325 328 310 299 304 325 325 324 325 326 325 326 325 326 326 326 327 327
325 325 325 324 325 326 327 327 326 327 327 326 324 323 323 322 321 321 321 323 324 325 326 326 328 323 296 295 296 297 323 327 324 325 325 325 325 326 327 326 328 327
323 323 323 323 323 323 324 323 323 322 322 324 325 325 325 325 324 322 322 323 323 323 325 325 326 298 294 295 295 294 300 321 328 327 327 327 327 326 327 328 327 328
322 322 322 324 323 323 322 321 319 319 321 322 323 324 325 323 322 324 325 325 325 324 324 325 322 295 295 296 296 296 297 307 326 328 327 327 327 327 327 326 326 327
321 320 320 321 321 321 320 320 320 318 320 323 324 324 323 323 323 324 324 323 323 323 325 325 313 297 294 295 296 295 296 299 326 326 328 328 327 327 327 326 326 326
322 322 322 322 322 321 321 319 319 319 319 322 323 325 325 323 323 323 323 323 322 323 324 315 305 293 292 293 293 294 293 297 323 327 328 329 329 329 327 328 328 327
320 321 320 320 321 320 320 320 319 318 319 319 320 322 323 325 324 324 323 323 323 324 321 312 306 291 292 292 293 293 292 311 322 325 326 325 325 324 322 326 328 329
313 316 319 320 320 319 318 319 320 319 320 320 320 321 321 322 322 322 323 323 323 321 319 315 310 296 291 292 292 291 298 315 321 324 323 323 324 326 328 328 328 327
310 312 316 318 317 317 317 319 320 322 323 324 320 319 320 321 322 323 322 321 319 320 319 313 307 296 291 292 292 291 295 310 319 322 323 324 325 326 327 326 326 323
307 308 310 311 312 314 315 316 316 317 320 322 322 322 321 321 321 321 320 319 318 318 314 313 308 301 292 291 291 291 296 307 315 319 321 321 321 322 324 325 323 321
308 308 308 309 310 310 312 315 316 316 317 319 322 322 321 318 320 318 317 317 317 318 317 315 310 304 296 290 291 291 290 299 311 318 320 319 319 318 319 320 320 318

ECMWFNIL_sfc_thetae_078.txt.gz
Theta_e
335 335 336 337 336 335 333 333 334 333 333 332 332 332 333 333 336 334 334 335 334 334 333 333 333 334 334 333 333 330 331 333 335 339 337 335 334 333 334 332 332 332
334 335 333 333 332 334 335 335 334 333 333 334 334 334 332 333 333 332 333 333 333 332 331 332 334 334 333 333 334 331 331 333 331 333 335 334 333 334 333 335 333 333
335 334 332 332 333 333 337 337 335 335 333 335 335 333 332 333 333 333 333 333 331 331 332 333 333 334 333 333 333 330 331 331 330 332 331 330 332 332 332 334 334 333
335 334 333 334 337 336 336 334 334 332 331 332 332 333 332 333 334 333 333 332 330 331 333 333 333 333 328 330 332 330 330 330 331 333 330 330 332 330 331 332 333 332
333 333 334 336 337 335 334 332 330 330 330 332 333 333 331 333 331 330 329 330 330 331 332 332 333 332 330 330 329 329 331 329 330 330 329 330 330 330 332 332 331 331
333 332 332 335 334 332 331 331 330 331 331 331 332 331 332 332 329 327 327 327 329 329 331 331 330 328 329 330 329 329 327 327 329 328 324 327 325 329 327 331 331 331
331 332 334 334 332 331 331 330 329 329 330 331 331 331 330 330 328 326 325 326 326 326 327 329 327 329 331 329 328 328 329 326 326 325 322 324 325 328 325 328 327 328
330 330 328 329 330 329 330 330 329 329 330 329 329 329 329 329 327 327 326 325 323 324 325 326 326 329 329 329 326 328 326 328 326 326 325 319 324 325 326 327 329 327
329 330 331 330 329 331 330 329 329 329 328 329 329 329 329 330 327 327 326 324 322 323 322 324 326 327 329 329 328 325 323 324 327 325 322 324 325 323 322 325 327 328
328 329 328 328 328 329 330 329 329 328 328 328 328 328 328 330 327 327 327 326 323 320 321 322 326 327 328 328 323 323 322 323 325 322 324 325 325 322 322 324 325 328
328 327 327 329 328 329 329 330 330 328 327 327 328 328 328 328 326 328 328 325 325 320 320 322 324 325 327 325 324 325 324 326 323 323 326 325 323 324 327 324 325 326
326 326 327 330 329 329 328 329 329 328 328 327 326 326 327 328 326 327 327 324 323 321 321 322 322 325 323 321 321 325 326 325 325 326 326 322 323 323 324 327 326 325
326 326 330 333 330 329 330 329 328 328 327 325 326 327 326 327 326 326 329 325 324 323 322 323 322 324 324 324 323 325 325 326 324 326 325 325 325 324 323 325 324 325
327 330 330 331 330 328 328 328 328 327 328 327 328 327 327 326 324 325 328 327 325 323 322 324 324 325 323 325 325 326 325 325 327 326 326 325 326 326 327 326 324 323
329 329 329 329 328 328 327 327 326 329 327 326 328 326 329 326 325 324 327 325 325 325 321 324 325 322 319 321 324 324 326 327 326 327 325 326 326 326 326 327 326 327
328 327 327 327 327 327 328 327 327 328 325 325 325 324 327 323 323 323 325 326 323 325 324 324 320 315 303 298 301 320 326 326 328 327 327 326 326 327 326 326 328 326
325 324 324 324 325 325 324 323 324 326 326 323 323 323 326 323 324 320 325 325 323 324 324 320 313 304 296 294 296 298 315 326 327 326 327 327 326 326 327 326 327 326
324 324 324 324 324 322 321 322 323 324 323 324 324 324 324 326 325 323 323 325 324 324 323 317 309 298 294 295 295 294 300 317 324 326 328 328 327 325 324 323 323 324
323 323 323 322 321 320 319 320 321 321 321 322 323 324 325 323 323 322 321 323 325 322 317 313 309 295 295 295 295 293 294 310 322 324 324 325 325 324 321 323 321 320
321 320 319 319 319 320 319 319 318 317 318 320 322 322 322 323 322 321 322 322 323 318 312 308 304 296 294 294 295 294 293 302 322 324 325 325 325 323 322 322 324 324
321 320 319 318 318 318 318 317 317 318 318 319 321 323 323 321 321 320 320 321 321 317 311 307 300 293 293 293 293 294 294 300 321 324 324 325 326 325 321 323 323 324
318 320 319 319 319 319 317 316 316 317 318 319 320 321 323 324 322 321 320 321 321 317 312 307 300 291 292 292 292 292 295 313 319 322 323 324 324 326 323 322 322 321
315 317 316 317 318 318 318 316 316 317 318 318 319 319 321 321 321 322 322 322 319 317 312 306 300 293 291 291 291 291 298 312 318 320 321 322 322 323 322 322 321 321
311 313 313 315 317 317 317 318 319 318 318 321 318 318 318 320 320 320 320 319 316 312 308 303 299 294 291 291 291 291 296 308 314 317 319 321 320 321 321 321 319 318
308 310 310 311 311 313 315 315 317 318 318 318 317 318 318 319 319 317 317 317 314 311 308 304 300 297 292 292 292 292 296 304 310 315 317 318 317 318 320 319 318 307
307 308 309 309 309 310 310 312 315 318 319 317 317 317 316 315 315 314 313 312 311 310 308 304 301 298 294 292 293 294 294 306 313 308 307 309 316 316 317 319 317 311

ECMWFNIL_sfc_thetae_081.txt.gz
Theta_e
327 329 329 329 329 329 328 327 327 326 326 327 328 328 328 328 330 329 328 328 327 326 325 324 324 324 327 325 325 326 328 328 328 329 329 329 328 327 328 327 326 326
325 328 330 329 328 329 329 328 328 328 327 328 328 328 328 328 328 327 326 326 326 324 324 324 325 324 323 325 326 326 325 327 327 332 329 327 326 327 326 326 326 325
327 324 327 327 328 328 328 329 328 328 328 328 328 327 327 327 326 326 325 325 324 323 323 323 323 324 324 325 324 325 325 324 325 326 327 327 326 327 326 326 325 325
327 326 326 328 327 328 330 328 327 327 327 326 326 327 327 327 325 326 326 327 322 322 322 323 323 324 323 324 324 323 324 324 325 324 324 323 325 327 327 327 326 325
329 328 327 327 329 328 327 326 325 325 325 325 325 326 326 325 324 323 322 322 322 322 322 322 323 322 322 324 323 321 321 322 322 322 321 320 322 326 326 327 326 325
328 328 328 326 327 325 325 324 325 325 325 324 324 325 325 323 322 322 322 321 322 322 322 321 320 320 322 322 322 321 320 321 319 321 321 321 321 322 327 326 325 324
325 325 326 327 327 326 325 324 324 325 325 325 324 324 323 321 321 321 321 322 321 321 321 319 318 319 320 320 319 318 319 319 319 319 317 317 319 320 324 325 324 324
325 325 325 326 326 326 325 325 325 325 325 324 323 323 323 321 320 320 321 321 320 320 320 319 318 320 319 318 317 318 318 320 317 316 315 317 316 320 320 324 322 322
325 324 325 325 325 325 325 325 325 324 324 324 323 323 323 321 321 320 320 320 319 320 319 319 319 319 318 319 317 314 313 314 317 315 313 314 318 319 321 322 322 322
324 324 324 325 325 325 324 324 324 323 324 324 323 322 323 321 322 322 320 318 318 318 319 319 320 319 318 317 316 314 313 315 315 314 315 316 317 319 321 323 322 321
322 323 323 324 323 324 324 323 322 322 322 323 322 322 322 320 320 320 319 316 317 316 317 317 319 318 318 315 315 314 314 316 314 316 317 316 318 320 325 321 322 321
321 321 322 324 324 324 323 322 321 321 322 322 322 322 320 319 319 318 318 316 314 315 315 318 319 318 315 314 314 315 315 315 316 316 315 317 319 319 320 320 320 319
321 321 322 323 324 323 323 322 321 321 322 322 322 321 319 318 318 318 317 316 315 315 316 317 318 317 314 313 315 317 317 317 316 315 316 316 315 316 318 320 319 319
320 322 323 323 323 323 323 322 321 320 320 320 321 320 319 319 319 318 317 314 315 314 316 316 314 313 313 314 317 317 317 317 317 316 316 316 317 318 317 317 318 317
322 323 322 323 322 322 322 321 320 320 320 320 320 320 321 319 319 318 317 314 316 315 313 312 310 308 306 305 315 317 317 316 316 316 317 317 317 318 319 319 318 317
321 321 322 321 322 321 320 320 320 320 319 318 318 318 318 318 317 317 316 316 315 312 311 309 307 305 300 298 304 317 318 319 318 317 316 317 318 317 318 320 320 319
320 320 320 319 319 319 320 320 320 320 317 317 318 318 316 316 316 317 318 317 314 311 308 306 303 300 295 293 296 304 317 318 319 319 319 320 318 317 315 317 319 321
319 319 318 317 318 318 318 319 320 320 319 319 319 319 318 319 320 319 318 315 313 310 308 305 300 296 293 294 295 298 308 318 319 320 321 319 319 319 319 318 319 319
319 318 316 316 316 316 316 317 318 318 318 319 318 318 318 319 318 317 315 313 311 308 305 303 301 294 293 294 294 296 302 313 318 319 320 318 319 320 320 319 318 317
317 316 316 315 315 315 315 314 315 315 317 318 318 317 317 317 318 317 315 312 310 307 304 301 298 294 293 294 294 295 301 310 319 319 320 320 319 319 318 318 317 316
316 315 315 315 315 314 313 314 313 315 315 317 318 318 316 315 316 315 313 311 309 306 302 300 297 292 292 293 294 297 302 308 319 320 321 321 319 318 318 318 318 317
316 315 315 315 314 314 313 313 313 314 314 315 317 318 318 317 317 317 314 312 309 304 300 298 296 292 292 293 294 298 303 315 318 319 320 320 320 319 318 317 317 316
312 314 314 315 314 313 312 312 313 314 314 316 316 317 317 317 316 315 313 309 305 302 299 297 296 293 292 293 293 297 304 312 314 316 318 317 317 318 317 317 317 317
309 310 310 312 314 314 314 314 314 314 314 314 315 314 314 314 313 309 307 305 302 300 299 297 296 294 293 293 294 296 303 310 312 313 314 315 316 316 313 309 306 310
309 309 309 309 309 311 313 314 314 314 314 315 315 315 314 313 310 307 305 303 302 300 301 297 296 296 293 293 294 296 301 304 305 306 306 307 312 312 309 305 301 300
304 308 309 309 308 309 310 312 313 314 313 313 312 312 311 309 307 306 304 304 303 302 300 298 297 295 294 293 294 295 296 301 301 301 302 304 306 311 310 305 302 300

ECMWFNIL_sfc_thetae_084.txt.gz
Theta_e
326 326 326 327 327 327 325 324 324 324 324 324 324 325 327 327 327 328 327 326 326 326 326 325 326 326 328 327 327 328 327 327 327 325 326 325 323 323 324 321 320 321
325 325 325 327 327 327 326 325 325 324 324 324 325 325 325 326 327 327 325 324 324 324 324 324 324 325 325 324 324 324 323 324 325 328 326 325 323 324 323 323 322 320
325 324 324 325 326 326 325 325 325 324 324 325 324 324 325 325 325 324 324 323 321 321 322 322 322 324 324 324 324 324 324 323 324 324 325 325 323 324 323 322 322 323
324 324 324 325 325 326 325 324 324 325 323 324 324 324 325 324 323 322 323 325 320 320 320 321 322 323 324 323 323 322 323 324 324 324 323 322 323 324 323 322 320 320
324 324 326 325 325 326 325 325 324 325 325 324 323 323 323 322 322 321 320 320 320 319 320 320 320 321 322 322 322 321 320 321 320 323 322 321 321 324 322 323 321 321
325 326 326 326 326 326 325 324 324 324 324 323 323 323 322 321 320 320 320 319 319 320 318 317 319 319 321 320 320 320 321 321 318 319 320 321 320 320 326 323 322 320
326 325 325 325 325 324 324 324 324 324 323 323 323 322 321 320 320 320 319 320 319 319 318 315 317 317 318 319 319 318 317 318 317 319 320 318 319 318 323 323 322 321
325 325 325 324 324 323 324 324 324 323 323 323 322 321 321 320 319 319 319 320 319 318 316 316 317 318 317 317 318 315 314 316 316 315 316 316 315 317 318 323 321 321
323 324 324 323 323 323 323 324 323 323 323 322 321 319 319 320 319 319 319 319 318 317 316 315 317 316 315 316 315 315 313 313 314 313 313 314 315 317 320 319 319 320
322 323 323 323 322 323 323 324 324 323 323 322 321 319 319 319 319 319 319 318 318 316 316 316 316 316 315 314 313 312 310 312 312 311 313 315 317 317 319 319 319 318
321 322 323 322 322 323 324 324 324 323 322 321 320 319 318 318 318 318 318 317 318 316 316 316 316 315 314 312 312 310 311 312 311 312 313 315 317 318 323 319 319 319
320 321 321 322 322 323 323 323 323 323 322 321 321 319 318 318 317 317 317 317 317 317 316 316 315 315 314 312 311 312 312 311 311 312 315 316 317 319 319 319 319 317
319 319 318 320 322 322 322 322 322 322 321 320 321 320 317 317 317 316 316 316 317 317 316 316 314 314 313 313 313 312 312 312 312 313 315 316 315 315 316 316 317 316
317 318 318 319 321 322 322 321 321 321 321 320 320 319 317 317 316 316 314 314 314 314 312 312 311 310 310 312 314 313 312 312 313 313 314 314 314 315 314 314 313 313
317 317 319 320 320 321 321 320 320 320 319 319 319 318 318 317 316 314 313 313 312 311 309 309 307 306 305 306 313 314 313 314 315 315 316 315 315 314 314 314 314 314
318 318 320 319 319 319 319 318 318 318 319 318 318 318 317 315 315 314 313 311 309 308 307 306 305 304 302 301 308 316 316 316 315 315 316 315 315 315 315 316 317 318
318 318 318 317 317 318 317 316 316 317 317 316 316 315 315 315 314 312 311 310 308 306 305 303 302 301 297 297 304 308 316 317 316 315 315 315 315 316 315 315 314 316
316 317 317 317 318 317 317 316 316 316 316 316 316 316 316 314 312 310 309 308 307 305 304 302 300 297 294 296 302 305 310 317 317 316 316 316 316 316 316 315 315 316
316 315 315 315 315 315 315 315 316 316 316 317 317 316 314 312 310 309 308 306 305 303 302 301 299 295 294 297 300 301 305 312 316 316 317 316 316 316 315 314 313 315
315 313 312 312 313 315 316 316 315 315 315 316 316 315 313 311 309 308 306 304 303 302 300 299 298 295 294 298 300 301 304 309 317 315 315 317 317 316 316 315 314 314
314 312 312 312 312 313 314 314 314 314 314 314 315 314 312 310 308 306 305 303 302 302 300 298 296 293 293 297 301 302 303 307 317 317 316 316 315 315 315 316 316 316
313 312 312 312 312 313 313 312 313 313 314 315 315 314 312 310 308 305 303 302 301 300 300 299 297 293 293 295 299 301 305 316 317 317 317 317 316 316 315 315 316 315
311 312 312 311 311 312 312 312 312 312 313 313 312 310 308 306 304 303 302 301 301 301 300 298 297 294 293 295 297 302 308 317 317 316 316 315 313 309 306 307 309 309
309 309 310 310 312 310 311 312 311 312 312 312 310 307 305 304 302 301 301 300 299 299 298 297 296 295 293 294 295 297 306 314 314 315 313 310 306 304 302 302 303 307
307 308 308 309 310 311 312 312 312 312 312 311 309 307 305 304 302 301 300 299 299 299 300 297 296 296 293 293 294 295 302 306 308 310 310 307 304 302 302 301 300 299
302 303 305 307 309 310 310 310 311 312 311 309 307 306 304 303 302 301 299 299 299 297 297 296 296 295 294 293 294 294 297 303 304 307 307 307 305 302 300 299 299 298

ECMWFNIL_sfc_thetae_087.txt.gz
Theta_e
326 326 325 326 326 327 327 327 327 327 327 327 326 324 324 325 325 326 326 325 325 325 324 325 325 326 328 327 327 327 326 325 324 323 324 323 322 321 321 320 318 320
326 327 327 327 326 326 327 327 326 326 324 325 325 323 322 323 323 326 324 324 325 324 322 323 324 325 325 326 324 325 323 323 323 325 323 322 321 321 321 320 320 317
325 325 326 327 326 326 325 325 325 324 323 323 323 323 323 323 323 323 324 323 324 322 322 322 322 323 324 324 323 324 323 321 322 320 323 322 320 322 321 320 318 319
325 325 326 327 326 325 324 324 324 323 322 322 323 324 325 325 323 323 322 326 321 320 320 321 322 322 322 322 322 320 321 321 321 321 321 319 321 322 320 320 318 317
324 324 325 326 326 325 324 324 323 323 323 324 323 323 324 323 322 321 320 318 319 318 319 319 320 322 321 321 320 319 318 319 318 321 321 320 319 320 319 321 320 319
324 325 325 325 325 324 323 324 324 324 324 322 321 321 322 322 321 320 319 317 317 318 318 318 319 320 321 320 319 320 320 320 318 319 320 320 318 318 323 320 319 319
324 325 325 324 324 324 324 323 323 323 323 322 322 321 321 319 320 319 318 318 318 318 318 317 317 317 317 318 318 318 317 318 316 318 320 316 318 316 320 319 320 319
323 324 325 324 323 323 323 323 322 322 322 321 321 322 322 320 318 318 318 318 317 316 315 316 317 317 315 316 318 315 313 317 317 316 315 314 314 316 317 321 318 318
324 324 324 323 322 322 322 323 322 322 322 322 321 321 321 320 319 318 318 318 317 315 314 315 316 316 314 316 315 314 314 312 314 314 314 313 314 316 318 317 316 316
323 323 322 322 321 321 321 322 322 322 322 322 321 321 320 319 319 318 317 317 316 313 314 314 315 314 314 314 315 313 312 312 310 311 313 314 316 316 317 317 317 316
320 321 321 320 319 319 320 321 321 321 321 321 320 320 319 318 318 317 316 316 316 314 313 313 315 314 313 311 311 311 311 310 310 310 311 314 314 316 321 317 316 316
319 319 320 320 320 320 320 321 321 321 321 321 320 319 319 319 317 317 317 316 315 315 315 315 314 313 312 310 309 308 308 308 309 310 311 312 312 315 315 315 315 315
317 318 319 320 320 321 322 322 321 321 321 320 319 319 318 317 316 316 315 316 316 316 315 314 312 311 310 308 309 309 309 309 309 310 312 313 312 313 313 314 314 314
316 318 317 319 320 321 321 322 321 320 321 320 320 317 317 317 316 315 312 313 313 312 311 310 309 308 307 308 309 309 310 309 311 313 313 312 311 311 311 311 312 312
316 318 317 318 319 319 318 320 320 320 320 320 318 317 316 314 314 313 312 310 310 309 308 307 306 305 304 304 309 310 311 312 313 314 313 312 311 312 312 312 312 312
317 317 318 318 319 318 318 318 318 318 319 318 316 314 313 312 313 313 311 310 308 307 306 306 305 304 305 301 307 313 313 314 313 313 313 313 313 314 314 315 315 315
317 317 318 318 318 317 315 317 317 317 317 315 314 313 312 312 312 310 308 308 307 305 304 303 303 302 297 299 303 307 314 313 313 312 313 314 314 314 313 313 313 314
316 316 316 316 317 317 316 316 315 315 314 314 312 311 310 310 309 308 307 306 305 304 303 302 301 299 296 303 302 303 308 314 313 313 313 313 313 313 312 312 311 312
315 315 315 316 316 316 315 315 314 314 314 312 311 310 309 308 307 306 305 305 304 303 302 302 300 297 297 300 300 301 303 310 314 314 314 313 313 313 312 311 309 309
312 312 312 313 313 314 314 314 314 313 312 311 310 309 307 306 305 303 303 303 303 302 301 301 300 297 298 299 300 301 303 308 315 315 314 314 313 313 312 313 313 312
311 311 311 312 313 313 312 312 312 311 310 309 308 307 306 304 303 302 302 302 302 302 302 300 298 293 297 299 300 301 303 306 314 313 313 313 314 314 313 313 312 312
311 310 310 311 312 312 312 311 311 311 309 309 308 306 304 303 302 302 301 301 301 301 300 299 297 293 292 298 300 301 304 313 315 315 313 311 309 309 310 311 311 310
310 311 310 310 310 311 311 309 309 308 307 306 303 302 302 301 300 300 301 300 300 299 298 297 296 294 292 294 300 303 307 315 314 312 309 305 303 304 304 305 305 304
308 309 310 310 311 309 309 309 308 307 305 304 302 300 299 300 300 299 299 299 298 298 297 296 296 295 292 293 295 302 309 314 312 308 304 302 301 301 301 301 304 306
303 306 308 309 309 310 310 308 307 306 305 303 301 300 299 299 299 298 298 298 298 298 300 297 296 296 293 292 294 297 307 312 309 306 302 301 300 299 299 299 298 298
301 302 303 305 307 308 309 308 307 305 303 302 301 301 299 299 298 298 296 297 297 297 297 297 296 295 294 292 294 295 299 308 307 304 301 300 299 299 298 298 298 297

ECMWFNIL_sfc_thetae_090.txt.gz
Theta_e
326 326 326 326 326 327 328 329 329 328 327 328 326 325 325 326 326 328 328 327 328 328 327 327 327 327 327 328 328 328 327 327 326 326 326 326 325 324 323 323 323 324
326 326 326 326 326 327 328 329 329 329 328 328 328 326 324 325 326 327 326 326 327 326 325 325 325 326 327 327 327 326 325 324 324 325 325 325 324 323 324 323 323 322
326 325 325 325 325 326 327 328 328 328 328 328 327 326 324 325 325 326 326 325 326 325 324 325 326 326 326 327 326 326 325 324 324 324 325 324 322 323 323 322 322 322
325 326 326 326 326 326 327 327 327 327 326 325 326 325 325 325 325 325 325 328 324 324 323 323 325 325 325 324 325 324 324 324 324 324 323 322 323 323 322 322 321 321
325 325 326 327 327 327 326 326 326 326 325 325 324 324 325 324 323 324 323 323 323 322 322 322 322 323 323 323 324 322 322 322 321 323 323 322 322 323 321 322 322 321
325 326 326 326 326 326 326 326 326 325 324 323 323 323 323 323 323 322 321 320 320 321 321 321 322 322 322 322 321 322 322 322 321 322 322 322 320 320 323 322 322 321
324 324 325 325 325 325 325 325 324 324 323 323 322 322 321 321 321 320 319 319 319 320 320 320 320 320 320 321 321 320 320 321 320 322 322 320 321 321 323 322 322 322
324 325 325 325 324 325 325 324 324 323 322 322 322 321 322 321 321 320 318 318 319 319 318 319 320 320 319 320 320 319 318 320 320 320 320 319 321 321 320 322 321 321
323 323 323 323 323 324 324 324 323 322 322 322 321 321 321 321 320 319 318 319 318 317 318 318 319 319 318 319 319 319 319 318 319 319 319 319 320 321 321 321 320 320
320 321 322 322 322 322 322 322 322 321 322 321 321 321 320 320 320 319 318 318 317 316 317 317 317 317 317 318 318 318 318 317 316 317 318 319 320 319 320 321 321 319
318 320 321 321 321 321 321 322 322 322 322 321 321 320 320 319 319 319 318 318 317 316 316 317 317 317 316 315 315 316 316 315 315 316 316 317 318 318 322 320 320 320
318 318 319 319 320 320 321 321 321 321 321 320 320 319 317 319 318 318 318 317 316 316 316 317 316 316 316 315 314 313 313 313 313 313 314 315 316 318 319 319 319 319
317 318 318 318 319 320 320 321 321 321 320 320 320 320 318 317 317 318 317 317 316 315 315 315 315 314 313 312 312 311 311 311 311 313 314 315 315 316 316 317 318 318
315 316 317 317 318 319 320 320 320 320 320 320 320 320 319 318 317 315 314 314 313 312 312 313 312 311 310 311 311 311 311 311 313 314 313 313 313 313 313 314 314 315
316 316 316 317 318 318 319 319 319 319 319 319 319 318 317 317 316 314 312 310 309 309 309 309 310 309 310 311 312 311 312 313 314 314 313 312 312 313 313 314 314 315
317 316 317 318 318 318 318 318 318 318 318 318 317 317 315 314 313 312 311 310 308 307 307 307 307 307 305 302 308 313 314 314 314 313 314 314 314 314 314 315 315 316
317 317 317 317 316 316 316 317 317 317 317 315 314 314 313 313 311 310 308 308 307 306 305 305 304 304 298 294 298 305 314 314 314 314 315 315 314 314 314 315 316 316
314 315 316 316 315 314 315 315 315 315 313 312 312 311 311 310 308 307 306 306 305 305 304 304 303 299 297 297 299 302 307 314 315 315 315 315 315 315 315 315 316 316
312 313 314 314 314 314 314 314 313 312 312 311 310 310 309 308 306 306 305 305 305 305 304 304 303 295 297 298 299 300 303 310 315 315 315 315 314 314 314 314 313 312
311 312 312 312 313 313 313 312 311 309 309 308 308 307 306 305 304 304 304 304 304 304 303 302 301 296 297 298 300 300 302 307 315 315 314 313 313 313 313 313 313 312
311 311 311 312 312 312 311 310 309 308 306 305 305 305 304 303 303 303 303 303 303 303 302 300 300 294 296 298 299 301 302 306 314 314 313 312 312 313 313 313 311 310
310 310 310 311 311 310 309 307 306 305 304 304 303 302 303 303 302 302 301 301 301 301 301 300 298 293 294 295 297 299 303 313 313 312 310 309 309 309 309 309 309 308
308 310 309 309 308 307 306 304 303 302 302 303 301 301 300 300 300 300 300 300 301 301 300 299 298 295 293 294 296 298 306 312 310 308 307 305 304 305 305 306 305 304
305 307 308 308 307 306 304 303 303 302 301 301 300 299 298 298 299 299 299 300 299 299 299 299 297 295 293 296 298 298 303 309 308 305 303 302 301 301 301 301 303 305
303 305 307 307 306 305 304 303 302 301 301 300 299 299 298 299 299 297 297 298 298 299 300 298 297 296 293 294 297 299 303 306 304 302 300 300 300 299 300 299 299 298
302 303 305 306 305 304 304 303 302 302 301 300 299 299 298 298 297 297 295 295 296 296 296 296 296 295 293 292 294 296 299 306 305 303 300 300 300 299 299 298 298 298

ECMWFNIL_sfc_thetae_093.txt.gz
Theta_e
330 330 328 328 329 330 330 330 330 329 330 331 331 331 331 332 333 331 331 333 333 333 332 332 332 333 333 334 335 333 333 334 333 333 334 334 336 335 333 333 333 334
329 330 329 329 329 330 330 331 329 330 331 332 332 332 332 333 333 331 331 331 333 333 333 333 333 334 334 333 333 331 331 333 332 332 332 332 332 332 333 334 332 332
329 329 329 328 328 328 329 330 330 330 331 332 333 332 330 331 331 332 332 333 333 334 334 334 335 335 334 334 334 333 333 334 333 334 333 332 332 332 334 334 332 330
329 329 330 330 329 328 328 329 329 330 331 331 331 332 332 332 331 332 333 334 334 334 334 334 335 335 335 334 333 332 331 332 333 334 334 334 333 334 335 336 334 331
329 329 330 330 331 329 328 327 328 329 329 330 331 332 330 331 331 331 331 332 333 334 334 334 334 332 333 333 332 330 330 331 332 334 334 334 335 335 336 336 335 335
328 328 329 329 330 330 328 327 327 328 328 330 330 331 330 331 332 331 332 332 332 332 332 333 332 332 332 331 329 329 330 332 333 335 335 335 335 335 333 335 335 334
329 329 329 329 330 331 330 328 328 327 328 328 330 330 331 331 333 334 334 332 332 332 332 333 332 331 331 330 329 330 333 335 335 335 334 335 335 334 334 335 334 333
328 328 328 328 328 329 329 328 327 326 327 328 329 332 333 333 333 333 333 333 332 333 334 334 333 332 332 331 331 331 334 336 335 334 333 334 335 334 335 334 336 334
327 327 326 328 329 330 329 328 328 327 329 329 330 331 331 332 333 332 332 332 333 333 333 334 334 334 334 334 333 333 333 334 335 334 333 334 334 334 333 334 334 334
324 325 326 328 328 330 329 329 329 328 328 330 330 331 330 331 331 329 329 330 332 332 332 333 333 334 334 335 335 334 333 333 334 334 333 333 333 334 333 334 334 334
322 324 325 327 327 328 328 328 328 329 329 329 329 328 328 327 326 325 327 328 330 331 331 332 333 333 333 333 334 335 333 333 333 333 334 333 334 334 333 334 334 333
322 323 323 324 326 327 328 328 328 328 328 329 329 327 326 326 324 324 326 326 328 329 330 331 332 332 332 332 332 333 334 334 334 334 333 332 333 333 334 334 334 333
321 322 324 325 325 326 328 328 327 328 327 327 328 327 326 325 324 323 323 325 325 328 330 331 331 331 332 332 331 331 332 331 331 331 330 331 331 332 333 333 334 333
320 321 323 324 326 327 327 327 327 327 327 328 327 326 326 326 325 324 323 324 324 325 326 329 329 329 329 330 330 330 329 329 329 329 328 329 330 330 331 332 332 333
319 322 322 323 324 325 326 326 326 326 326 327 327 327 326 324 324 324 323 322 322 323 322 324 326 327 328 328 327 327 328 327 327 327 328 327 327 327 328 328 328 329
317 320 322 323 323 323 324 324 325 325 325 325 325 326 325 323 320 321 322 322 322 321 322 323 322 321 312 309 316 326 327 326 327 327 327 327 326 326 326 326 326 324
316 318 321 321 321 321 322 321 322 323 322 322 322 322 323 321 320 318 318 319 320 321 321 320 319 311 298 295 302 309 324 327 326 326 327 327 327 326 324 323 323 321
316 317 318 319 319 319 318 318 317 318 318 318 319 319 317 318 317 314 315 317 319 319 319 318 315 300 294 296 301 305 313 327 327 326 326 327 326 325 323 323 323 324
314 315 316 317 317 317 317 316 315 315 315 315 314 314 313 311 311 313 314 317 318 317 316 315 313 296 296 297 299 301 306 317 326 326 326 326 325 324 323 323 323 323
313 313 314 314 314 314 314 313 312 311 311 311 310 310 310 310 311 311 313 315 316 315 314 313 310 298 296 298 299 300 304 313 326 326 326 326 325 325 325 325 325 324
312 312 311 310 310 309 309 309 309 308 307 307 306 306 305 306 306 306 306 308 311 314 314 312 307 294 295 295 297 301 304 311 326 326 325 325 325 326 325 325 325 325
311 310 309 308 307 307 306 304 304 304 305 305 304 304 304 305 306 306 304 305 306 308 310 310 307 293 294 295 297 300 306 323 324 324 322 321 320 320 321 321 322 322
309 309 308 306 305 304 304 304 303 302 303 304 302 302 302 302 301 302 303 304 305 305 306 305 305 297 294 295 297 301 310 320 319 318 318 317 316 316 314 314 314 315
308 308 307 305 304 303 303 304 304 303 302 303 302 300 300 300 300 300 300 300 300 301 303 304 303 297 294 296 298 299 305 313 311 310 307 305 306 306 307 306 305 304
305 306 306 304 302 302 302 302 302 302 302 303 302 301 300 300 300 298 297 298 298 298 300 300 300 298 293 294 296 299 309 315 312 309 305 302 302 303 304 305 303 300
304 304 304 303 302 302 302 302 302 302 302 301 301 300 299 299 298 297 296 296 297 297 296 297 298 297 294 292 294 295 300 310 309 307 303 304 306 307 306 306 305 303

ECMWFNIL_sfc_thetae_096.txt.gz
Theta_e
335 335 335 333 332 333 335 336 336 335 334 335 334 336 336 337 336 336 337 335 334 334 335 334 335 335 334 334 334 336 335 335 336 335 335 335 334 332 330 333 331 333
334 334 333 334 334 334 334 335 337 336 335 336 336 335 337 337 336 336 334 332 334 333 335 334 334 333 333 333 335 335 335 334 335 334 333 332 332 333 331 331 333 334
333 334 333 333 333 335 336 336 336 337 336 336 337 336 336 336 335 335 334 333 333 333 334 335 334 334 335 333 335 335 333 334 334 335 334 332 333 332 334 332 333 338
333 334 334 334 335 335 337 336 336 336 336 335 334 335 336 335 334 333 333 334 335 336 334 334 335 337 335 335 336 334 335 336 335 335 333 332 334 336 337 336 336 335
332 332 333 333 334 335 335 334 335 336 336 335 336 335 335 333 333 332 333 335 336 336 334 332 335 337 336 335 335 335 333 332 333 333 331 330 334 336 336 335 332 336
332 332 332 332 332 333 333 332 332 334 334 335 335 335 334 333 333 332 332 333 334 335 334 333 332 334 333 333 336 336 337 336 337 337 333 331 332 334 334 332 332 334
332 333 335 335 334 333 333 333 332 333 333 334 334 335 334 333 333 333 333 333 333 332 332 333 332 333 334 334 331 334 336 337 336 336 333 333 331 333 333 334 332 330
331 333 334 333 334 334 332 331 330 333 334 333 333 335 335 334 334 334 333 331 331 332 336 334 333 333 336 335 335 336 337 336 336 335 333 332 335 333 335 333 333 332
329 330 331 331 332 332 331 331 333 334 334 333 333 334 335 336 336 333 331 331 331 333 334 334 335 335 336 336 335 337 335 335 333 333 332 333 335 335 334 334 334 333
328 328 329 329 329 332 332 331 334 334 333 333 333 335 335 334 332 332 333 332 330 329 330 330 334 336 335 333 336 336 336 335 333 331 331 334 335 335 335 335 335 334
326 327 327 328 329 331 331 333 334 334 333 331 333 334 334 333 333 334 334 333 332 331 330 331 333 331 331 334 332 334 332 330 329 329 331 332 334 336 335 336 335 335
324 326 327 327 328 329 330 332 334 333 332 332 333 333 332 333 332 333 333 334 333 331 329 330 329 332 333 332 334 333 332 331 330 331 331 331 334 334 334 336 337 335
323 325 326 327 328 329 330 330 330 332 332 332 333 333 333 333 333 332 332 333 333 332 330 331 330 331 334 334 333 331 331 330 331 332 332 331 331 334 335 337 337 336
322 325 326 327 327 328 329 330 330 330 331 332 332 331 333 333 333 333 333 333 332 330 331 331 331 332 334 333 332 330 329 330 331 331 330 331 332 333 336 337 337 336
322 324 327 326 326 326 328 328 328 328 328 329 329 330 329 329 332 332 330 328 328 330 329 331 332 333 332 332 331 328 329 330 330 329 328 329 330 330 334 336 337 337
321 323 324 325 325 326 326 326 326 326 327 328 327 328 327 327 326 327 327 328 327 326 326 329 332 330 311 300 306 328 328 328 329 328 327 328 328 328 331 334 336 335
320 321 322 323 324 324 324 325 325 325 325 325 324 325 325 325 326 324 325 327 325 325 326 326 326 315 297 296 300 309 325 328 327 327 327 327 327 328 329 331 331 329
318 317 317 318 320 321 321 322 322 321 320 321 321 321 321 320 321 321 322 323 323 323 324 324 320 299 295 297 300 306 315 328 327 326 327 327 327 327 329 329 329 329
316 315 313 313 314 315 316 316 316 315 315 315 315 317 318 316 316 319 318 319 320 320 320 320 316 295 295 297 300 303 308 318 325 327 327 327 328 327 328 329 329 329
314 313 311 310 311 312 312 312 310 309 310 312 312 312 311 311 310 311 313 316 318 318 316 314 310 297 294 296 300 302 303 308 327 328 329 329 329 330 330 329 328 328
313 311 308 308 309 310 310 309 308 308 307 306 308 308 307 307 308 308 309 311 314 315 314 311 305 294 294 294 297 300 303 313 333 333 332 331 330 329 329 328 328 328
312 310 308 307 308 308 308 307 307 307 306 306 305 305 305 306 306 307 307 308 310 312 311 310 306 293 294 295 296 300 307 330 331 330 329 327 326 326 326 327 327 329
310 309 308 306 306 307 307 307 307 306 307 307 305 304 303 303 303 303 304 304 305 306 307 306 304 296 293 296 298 300 315 328 327 324 322 319 317 316 313 310 310 315
310 309 308 307 305 305 305 306 306 306 306 306 305 304 302 302 302 302 301 301 301 302 303 304 303 297 292 293 295 298 310 321 320 318 315 312 312 312 309 306 305 302
309 309 308 307 306 305 305 305 306 306 306 306 305 304 302 302 302 302 301 300 299 300 300 301 300 298 293 293 294 298 311 317 315 313 312 311 309 310 311 310 306 301
309 309 308 307 305 305 305 304 306 306 306 305 304 303 301 301 301 300 300 299 299 299 298 299 299 298 294 292 294 295 300 313 312 311 308 308 309 309 309 310 308 305

ECMWFNIL_sfc_thetae_099.txt.gz
Theta_e
336 336 335 334 334 335 335 334 335 335 336 336 335 336 337 338 340 340 341 340 340 339 339 338 336 336 336 337 335 335 336 338 334 336 336 335 334 333 334 332 336 335
336 335 334 333 333 334 335 336 335 334 334 337 334 336 337 337 339 340 339 339 339 338 337 337 336 336 335 334 334 333 334 334 334 334 332 333 332 332 330 332 336 335
335 334 333 333 333 335 335 337 336 335 335 335 335 333 334 337 339 340 340 339 337 337 337 336 336 336 336 336 334 334 332 333 333 334 333 334 335 334 334 335 337 335
334 334 333 334 334 334 336 336 336 337 336 334 333 334 332 335 339 339 339 338 336 337 336 336 335 337 336 336 335 334 333 333 333 333 333 335 333 335 334 335 334 333
333 334 334 334 334 334 336 336 336 337 336 332 332 332 333 333 338 337 338 337 336 336 336 335 334 333 335 336 334 332 332 332 333 334 334 333 334 334 334 334 334 333
332 333 333 333 335 334 334 335 335 334 334 332 331 333 332 334 337 335 336 336 335 335 335 336 337 336 332 331 333 332 331 330 332 334 332 331 333 334 333 334 334 332
330 331 332 333 335 334 334 333 333 331 332 331 332 331 332 336 335 334 335 337 334 333 333 334 333 335 332 333 332 331 333 333 331 332 331 332 333 334 334 334 333 334
329 331 332 332 334 335 333 332 331 331 330 332 331 334 332 331 334 335 336 336 335 335 336 335 335 335 332 332 333 331 331 332 333 330 329 331 332 332 335 333 335 333
328 329 330 332 333 333 332 333 333 332 331 330 332 332 333 335 335 334 335 335 335 335 334 335 334 334 335 332 331 330 329 330 329 331 329 331 331 332 332 334 333 333
326 328 330 331 331 332 332 333 332 332 331 332 332 333 333 334 334 331 333 334 335 334 334 333 333 334 334 333 332 329 328 329 329 330 329 328 331 332 331 332 331 332
325 328 329 330 330 331 332 333 334 331 331 330 333 331 330 331 333 334 334 334 335 334 334 334 333 333 330 330 330 331 331 331 329 330 329 329 332 332 331 329 330 331
324 326 328 328 328 330 330 331 333 330 330 331 330 329 329 331 331 331 330 335 335 334 334 334 334 333 330 328 329 330 331 332 330 329 330 331 330 328 328 330 332 331
324 325 327 327 327 328 329 329 329 331 330 328 331 329 329 329 331 330 332 335 335 334 332 334 333 334 333 331 331 330 329 329 329 328 329 331 332 329 330 329 330 333
323 324 325 327 328 328 327 328 328 328 329 330 330 328 328 329 330 331 331 331 329 329 332 331 329 328 330 331 331 331 329 329 328 328 327 330 331 330 331 329 331 332
322 322 322 323 324 325 324 325 327 327 328 329 328 328 328 328 330 330 328 328 328 329 328 329 329 328 327 324 329 331 330 329 328 327 327 328 331 332 333 333 333 333
320 320 319 320 320 320 320 321 322 323 325 326 326 326 327 329 329 329 328 328 327 327 327 329 326 320 307 299 302 324 327 327 329 327 328 330 330 331 332 333 333 331
318 317 317 317 317 317 318 317 318 319 320 321 322 322 324 326 327 326 327 328 327 328 328 328 318 308 296 295 296 299 318 330 327 328 329 330 329 329 331 332 330 330
316 315 315 314 315 315 315 315 315 315 315 315 316 317 319 321 321 322 323 324 324 323 321 319 315 300 293 295 296 298 302 321 331 327 327 326 326 327 329 330 331 331
314 313 313 313 313 314 314 314 313 312 311 312 311 313 315 315 316 317 318 320 319 317 315 313 310 297 294 296 297 297 296 309 327 326 325 324 326 326 327 329 330 328
314 313 312 312 313 313 313 313 312 310 310 310 309 309 309 308 309 311 313 314 314 314 313 310 304 296 293 295 297 297 297 303 327 325 326 326 327 327 328 329 330 331
314 313 312 312 313 313 313 311 311 310 309 308 308 307 308 306 305 306 307 308 309 310 308 307 303 294 293 294 296 298 298 308 329 325 324 325 324 324 324 324 328 329
313 312 312 312 312 312 311 310 309 308 307 307 307 307 307 307 306 306 304 304 305 306 304 303 302 294 292 293 296 300 307 325 323 323 322 318 319 319 318 318 317 322
313 312 312 311 311 311 310 309 309 307 307 307 306 305 304 304 304 305 305 304 303 303 303 303 301 295 292 293 295 298 311 320 320 317 316 316 316 317 314 310 309 312
312 312 311 311 311 310 309 309 309 308 307 307 305 304 303 303 303 303 303 303 302 302 302 303 302 297 292 292 294 296 308 316 315 314 312 313 313 313 312 309 305 300
311 312 312 311 310 309 309 308 307 306 306 306 305 304 303 303 302 302 301 301 301 301 300 301 301 299 293 292 293 294 306 315 312 310 309 309 309 309 309 309 307 303
311 310 310 310 309 308 307 306 306 305 305 305 304 305 304 303 302 302 301 300 301 300 299 299 299 300 295 291 292 294 296 312 313 310 307 307 308 308 307 307 306 305

ECMWFNIL_sfc_thetae_102.txt.gz
Theta_e
335 335 334 334 333 333 333 333 333 333 333 333 334 333 335 333 332 332 332 333 334 333 335 335 335 335 335 335 335 334 333 333 332 332 332 330 330 330 330 329 330 331
335 335 335 335 333 334 335 335 334 334 334 335 334 334 334 333 332 331 330 332 332 332 332 332 335 334 333 333 335 332 332 332 329 332 331 329 328 330 330 329 329 332
332 332 333 333 333 333 334 334 333 334 333 332 333 334 332 333 333 332 332 330 331 331 332 334 334 332 332 334 332 333 331 330 330 330 331 330 330 329 330 331 330 331
330 331 331 332 333 333 333 332 333 332 332 330 330 331 331 332 332 331 331 331 330 331 331 332 331 332 334 333 333 331 332 330 331 331 329 329 328 329 329 330 330 330
329 330 331 331 332 333 333 332 332 333 332 331 332 332 331 331 331 329 328 330 331 331 330 330 334 332 330 332 333 330 330 330 330 329 327 327 329 329 329 330 329 329
329 328 330 330 331 331 332 332 331 331 331 331 331 331 331 331 329 329 330 330 330 330 330 330 331 333 334 333 331 330 330 329 329 330 327 326 329 330 332 331 330 329
327 328 329 330 331 331 331 331 331 331 332 332 332 331 330 329 329 330 330 330 329 331 331 329 329 331 332 332 331 329 329 328 329 328 328 328 328 329 332 331 330 329
326 327 328 329 330 331 330 330 330 331 331 331 330 331 331 331 330 330 329 330 331 331 330 330 330 331 331 331 330 329 329 330 328 327 329 327 327 328 330 331 331 329
326 326 328 330 330 330 330 331 330 330 331 330 330 331 331 330 331 331 331 329 329 330 326 328 327 330 329 331 330 329 330 330 330 330 328 327 326 326 327 329 329 327
324 326 328 328 328 328 329 329 330 330 331 330 330 330 329 330 330 330 330 329 329 329 330 330 328 329 330 330 331 329 330 329 328 328 328 329 329 328 328 328 325 325
324 325 326 325 327 327 328 328 329 329 330 329 330 328 328 330 330 330 329 329 329 330 329 329 330 328 330 329 330 330 330 330 330 329 329 330 327 328 327 327 327 327
322 321 321 321 323 324 324 326 327 327 328 328 329 327 328 330 330 329 329 329 329 329 330 328 329 331 330 329 329 330 331 331 330 330 330 329 330 330 330 331 330 330
319 319 319 319 320 321 322 322 323 325 326 326 328 327 327 327 328 328 328 329 328 327 328 329 327 325 325 329 329 329 330 330 330 330 330 329 328 329 330 330 329 328
317 318 318 318 319 319 319 319 319 320 320 323 324 325 326 327 326 327 327 327 326 327 326 323 318 314 312 312 318 328 328 328 330 329 329 329 329 330 330 329 327 328
317 317 317 317 316 316 316 316 316 316 316 318 320 322 324 325 326 327 326 326 326 324 318 315 313 310 306 305 308 314 325 326 327 327 327 327 328 330 329 329 330 330
315 315 315 315 315 314 314 314 313 313 313 313 314 316 317 320 321 322 320 317 316 316 315 312 308 305 301 298 300 305 312 323 328 327 327 327 326 325 328 329 327 325
314 314 314 314 314 313 313 312 312 311 311 311 311 311 312 313 315 317 316 315 313 312 310 309 305 300 296 295 296 298 308 321 329 329 326 324 325 325 325 327 326 324
314 313 313 313 313 312 312 311 310 310 309 309 310 309 309 309 309 311 312 312 311 311 308 306 304 297 294 296 296 297 301 321 324 323 324 326 327 326 324 326 326 324
313 312 312 312 312 312 311 310 309 308 307 307 307 309 308 307 307 307 307 308 308 307 305 304 301 295 294 296 299 303 306 316 323 323 322 320 320 321 323 326 325 326
312 312 312 312 311 311 310 309 308 307 307 306 306 307 306 306 306 305 305 305 306 306 304 302 298 295 294 296 297 300 304 311 319 319 318 315 313 312 313 316 323 323
311 311 311 311 311 310 309 308 307 306 306 305 305 304 304 304 304 303 303 303 304 306 303 302 298 293 293 295 296 299 303 308 317 317 316 313 311 309 308 307 313 323
311 311 310 310 310 309 308 307 306 306 305 305 304 304 304 304 303 303 301 301 301 302 302 300 299 293 293 294 295 296 304 315 316 315 314 313 310 308 306 305 305 310
310 310 309 309 308 307 306 306 306 306 306 306 304 303 303 303 302 301 301 300 300 300 300 300 298 294 292 293 294 295 306 315 314 313 312 310 309 308 306 304 303 304
309 309 308 307 306 306 305 305 306 306 306 306 304 303 302 302 302 301 301 300 299 299 299 299 298 295 292 293 294 294 303 312 311 310 309 308 307 307 306 305 303 300
308 307 306 305 304 303 304 304 305 306 306 306 305 304 303 302 302 301 300 300 300 299 300 299 299 296 293 292 293 293 302 311 310 308 306 305 306 305 304 303 303 300
307 305 304 303 302 302 302 302 303 303 303 304 304 303 302 302 301 300 299 299 300 300 299 299 298 298 295 292 292 293 295 306 309 307 304 304 303 303 301 301 300 299

ECMWFNIL_sfc_thetae_105.txt.gz
Theta_e
326 327 326 327 327 328 328 328 328 327 327 327 327 328 328 329 330 329 328 328 327 327 328 329 329 328 329 329 330 331 330 329 329 331 328 327 327 327 327 327 328 329
325 326 326 326 326 327 328 327 327 327 327 326 327 327 327 328 328 328 328 328 328 327 328 328 328 330 330 329 329 329 330 330 330 332 329 327 328 328 327 327 327 329
324 325 325 325 325 326 328 328 327 327 327 327 327 327 327 328 327 328 328 328 328 327 327 327 328 328 327 327 328 328 329 330 329 329 330 329 328 326 327 328 327 327
324 324 325 325 325 326 327 327 326 327 327 326 327 328 328 328 328 327 327 328 326 327 327 327 326 326 327 327 327 328 329 328 329 329 327 327 327 327 327 328 327 327
323 324 324 324 325 326 326 326 326 326 326 327 327 327 327 327 327 326 326 326 326 326 326 325 326 326 327 327 329 328 328 326 327 328 326 326 327 327 327 327 327 326
322 323 323 324 326 326 326 326 326 326 326 326 326 327 327 327 326 326 327 327 327 326 325 326 326 326 326 326 326 327 326 325 326 327 326 325 325 327 327 327 327 327
321 322 324 326 326 327 326 326 326 326 327 326 326 326 327 326 326 326 327 328 327 326 327 327 324 323 325 327 326 325 324 325 326 326 325 324 326 325 327 327 327 327
322 323 323 324 325 325 325 325 325 326 327 326 325 326 327 327 327 327 327 328 327 326 324 325 326 327 327 325 325 324 325 326 324 323 325 325 324 324 326 328 327 327
321 320 320 320 321 321 322 324 324 326 327 325 325 325 327 327 328 327 327 327 326 324 323 324 324 325 324 325 324 324 324 323 325 324 324 322 323 323 327 327 327 326
318 318 318 317 318 319 319 320 321 323 325 324 325 326 326 327 327 327 326 325 326 327 326 326 325 325 326 326 326 326 326 326 325 325 325 324 325 325 326 325 324 324
315 316 316 316 316 316 316 317 317 318 320 321 323 325 326 326 326 326 325 324 322 323 321 319 319 321 325 325 326 325 325 326 325 325 324 325 323 325 326 325 324 324
315 315 315 315 315 314 314 315 315 315 316 317 319 321 323 324 324 324 323 318 316 315 315 314 313 314 315 319 325 327 326 325 325 325 325 325 324 326 326 326 325 325
314 314 314 314 314 313 313 313 313 313 313 313 315 316 318 318 317 316 317 316 315 314 313 312 310 310 309 312 317 323 324 325 326 325 325 325 325 324 324 326 326 325
313 314 313 313 313 312 312 312 312 312 312 312 312 312 314 316 314 313 313 312 312 311 310 309 307 306 305 307 310 315 318 322 324 324 325 324 325 324 326 325 326 325
313 313 313 313 312 311 310 310 310 310 311 311 310 309 310 311 312 312 310 309 309 308 308 306 305 304 303 302 305 313 314 319 324 324 324 325 325 325 325 325 325 322
313 312 312 312 311 309 309 309 308 309 309 309 309 308 308 308 308 309 308 307 306 305 305 304 303 302 302 301 302 310 319 323 323 322 323 323 323 323 323 322 320 318
312 311 311 310 310 309 308 307 307 307 307 307 307 306 306 306 306 306 306 307 305 303 302 302 301 299 297 296 299 307 319 320 319 319 320 321 323 322 321 321 321 321
311 310 310 309 309 308 307 307 306 305 305 305 305 304 304 304 303 303 304 305 305 304 302 300 299 297 295 296 298 301 309 316 314 313 313 313 315 319 322 322 321 320
310 310 309 308 308 307 307 306 305 304 303 303 303 304 303 302 301 301 301 303 303 302 301 299 297 295 295 296 298 299 302 310 312 311 309 309 310 312 315 319 318 316
309 308 307 307 307 307 306 306 305 304 303 303 303 302 301 301 300 299 299 300 300 300 300 299 297 295 294 296 298 300 301 306 311 309 308 307 307 307 308 310 313 312
307 307 306 306 306 306 305 305 304 304 303 303 302 301 300 299 299 298 298 298 299 299 298 298 296 293 294 295 297 300 301 304 310 309 307 306 305 305 305 305 306 309
305 304 304 304 305 305 304 304 304 303 302 301 301 300 300 300 299 299 298 298 298 298 298 297 296 293 293 294 296 298 302 309 308 307 305 305 304 304 303 303 304 304
303 301 301 301 301 301 302 302 303 303 302 301 299 298 297 297 297 297 298 298 298 298 298 297 297 294 292 293 295 297 302 306 306 305 304 303 302 302 302 301 301 302
300 299 299 298 298 298 299 299 301 301 301 301 298 297 296 296 296 296 297 297 297 297 297 297 297 295 293 293 294 296 302 305 304 303 302 301 301 301 301 300 301 301
300 299 299 298 298 297 298 297 298 298 299 299 298 297 296 296 296 295 295 296 297 297 299 296 297 297 294 293 293 294 301 305 303 301 300 299 299 299 299 299 299 299
299 299 299 299 298 297 297 297 297 296 297 297 296 296 296 296 296 295 295 296 296 296 296 296 295 296 295 293 293 294 296 302 302 300 299 298 298 298 298 298 299 299

ECMWFNIL_sfc_thetae_108.txt.gz
Theta_e
321 321 322 321 322 323 323 323 323 323 324 324 323 324 324 325 326 326 326 326 326 327 328 328 328 328 329 329 329 329 328 328 328 328 328 328 327 327 326 326 326 326
320 321 321 321 322 323 324 323 323 323 324 323 324 324 325 325 326 326 326 326 327 328 329 328 327 326 327 327 327 327 327 328 327 329 327 326 326 326 326 326 325 326
319 319 320 320 321 323 324 325 323 323 323 324 324 324 325 326 327 328 327 327 328 328 327 327 327 327 327 327 327 327 326 327 327 329 329 327 327 326 326 327 327 327
319 320 321 323 324 325 326 325 324 324 324 323 324 325 326 327 327 327 327 328 327 326 326 325 326 328 328 327 326 325 325 326 327 328 328 327 327 327 326 327 327 327
320 321 323 324 326 326 325 325 325 325 325 325 326 326 327 327 327 327 327 327 327 326 326 326 327 327 327 326 327 326 327 327 327 327 326 325 326 326 326 326 326 325
321 322 322 323 324 324 324 324 325 325 324 324 325 326 327 327 327 327 327 326 326 326 325 326 327 327 327 326 327 325 324 324 325 326 324 324 324 325 326 325 325 324
319 319 319 319 319 320 320 321 322 323 323 323 325 326 327 327 326 325 325 326 327 326 325 325 325 325 326 326 325 324 322 323 325 324 324 324 325 325 327 326 326 325
317 318 317 316 315 316 316 317 318 319 320 320 322 325 326 326 324 323 321 321 321 320 320 321 323 325 325 325 323 322 322 322 320 320 321 323 322 323 324 326 325 326
315 315 314 313 312 313 314 315 316 317 318 318 319 320 322 323 321 319 317 316 316 315 315 316 316 319 324 325 324 323 323 321 322 322 323 321 321 321 324 324 323 323
313 313 312 312 312 312 313 313 314 315 316 316 317 317 316 316 316 315 315 314 313 313 313 312 313 314 316 323 324 323 323 323 322 322 323 323 323 322 322 323 323 322
313 313 312 311 311 312 312 312 312 312 313 313 314 314 314 313 313 312 311 311 310 310 310 309 309 310 310 313 318 322 323 322 322 322 322 322 323 324 326 323 323 323
312 312 311 311 311 310 311 311 311 311 311 311 311 311 311 311 310 310 310 308 308 308 308 307 308 308 308 308 312 316 320 322 321 321 321 322 322 323 324 324 323 323
311 310 310 310 309 309 310 310 310 309 309 309 309 309 308 308 309 308 308 307 307 307 306 306 306 307 307 307 310 315 318 321 322 321 321 321 321 321 322 324 324 323
310 310 309 309 309 308 308 308 309 308 308 308 307 306 306 306 307 307 307 307 306 305 306 306 305 305 305 306 309 316 319 321 322 322 323 323 323 323 323 322 322 321
310 310 309 308 308 307 306 306 307 307 306 306 305 304 305 304 305 306 306 305 305 304 304 304 303 303 303 304 306 315 318 319 320 321 322 322 321 320 320 319 318 317
309 308 308 307 306 305 305 305 305 305 304 303 303 302 302 303 302 304 304 303 303 303 303 302 302 303 303 301 303 310 314 315 315 316 317 319 320 319 319 319 318 318
308 308 307 306 306 305 304 304 303 303 302 301 301 301 300 301 300 301 301 302 302 301 301 301 301 301 298 297 298 301 311 312 312 312 312 312 313 314 314 314 314 314
307 307 306 306 305 304 303 303 302 301 300 300 300 299 300 300 299 299 300 300 301 301 300 299 300 298 296 298 298 298 303 310 309 309 308 307 308 308 309 311 312 312
306 305 305 304 304 303 302 301 300 300 299 299 298 299 299 298 299 299 299 299 300 300 299 299 298 295 295 297 298 298 298 305 307 306 305 304 304 304 305 306 308 310
305 305 304 304 304 303 301 300 299 298 298 298 298 298 297 297 298 298 298 298 299 299 299 298 297 295 294 296 297 297 297 301 305 304 303 303 302 302 302 302 304 307
303 303 303 303 303 302 301 299 298 297 297 297 296 296 296 296 296 296 297 298 298 299 298 297 296 293 294 295 296 297 297 300 303 303 302 302 302 302 301 301 301 302
301 300 300 301 301 300 299 298 298 296 295 296 296 295 296 296 296 296 296 296 297 297 297 296 296 293 293 294 295 296 298 302 301 301 300 300 301 301 301 301 300 300
299 299 298 298 298 297 296 296 296 295 295 295 294 294 294 294 295 295 296 296 296 296 296 296 295 294 293 294 295 296 298 300 300 299 299 299 299 300 300 300 300 300
297 296 296 296 295 295 295 295 295 295 295 295 294 293 293 294 295 295 295 296 296 296 297 295 295 295 293 293 294 295 298 300 299 298 298 298 298 298 299 299 300 300
296 296 296 295 295 294 295 294 295 295 295 294 294 294 294 294 295 294 294 294 295 295 298 296 295 295 293 293 293 293 298 299 299 298 297 297 297 297 298 298 299 299
295 295 295 294 294 294 294 294 295 294 294 294 294 294 294 293 294 293 292 292 293 293 294 295 294 294 294 292 293 293 294 298 298 298 297 297 297 297 296 297 297 297

ECMWFNIL_sfc_thetae_111.txt.gz
Theta_e
317 317 318 318 318 319 318 321 322 322 323 324 324 325 325 326 327 327 327 327 328 328 328 328 328 328 328 328 328 327 327 327 326 327 327 327 327 326 326 326 326 326
317 318 319 319 320 320 322 323 324 324 324 324 325 325 326 326 327 327 327 327 328 327 328 328 328 327 327 327 327 326 326 327 326 328 327 327 327 327 326 327 326 327
317 319 323 324 323 322 322 323 324 324 324 324 325 326 326 327 327 327 327 327 327 327 327 327 327 327 327 327 327 327 326 326 326 327 327 327 327 327 327 327 326 326
321 322 323 323 324 324 323 323 324 324 324 323 324 326 327 327 327 325 325 327 326 326 326 326 326 327 327 327 327 326 326 326 326 326 325 326 326 327 327 327 326 326
319 319 319 319 319 321 320 320 320 321 321 321 323 325 326 324 323 321 321 322 322 321 322 323 324 325 326 326 326 325 325 325 325 325 325 325 325 325 326 326 326 325
317 316 316 316 317 317 317 317 318 318 319 319 321 322 323 321 319 318 317 317 318 318 318 318 319 322 324 325 325 324 324 324 324 324 324 323 324 325 325 326 326 325
314 314 314 314 314 315 315 316 316 317 317 318 318 317 317 317 316 316 315 315 315 315 314 314 314 315 318 321 323 322 322 321 322 322 322 323 323 323 326 326 325 324
313 313 312 312 312 312 313 314 314 315 316 316 315 315 315 314 313 313 313 312 312 312 311 311 311 312 313 315 320 322 322 322 321 322 322 320 321 322 323 324 324 324
311 311 311 311 311 312 312 312 312 313 314 313 313 313 313 312 311 311 310 310 310 310 309 309 310 310 311 312 314 317 320 322 322 321 321 320 320 320 321 322 322 321
311 311 311 311 311 311 310 311 311 311 312 311 311 311 310 311 311 310 309 308 308 308 308 308 309 310 310 310 312 314 317 320 322 321 321 320 320 321 321 321 321 320
310 310 310 309 309 310 309 310 309 309 310 309 308 308 308 309 309 309 308 307 307 307 307 307 308 308 309 310 312 316 319 321 321 322 322 322 322 322 324 322 321 321
309 309 308 308 308 308 308 308 308 307 307 307 306 305 305 306 307 307 308 306 306 306 306 306 307 307 307 308 313 318 320 322 323 323 322 322 321 321 320 320 320 320
308 307 307 307 307 307 307 307 306 305 305 304 304 304 303 303 305 305 306 306 305 305 305 306 306 306 306 308 313 316 317 317 318 319 321 320 320 319 319 319 318 318
307 307 306 306 306 306 305 305 304 303 302 302 302 302 302 302 303 304 304 304 304 305 305 306 305 305 304 306 311 314 315 314 313 313 314 315 316 316 316 315 315 316
306 306 306 305 305 304 303 303 302 301 301 301 301 301 302 302 303 303 303 303 303 303 302 303 303 303 304 304 307 311 311 310 309 308 308 308 309 310 312 313 314 314
306 306 305 304 303 302 301 301 300 300 300 299 300 301 301 302 302 303 303 302 301 301 301 301 301 301 302 300 302 307 307 306 306 305 304 304 305 306 307 309 312 313
305 304 303 302 301 300 299 299 299 299 298 298 299 299 299 300 300 300 301 301 301 300 299 300 300 300 297 296 297 300 305 304 304 303 303 303 302 302 303 304 308 311
303 302 300 299 299 298 298 298 298 297 297 297 297 297 298 298 298 298 299 300 300 299 298 298 298 297 295 296 296 296 301 304 303 302 302 302 302 301 302 302 304 306
303 302 300 299 298 297 297 297 296 296 296 296 296 297 297 297 297 297 297 298 298 298 297 297 297 294 294 295 295 295 297 301 302 302 302 302 302 302 301 301 302 303
303 302 301 299 298 297 296 296 295 295 295 295 296 296 295 296 296 296 296 296 297 296 296 296 295 294 293 294 295 295 295 298 301 300 300 300 301 301 301 301 301 300
301 300 299 298 297 296 295 294 294 294 294 294 294 294 294 294 295 295 296 296 296 295 295 295 294 293 293 293 294 295 295 297 300 300 299 299 299 300 300 300 301 301
299 297 296 295 295 294 294 293 293 293 293 294 294 294 294 294 295 295 295 295 295 295 295 294 294 292 292 293 293 294 296 299 298 298 297 297 298 298 298 299 300 300
296 295 295 294 294 294 293 293 293 293 293 294 293 293 293 293 293 294 294 294 295 295 294 294 294 293 292 293 293 294 296 298 298 297 297 296 296 297 298 298 299 299
294 294 294 294 293 293 293 293 293 293 293 294 292 292 292 292 292 292 292 293 293 293 294 293 293 293 292 292 293 293 297 297 297 296 296 296 296 296 297 297 299 299
293 293 293 293 293 292 292 292 292 292 292 292 292 292 291 291 292 290 290 290 291 292 296 292 292 293 292 292 292 293 296 297 297 296 295 295 295 295 296 296 296 298
293 294 293 293 292 292 292 292 292 291 291 291 291 290 290 290 290 289 289 289 289 289 290 291 291 291 292 291 292 292 294 297 296 295 294 294 295 295 295 295 295 295

ECMWFNIL_sfc_thetae_114.txt.gz
Theta_e
318 319 320 321 322 323 324 324 324 323 323 324 324 325 325 326 327 327 326 327 328 327 327 327 327 327 327 328 328 328 327 327 327 327 327 326 326 326 326 326 326 326
319 321 323 323 323 324 325 325 324 323 323 323 324 325 326 325 326 324 323 323 324 323 323 324 325 325 326 327 327 327 327 327 326 328 327 327 327 327 326 327 327 327
320 321 321 322 322 322 322 323 323 322 321 322 323 324 325 322 321 320 320 320 319 320 320 321 321 322 324 325 326 326 326 326 325 326 326 326 326 326 326 327 327 327
318 318 318 318 319 319 319 319 319 319 320 319 319 320 321 319 318 317 317 318 317 317 317 317 317 318 319 321 323 324 325 325 325 325 325 326 326 326 326 326 326 326
316 316 316 317 317 318 318 317 317 317 318 318 317 316 316 315 315 315 314 314 315 314 314 313 314 315 316 317 320 322 323 324 324 324 323 324 325 325 326 326 326 325
314 314 315 315 315 316 315 315 315 315 316 315 314 314 313 313 313 312 312 312 312 312 312 312 312 313 314 315 317 319 321 322 324 323 323 323 323 324 325 326 325 325
313 313 313 314 313 314 314 313 313 314 314 314 313 312 312 311 311 311 310 310 311 311 310 310 311 311 313 314 315 317 320 322 323 323 322 322 322 322 323 323 324 323
312 312 312 313 312 312 312 312 312 311 312 311 311 311 311 311 310 310 309 309 310 309 309 309 310 310 312 313 316 317 320 322 323 322 322 321 322 322 322 323 323 322
311 311 312 311 311 310 310 310 310 310 310 308 308 309 310 310 310 309 308 308 308 308 308 308 308 309 311 313 317 318 320 322 322 321 320 319 319 319 319 320 320 320
310 310 310 310 309 309 308 308 308 307 308 306 306 307 306 308 309 308 307 307 307 307 307 307 307 308 310 314 317 318 318 319 320 320 319 318 317 316 316 316 316 316
309 308 308 308 308 308 307 306 305 305 306 305 305 305 305 306 307 307 306 306 306 306 306 306 306 306 309 311 314 315 314 314 314 315 315 314 314 315 316 315 315 315
307 307 306 306 306 306 305 303 303 303 303 304 305 304 305 305 305 305 305 304 304 304 304 304 305 306 307 309 310 310 310 309 309 309 310 311 311 312 313 315 314 315
306 305 305 304 304 303 303 302 302 302 303 303 304 304 305 304 304 304 304 304 303 303 303 303 303 304 305 307 308 308 307 306 306 306 307 308 308 308 310 312 314 314
305 305 304 303 303 302 301 301 301 302 302 303 303 303 303 303 303 303 303 303 303 302 302 303 302 302 303 305 307 306 306 306 306 306 305 306 306 306 307 309 311 312
304 304 303 302 301 300 299 299 300 301 301 301 301 302 303 302 303 302 302 301 301 301 301 301 301 301 301 302 304 305 305 305 306 306 306 305 305 306 307 307 308 309
303 302 301 300 299 299 298 298 298 299 299 299 299 300 300 301 301 301 300 299 299 299 299 299 299 299 300 298 299 304 304 305 306 306 306 306 305 306 307 306 306 307
301 300 299 298 298 297 297 297 297 298 298 298 298 298 298 299 299 298 298 298 297 297 297 298 298 298 295 294 295 297 303 303 303 303 303 303 303 303 303 304 304 306
299 298 297 297 297 296 296 296 297 296 296 297 297 297 297 298 297 297 297 297 297 297 296 297 297 296 293 294 295 295 299 301 301 301 301 300 301 301 301 302 302 303
299 297 296 296 296 296 296 296 295 295 295 295 296 297 297 296 296 296 296 297 297 296 296 296 296 294 293 294 294 294 295 299 300 300 299 299 299 299 299 299 300 300
298 296 295 295 295 295 295 295 295 294 294 295 295 296 295 295 296 296 296 296 296 296 295 295 295 294 293 294 294 294 294 297 299 299 299 298 298 298 298 298 298 298
296 295 295 294 294 294 294 294 294 294 294 294 294 294 294 294 294 294 295 295 295 295 295 295 294 293 293 293 293 294 295 296 299 299 298 298 298 298 298 298 297 297
296 294 294 294 294 294 293 293 293 293 293 294 294 293 293 293 293 294 294 294 294 295 294 294 294 292 292 293 293 293 295 299 299 298 298 297 297 298 298 298 298 297
295 294 294 293 293 293 293 292 292 292 293 294 292 292 292 291 291 292 293 293 294 294 293 293 294 293 292 292 293 293 296 298 298 298 297 297 296 297 297 298 298 298
294 294 293 293 293 292 292 292 292 292 292 293 291 291 290 291 291 291 291 292 292 293 294 292 293 293 292 292 292 293 296 297 297 297 296 296 296 296 296 296 297 298
293 293 293 292 292 291 292 291 291 291 291 291 290 290 290 291 292 290 290 291 291 292 295 292 292 293 292 291 292 293 296 297 297 296 295 295 295 295 296 296 296 297
294 294 293 292 291 291 291 291 291 290 289 290 289 290 290 290 291 290 290 290 290 290 291 292 292 292 293 291 292 292 293 296 296 295 294 294 294 294 294 294 295 295

ECMWFNIL_sfc_thetae_117.txt.gz
Theta_e
328 328 326 327 326 326 326 325 325 324 324 325 325 325 325 326 327 326 324 325 325 325 324 324 324 324 325 326 327 328 329 330 330 331 331 330 331 330 328 329 330 330
327 327 327 327 326 325 325 325 324 324 324 323 323 324 325 325 324 323 323 323 323 323 322 322 321 321 323 324 326 327 329 329 328 330 329 330 331 330 329 329 329 330
326 325 324 323 322 322 323 324 324 323 323 321 321 321 321 322 321 321 320 320 320 319 319 319 319 319 321 323 325 327 327 327 326 328 328 329 330 330 329 329 328 329
322 322 322 321 322 322 323 323 322 321 320 318 318 319 320 320 319 318 318 318 317 317 317 317 318 319 320 321 323 325 326 328 328 327 327 329 329 329 329 329 329 329
319 319 320 320 321 322 323 321 318 318 317 317 317 318 317 317 316 316 315 315 315 315 315 316 317 318 319 321 323 325 326 326 327 327 326 325 327 327 327 327 326 326
319 319 319 320 320 320 319 317 315 316 315 315 315 316 315 315 315 313 313 313 314 314 314 315 316 317 318 320 323 325 326 325 326 324 324 323 324 325 325 325 324 323
317 318 318 318 318 317 316 315 314 314 314 315 315 314 315 314 313 313 313 313 313 314 314 314 315 316 318 320 321 321 322 323 322 321 319 320 320 320 321 322 321 320
317 318 317 316 316 314 313 312 312 312 313 313 312 312 313 312 312 312 312 313 313 312 312 313 315 316 316 317 316 316 316 317 317 316 316 317 317 317 318 319 319 318
315 314 314 313 312 311 311 311 311 311 311 311 311 311 312 312 311 311 312 312 313 311 313 313 313 315 315 314 314 313 313 313 314 314 314 314 314 314 315 317 316 317
313 312 311 311 310 309 310 310 310 310 311 311 311 311 310 311 311 311 311 312 314 312 313 312 313 315 315 314 313 312 312 312 312 312 312 312 312 313 313 314 314 314
310 310 310 309 309 308 308 309 309 309 310 310 311 310 310 310 311 311 312 312 311 312 311 310 311 313 313 312 312 313 312 312 312 312 313 313 312 312 314 313 313 312
309 309 308 307 307 307 307 307 308 308 309 310 310 309 310 310 310 310 310 310 310 310 310 309 308 309 311 311 311 312 313 313 312 313 313 313 312 311 312 312 312 312
307 307 306 306 306 306 306 306 306 308 308 308 309 308 308 308 309 309 309 309 308 308 308 308 308 307 309 311 312 312 312 311 311 312 312 313 312 311 312 312 311 312
306 306 306 306 306 306 306 306 306 307 307 307 307 306 306 307 307 308 308 308 308 307 307 307 307 306 307 310 310 309 309 309 309 309 310 310 310 310 312 312 311 311
305 305 306 306 306 305 305 305 305 305 305 306 305 305 306 307 308 308 307 308 307 306 306 306 305 304 303 304 307 308 308 308 307 307 308 308 308 309 310 310 311 311
304 305 305 306 306 305 305 305 305 305 305 305 305 306 306 307 306 306 305 305 305 305 305 304 303 303 299 297 298 306 308 307 307 306 306 307 307 307 308 308 309 309
304 305 306 305 305 305 305 304 304 305 306 305 305 305 305 305 305 304 305 305 304 304 304 303 302 300 295 294 294 296 305 307 306 305 305 305 305 305 305 306 307 308
303 305 307 305 306 304 305 305 305 305 305 305 305 304 304 305 304 304 304 304 304 304 304 303 302 296 293 294 294 294 299 306 306 305 305 304 304 304 304 304 305 306
303 303 303 304 305 304 305 306 307 304 303 303 302 303 304 303 303 303 303 304 304 303 302 302 302 294 293 294 294 294 295 302 304 305 304 303 304 303 303 303 304 304
303 302 302 302 302 302 303 303 302 301 302 302 303 303 303 302 303 303 303 303 303 303 302 302 301 295 293 294 294 294 294 299 305 304 304 303 303 303 303 303 303 303
302 302 301 301 302 302 302 301 301 301 301 301 302 302 301 301 302 302 302 303 303 303 303 301 299 292 293 293 293 294 295 299 305 304 303 303 303 303 303 303 303 303
302 301 301 301 301 301 301 300 301 301 300 301 301 301 301 302 302 302 302 302 303 303 303 301 299 292 292 293 293 293 296 304 304 303 303 302 302 303 302 302 302 302
301 301 301 301 301 300 300 300 300 300 300 302 301 301 300 300 301 301 302 302 302 303 303 301 300 294 291 292 293 293 299 304 304 303 303 302 302 302 302 301 300 300
301 301 300 300 300 299 299 299 300 300 300 301 301 300 300 300 301 301 301 301 301 301 302 301 300 295 291 292 292 292 298 303 303 302 302 302 301 302 302 302 300 297
301 300 300 299 299 299 299 299 299 299 300 301 301 301 300 301 301 300 300 301 301 301 299 300 300 297 292 291 292 292 299 304 302 301 301 301 301 300 301 301 301 299
301 300 299 299 298 299 299 299 300 300 300 300 301 301 300 300 300 300 300 299 300 300 300 301 300 298 294 291 291 292 293 302 302 300 299 299 300 299 299 300 300 300

ECMWFNIL_sfc_thetae_120.txt.gz
Theta_e
332 332 331 329 328 328 328 327 327 327 327 327 326 327 327 328 328 328 328 328 328 328 328 328 328 328 329 330 331 332 332 333 332 332 333 332 332 334 334 335 335 333
330 330 329 328 327 328 327 327 327 327 326 326 326 326 327 327 327 327 326 325 326 326 326 326 326 327 329 329 330 330 330 331 331 332 331 331 331 332 333 332 332 333
328 327 327 326 326 327 327 327 326 326 325 325 326 326 325 325 325 325 324 324 324 324 323 324 325 326 326 327 329 330 330 330 329 331 331 331 330 330 330 329 328 329
326 326 325 325 325 325 326 325 325 325 324 324 324 324 324 324 324 323 323 323 323 322 323 323 324 325 325 326 328 329 329 327 326 327 327 327 327 326 326 326 325 325
324 325 325 325 325 325 325 324 323 322 323 323 323 323 322 323 322 322 322 322 322 321 322 323 323 323 325 325 326 325 324 324 324 325 324 324 325 324 324 324 323 323
324 323 323 323 323 323 322 322 321 322 322 321 320 320 321 321 321 321 321 321 321 321 322 323 322 323 323 324 324 323 322 322 323 323 322 322 323 322 322 322 321 320
322 322 322 321 322 322 322 321 321 321 320 320 320 319 320 320 320 320 320 321 321 321 321 322 322 322 322 322 322 321 321 320 320 320 320 320 321 320 321 320 319 318
320 320 321 322 321 321 320 319 319 319 319 319 318 318 319 318 319 320 321 322 321 321 321 322 322 321 321 321 319 319 319 319 320 319 319 318 319 318 318 319 319 317
320 319 319 319 320 320 319 318 317 318 319 318 317 317 318 318 319 320 320 321 321 320 320 320 320 320 320 319 318 318 318 319 319 319 318 317 317 317 317 317 317 317
317 317 318 319 318 317 317 317 317 317 317 317 317 317 317 318 319 319 319 320 320 319 318 318 319 319 319 318 318 318 318 318 318 318 317 316 316 316 316 316 315 315
315 316 317 317 316 315 315 316 316 316 317 316 317 316 317 318 318 319 319 319 319 319 317 317 317 318 318 317 318 318 317 317 317 317 317 317 317 317 317 316 314 313
315 315 315 315 314 314 314 315 315 315 315 315 315 315 316 317 317 317 319 316 317 317 317 316 317 317 317 316 317 318 317 317 317 317 317 316 316 317 316 316 314 313
314 313 314 314 313 313 314 314 314 314 314 313 314 315 316 316 316 316 316 316 316 315 316 315 314 314 315 317 317 317 317 316 317 317 317 317 316 316 317 316 315 313
313 313 314 314 313 313 313 313 313 313 313 313 313 314 315 316 316 315 316 316 315 313 313 313 311 310 310 312 317 317 316 315 315 315 315 315 316 315 316 316 315 313
312 315 315 314 313 313 313 312 312 313 313 314 314 315 315 316 316 315 315 313 312 312 311 310 309 308 306 306 311 315 314 314 313 313 313 313 314 314 314 314 314 314
314 314 314 314 313 312 312 313 313 313 313 314 315 314 315 315 315 314 313 312 311 310 310 309 307 306 300 296 298 308 313 312 312 312 311 311 311 312 312 312 312 314
314 314 314 313 313 313 313 313 313 313 313 314 313 314 314 313 313 312 312 311 310 309 308 308 306 303 295 294 295 296 309 311 310 310 310 309 309 309 310 310 310 311
313 313 313 313 313 313 314 314 314 314 312 313 312 312 312 313 312 311 311 311 310 309 308 307 305 296 293 294 294 294 299 311 310 309 308 308 307 307 308 308 308 308
313 312 312 312 312 314 314 314 311 311 311 311 311 312 312 311 310 310 309 309 309 308 307 306 306 294 293 294 294 294 295 304 309 309 307 306 306 307 307 307 307 307
313 313 312 313 314 313 311 311 311 310 311 311 311 311 310 310 310 309 309 308 308 307 306 306 304 295 292 293 293 293 294 301 309 308 307 305 305 305 306 307 306 306
312 312 313 314 313 310 310 310 309 310 309 310 310 309 308 308 308 308 308 308 307 306 305 305 302 291 292 292 292 293 293 301 309 309 307 306 305 304 305 305 306 306
312 311 311 311 310 310 309 309 309 309 308 308 308 308 308 308 308 308 307 307 306 306 305 303 302 291 291 292 292 292 294 309 308 307 307 306 305 304 303 304 305 305
311 310 310 309 309 308 308 308 307 307 307 308 307 307 307 307 307 306 307 307 306 305 304 303 303 295 291 291 292 291 301 308 308 306 306 306 305 305 303 302 302 302
310 309 309 308 308 307 307 307 308 308 308 308 306 306 305 306 305 305 305 305 305 304 303 302 302 296 291 291 292 291 297 306 306 306 306 305 305 305 304 303 301 297
308 308 308 307 307 307 307 306 307 307 307 307 306 306 306 306 305 304 304 304 305 304 301 302 302 299 292 291 291 291 298 308 305 305 304 304 304 303 304 303 302 300
307 307 307 307 306 306 307 306 307 307 306 306 306 305 305 305 304 304 304 303 304 304 304 304 302 300 296 290 291 292 291 303 306 304 303 303 303 302 302 302 302 302

ECMWFNIL_sfc_thetae_123.txt.gz
Theta_e
333 333 332 331 330 329 330 329 329 328 328 328 328 329 328 329 328 328 328 329 329 328 328 328 328 329 330 331 332 333 333 331 330 330 331 331 330 330 328 328 328 327
333 332 330 329 328 328 329 330 328 327 327 328 328 328 328 327 327 327 327 328 328 327 327 327 328 327 328 329 331 330 329 328 328 328 329 328 327 326 325 326 326 326
330 330 329 327 326 327 327 327 327 326 327 327 327 327 326 327 327 327 327 327 326 326 326 327 327 327 327 328 328 327 327 326 326 328 328 327 325 325 325 324 323 323
328 328 327 327 327 327 327 326 326 326 327 325 325 326 326 327 327 326 326 326 325 325 326 326 326 326 327 327 327 326 326 326 326 327 326 326 324 324 324 324 323 323
327 327 327 326 326 326 326 325 325 325 324 324 325 325 325 325 325 325 325 325 325 325 326 325 325 325 326 326 326 325 325 324 324 325 323 322 323 323 323 322 321 321
325 325 325 326 325 325 323 323 324 323 323 323 323 323 324 324 325 325 325 325 325 325 325 325 324 324 324 324 324 323 322 322 322 322 321 321 321 321 321 321 320 320
324 324 324 324 324 323 323 322 322 323 323 323 322 322 324 324 324 324 324 324 324 323 323 324 323 323 323 323 322 322 321 321 321 321 320 320 320 320 320 320 319 318
323 323 323 323 323 322 322 322 322 322 322 322 321 322 323 323 323 324 324 323 322 322 322 322 322 321 321 322 320 320 321 321 320 320 319 319 319 318 318 318 318 317
322 323 323 322 322 322 321 321 321 321 321 321 321 321 322 323 323 323 322 322 321 320 321 321 321 321 321 321 320 319 319 320 319 319 318 318 317 317 317 317 316 316
321 322 321 321 320 320 320 320 320 321 321 321 321 321 321 322 322 322 321 321 320 320 320 320 320 320 320 320 319 319 318 318 319 319 318 318 317 316 316 315 314 314
321 321 320 319 319 319 319 320 320 320 320 320 321 321 321 322 321 321 321 320 320 319 319 319 319 319 319 319 319 319 319 318 318 318 318 317 317 317 316 314 313 312
319 319 318 318 318 318 319 319 319 319 319 320 320 320 320 320 320 320 319 318 318 317 318 317 317 317 317 317 318 318 318 318 318 317 317 317 316 316 315 314 313 312
318 318 317 317 317 317 318 318 318 319 319 319 320 320 319 319 319 318 318 317 317 317 315 315 314 314 314 315 317 317 317 316 316 316 316 316 315 315 315 314 314 313
317 317 317 317 317 317 318 318 318 318 318 319 319 319 318 318 317 316 317 316 315 314 313 313 312 310 309 310 312 316 315 315 315 315 315 315 315 314 314 314 314 312
318 318 317 316 316 316 317 317 318 319 318 318 318 318 318 318 318 316 315 314 313 313 312 311 310 308 306 305 307 311 314 313 312 312 312 313 313 312 311 311 312 313
317 317 317 317 316 316 316 317 317 318 318 317 317 317 317 317 316 315 314 312 311 310 310 310 308 307 300 296 298 305 313 311 311 311 310 310 310 310 310 309 308 309
316 316 316 315 316 316 317 317 317 317 317 316 316 316 316 316 315 313 312 312 310 309 308 308 307 303 294 294 294 295 308 311 309 309 309 309 309 308 308 308 308 308
316 316 316 316 316 316 316 316 316 316 315 315 315 315 315 315 313 312 312 311 310 309 308 307 306 296 292 293 294 293 296 308 309 308 307 307 308 308 308 307 307 307
316 316 316 316 316 316 316 316 315 315 314 314 314 315 314 312 312 311 310 309 309 307 307 306 306 294 292 292 293 292 293 301 308 307 305 305 306 307 307 307 306 306
316 315 315 315 315 315 315 314 314 313 314 314 313 313 312 311 310 310 309 308 307 307 306 306 304 294 292 292 293 292 292 297 310 307 305 304 304 305 306 306 306 305
316 315 315 314 314 314 314 314 313 313 312 312 312 311 310 309 309 309 308 308 307 306 305 304 303 291 292 291 292 292 291 298 310 309 306 305 304 303 303 304 305 305
315 315 314 314 313 313 313 312 312 312 311 311 311 310 310 309 309 309 307 307 306 306 304 303 302 291 291 291 291 292 293 308 308 308 307 306 304 303 302 302 303 303
315 314 313 313 313 312 311 311 310 309 310 310 310 309 309 308 308 308 307 306 305 304 303 302 302 295 290 291 291 291 298 310 308 306 306 306 305 304 302 301 301 301
314 314 312 312 312 311 310 310 309 308 308 309 308 307 306 306 307 306 306 305 304 304 303 301 301 297 291 291 291 291 296 309 307 307 306 305 305 305 304 302 301 299
314 313 312 312 310 310 310 308 308 307 308 308 307 307 307 306 306 305 305 305 305 304 303 302 301 298 292 291 291 292 297 308 306 305 305 305 304 303 304 303 302 301
313 313 312 311 309 309 309 308 307 307 307 307 307 306 305 305 305 305 305 305 305 305 304 304 302 300 296 290 291 292 292 304 308 305 303 303 303 302 302 302 302 301